[[{"header":{"parameterUnit":"m.s-1","parameterCategory":1,"la1":31.0,"la2":29.5877,"lo1":-88.7671,"lo2":-86.6584,"dy":0.0162,"dx":0.0185,"nx":115,"ny":88,"refTime":"2024-03-06T18:00:00:Z","depth":0,"parameterNumber":2,"parameterNumberName":"U-component_of_WINDS"},"data":[0.0,0.0,0.0,0.0,0.0,0.0,0.0,0.0,0.0,0.0,0.0,0.0,0.0,0.0,0.0,0.0,0.0,0.0,0.0,0.0,0.0,0.0,0.0,0.0,0.0,0.0,0.0,0.0,0.0,0.0,0.0,0.0,0.0,0.0,0.0,0.0,0.0,0.0,0.0,0.0,0.0,0.0,0.0,0.0,0.0,0.0,0.0,0.0,0.0,0.0,0.0,0.0,0.0,0.0,0.0,0.0,0.0,0.0,0.0,0.0,0.0,0.0,0.0,0.0,0.0,0.0,0.0,0.0,0.0,0.0,0.0,0.0,0.0,0.0,0.0,0.0,0.0,0.0,0.0,0.0,0.0,0.0,0.0,0.0,0.0,0.0,0.0,0.0,0.0,0.0,0.0,0.0,0.0,0.0,0.0,0.0,0.0,0.0,0.0,0.0,0.0,0.0,0.0,0.0,0.0,0.0,0.0,0.0,0.0,0.0,0.0,0.0,0.0,0.0,0.0,0.0,0.0,0.0,0.0,0.0,0.0,0.0,0.0,0.0,0.0,0.0,0.0,0.0,0.0,0.0,0.0,0.0,0.0,0.0,0.0,0.0,0.0,0.0,0.0,0.0,0.0,0.0,0.0,0.0,0.0,0.0,0.0,0.0,0.0,0.0,0.0,0.0,0.0,0.0,0.0,0.0,0.0,0.0,0.0,0.0,0.0,0.0,0.0,0.0,0.0,0.0,0.0,0.0,0.0,0.0,0.0,0.0,0.0,0.0,0.0,0.0,0.0,0.0,0.0,0.0,0.0,0.0,0.0,0.0,0.0,0.0,0.0,0.0,0.0,0.0,0.0,0.0,0.0,0.0,0.0,0.0,0.0,0.0,0.0,0.0,0.0,0.0,0.0,0.0,0.0,0.0,0.0,0.0,0.0,0.0,0.0,0.0,0.0,0.0,0.0,0.0,0.0,0.0,0.0,0.0,0.0,0.0,0.0,0.0,0.0,0.0,0.0,0.0,0.0,0.0,0.0,0.0,0.0,0.0,0.0,0.0,0.0,0.0,0.0,0.0,0.0,0.0,0.0,0.0,0.0,0.0,0.0,0.0,0.0,0.0,0.0,0.0,0.0,0.0,0.0,0.0,0.0,0.0,0.0,0.0,0.0,0.0,0.0,0.0,0.0,0.0,0.0,0.0,0.0,0.0,0.0,0.0,0.0,0.0,0.0,0.0,0.0,0.0,0.0,0.0,0.0,0.0,0.0,0.0,0.0,0.0,0.0,0.0,0.0,0.0,0.0,0.0,0.0,0.0,0.0,0.0,0.0,0.0,0.0,0.0,0.0,0.0,0.0,0.0,0.0,0.0,0.0,0.0,0.0,0.0,0.0,0.0,0.0,0.0,0.0,0.0,0.0,0.0,0.0,0.0,0.0,0.0,0.0,0.0,0.0,0.0,0.0,0.0,0.0,0.0,0.0,0.0,0.0,0.0,0.0,0.0,0.0,0.0,0.0,0.0,0.0,0.0,0.0,0.0,0.0,0.0,0.0,0.0,0.0,0.0,0.0,0.0,0.0,0.0,0.0,0.0,0.0,0.0,0.0,0.0,0.0,0.0,0.0,0.0,0.0,0.0,0.0,0.0,0.0,0.0,0.0,0.0,0.0,0.0,0.0,0.0,0.0,0.0,0.0,0.0,0.0,0.0,0.0,0.0,0.0,0.0,0.0,0.0,0.0,0.0,0.0,0.0,0.0,0.0,0.0,0.0,0.0,0.0,0.0,0.0,0.0,0.0,0.0,0.0,0.0,0.0,0.0,0.0,0.0,0.0,0.0,0.0,0.0,0.0,0.0,0.0,0.0,0.0,0.0,0.0,0.0,0.0,0.0,0.0,0.0,0.0,0.0,0.0,0.0,0.0,0.0,0.0,0.0,0.0,0.0,0.0,0.0,0.0,0.0,0.0,0.0,0.0,0.0,0.0,0.0,0.0,0.0,0.0,0.0,0.0,0.0,0.0,0.0,0.0,0.0,0.0,0.0,0.0,0.0,0.0,0.0,0.0,0.0,0.0,0.0,0.0,0.0,0.0,0.0,0.0,0.0,0.0,0.0,0.0,0.0,0.0,0.0,0.0,0.0,0.0,0.0,0.0,0.0,0.0,0.0,0.0,0.0,0.0,0.0,0.0,0.0,0.0,0.0,0.0,0.0,0.0,0.0,0.0,0.0,0.0,0.0,0.0,0.0,0.0,0.0,0.0,0.0,0.0,0.0,0.0,0.0,0.0,0.0,0.0,0.0,0.0,0.0,0.0,0.0,0.0,0.0,0.0,0.0,0.0,0.0,0.0,0.0,0.0,0.0,0.0,0.0,0.0,0.0,0.0,0.0,0.0,0.0,0.0,0.0,0.0,0.0,0.0,0.0,0.0,0.0,0.0,0.0,0.0,0.0,0.0,0.0,0.0,0.0,0.0,0.0,0.0,0.0,0.0,0.0,0.0,0.0,0.0,0.0,0.0,0.0,0.0,0.0,0.0,0.0,0.0,0.0,0.0,0.0,0.0,0.0,0.0,0.0,0.0,0.0,0.0,0.0,0.0,0.0,0.0,0.0,0.0,0.0,0.0,0.0,0.0,0.0,0.0,0.0,0.0,0.0,0.0,0.0,0.0,0.0,0.0,0.0,0.0,0.0,0.0,0.0,0.0,0.0,0.0,0.0,0.0,0.0,0.0,0.0,0.0,0.0,0.0,0.0,0.0,0.0,0.0,0.0,0.0,0.0,0.0,0.0,0.0,0.0,0.0,0.0,0.0,0.0,0.0,0.0,0.0,0.0,0.0,0.0,0.0,0.0,0.0,0.0,0.0,0.0,0.0,0.0,0.0,0.0,0.0,0.0,0.0,0.0,0.0,0.0,0.0,0.0,0.0,0.0,0.0,0.0,0.0,0.0,0.0,0.0,0.0,0.0,0.0,0.0,0.0,0.0,0.0,0.0,0.0,0.0,0.0,0.0,0.0,0.0,0.0,0.0,0.0,0.0,0.0,0.0,0.0,0.0,0.0,0.0,0.0,0.0,0.0,0.0,0.0,0.0,0.0,0.0,0.0,0.0,0.0,0.0,0.0,0.0,0.0,0.0,0.0,0.0,0.0,0.0,0.0,0.0,0.0,0.0,0.0,0.0,0.0,0.0,0.0,0.0,0.0,0.0,0.0,0.0,0.0,0.0,0.0,0.0,0.0,0.0,0.0,0.0,0.0,0.0,0.0,0.0,0.0,0.0,0.0,0.0,0.0,0.0,0.0,0.0,0.0,0.0,0.0,0.0,0.0,0.0,0.0,0.0,0.0,0.0,0.0,0.0,0.0,0.0,0.0,0.0,0.0,0.0,0.0,0.0,0.0,0.0,0.0,0.0,0.0,0.0,0.0,0.0,0.0,0.0,0.0,0.0,0.0,0.0,0.0,0.0,0.0,0.0,0.0,0.0,0.0,0.0,0.0,0.0,0.0,0.0,0.0,0.0,0.0,0.0,0.0,0.0,0.0,0.0,0.0,0.0,0.0,0.0,0.0,0.0,0.0,0.0,0.0,0.0,0.0,0.0,0.0,0.0,0.0,0.0,0.0,0.0,0.0,0.0,0.0,0.0,0.0,0.0,0.0,0.0,0.0,0.0,0.0,0.0,0.0,0.0,0.0,0.0,0.0,0.0,0.0,0.0,0.0,0.0,0.0,0.0,0.0,0.0,0.0,0.0,0.0,0.0,0.0,0.0,0.0,0.0,0.0,0.0,0.0,0.0,0.0,0.0,0.0,0.0,0.0,0.0,0.0,0.0,0.0,0.0,0.0,0.0,0.0,0.0,0.0,0.0,0.0,0.0,0.0,0.0,0.0,0.0,0.0,0.0,0.0,0.0,0.0,0.0,0.0,0.0,0.0,0.0,0.0,0.0,0.0,0.0,0.0,0.0,0.0,0.0,0.0,0.0,0.0,0.0,0.0,0.0,0.0,0.0,0.0,0.0,0.0,0.0,0.0,0.0,0.0,0.0,0.0,0.0,0.0,0.0,0.0,0.0,0.0,0.0,0.0,0.0,0.0,0.0,0.0,0.0,0.0,0.0,0.0,0.0,0.0,0.0,0.0,0.0,0.0,0.0,0.0,0.0,0.0,0.0,0.0,0.0,0.0,0.0,0.0,0.0,0.0,0.0,0.0,0.0,0.0,0.0,0.0,0.0,0.0,0.0,0.0,0.0,0.0,0.0,0.0,0.0,0.0,0.0,0.0,0.0,0.0,0.0,0.0,0.0,0.0,-7.2245,0.0,0.0,0.0,0.0,0.0,0.0,0.0,0.0,0.0,0.0,0.0,0.0,0.0,0.0,0.0,0.0,0.0,0.0,0.0,0.0,0.0,0.0,0.0,0.0,0.0,0.0,0.0,0.0,0.0,0.0,0.0,0.0,0.0,0.0,0.0,0.0,0.0,0.0,0.0,0.0,0.0,0.0,0.0,0.0,0.0,0.0,0.0,0.0,0.0,0.0,0.0,0.0,0.0,0.0,0.0,0.0,0.0,0.0,0.0,0.0,0.0,0.0,0.0,0.0,0.0,0.0,0.0,0.0,0.0,0.0,0.0,0.0,0.0,0.0,0.0,0.0,0.0,0.0,0.0,0.0,0.0,0.0,0.0,0.0,0.0,0.0,0.0,0.0,0.0,0.0,0.0,0.0,0.0,0.0,0.0,0.0,0.0,0.0,0.0,0.0,0.0,0.0,0.0,0.0,0.0,0.0,0.0,0.0,0.0,0.0,-7.2976,-7.3322,-7.3437,-7.2899,-7.1552,0.0,0.0,0.0,0.0,0.0,0.0,0.0,0.0,0.0,0.0,0.0,0.0,0.0,0.0,0.0,0.0,0.0,0.0,0.0,0.0,0.0,0.0,0.0,0.0,0.0,0.0,0.0,0.0,0.0,0.0,0.0,0.0,0.0,0.0,0.0,0.0,0.0,0.0,0.0,0.0,0.0,0.0,0.0,0.0,0.0,0.0,0.0,0.0,0.0,0.0,0.0,0.0,0.0,0.0,0.0,0.0,0.0,0.0,0.0,0.0,0.0,0.0,0.0,0.0,0.0,0.0,0.0,0.0,0.0,0.0,0.0,0.0,0.0,0.0,0.0,0.0,0.0,0.0,0.0,0.0,0.0,0.0,0.0,0.0,0.0,0.0,0.0,0.0,0.0,0.0,0.0,0.0,0.0,0.0,0.0,0.0,0.0,0.0,0.0,0.0,0.0,0.0,0.0,0.0,0.0,0.0,0.0,0.0,0.0,0.0,0.0,0.0,-7.2976,-7.2591,-7.1283,0.0,0.0,0.0,0.0,0.0,0.0,0.0,0.0,0.0,0.0,0.0,0.0,0.0,0.0,0.0,0.0,0.0,0.0,0.0,0.0,0.0,0.0,0.0,0.0,0.0,0.0,0.0,0.0,0.0,0.0,0.0,0.0,0.0,0.0,0.0,0.0,0.0,0.0,0.0,0.0,0.0,0.0,0.0,0.0,0.0,0.0,0.0,0.0,0.0,0.0,0.0,0.0,0.0,0.0,0.0,0.0,0.0,0.0,0.0,0.0,0.0,0.0,0.0,0.0,0.0,0.0,0.0,0.0,0.0,0.0,0.0,0.0,0.0,0.0,0.0,0.0,0.0,0.0,0.0,0.0,0.0,0.0,0.0,0.0,0.0,0.0,0.0,0.0,0.0,0.0,0.0,0.0,0.0,0.0,0.0,0.0,0.0,0.0,0.0,0.0,0.0,0.0,0.0,0.0,0.0,0.0,0.0,0.0,0.0,0.0,-7.1783,-7.3308,-7.2668,0.0,-7.2091,0.0,0.0,0.0,0.0,0.0,0.0,0.0,0.0,0.0,0.0,0.0,0.0,0.0,0.0,0.0,0.0,0.0,0.0,0.0,0.0,0.0,0.0,0.0,0.0,0.0,0.0,0.0,0.0,0.0,0.0,0.0,0.0,0.0,0.0,0.0,0.0,0.0,0.0,0.0,0.0,0.0,0.0,0.0,0.0,0.0,0.0,0.0,0.0,0.0,0.0,0.0,0.0,0.0,0.0,0.0,0.0,0.0,0.0,0.0,0.0,0.0,0.0,0.0,0.0,0.0,0.0,0.0,0.0,0.0,0.0,0.0,0.0,0.0,0.0,0.0,0.0,0.0,0.0,0.0,0.0,0.0,0.0,0.0,0.0,0.0,0.0,0.0,0.0,0.0,0.0,0.0,0.0,0.0,0.0,0.0,0.0,0.0,0.0,0.0,0.0,0.0,0.0,0.0,0.0,0.0,0.0,0.0,0.0,0.0,0.0,-7.1783,-7.1975,-7.1129,-7.0937,0.0,0.0,0.0,0.0,0.0,0.0,0.0,0.0,0.0,0.0,0.0,0.0,0.0,0.0,0.0,0.0,0.0,0.0,0.0,0.0,0.0,0.0,0.0,0.0,0.0,0.0,0.0,0.0,0.0,0.0,0.0,0.0,0.0,0.0,0.0,0.0,0.0,0.0,0.0,0.0,0.0,0.0,0.0,0.0,0.0,0.0,0.0,0.0,0.0,0.0,0.0,0.0,0.0,0.0,0.0,0.0,0.0,0.0,0.0,0.0,0.0,0.0,0.0,0.0,0.0,0.0,0.0,0.0,0.0,0.0,0.0,0.0,0.0,0.0,0.0,0.0,0.0,0.0,0.0,0.0,0.0,0.0,0.0,0.0,0.0,0.0,0.0,0.0,0.0,0.0,0.0,0.0,0.0,0.0,0.0,0.0,0.0,0.0,0.0,0.0,0.0,0.0,0.0,0.0,0.0,0.0,0.0,0.0,0.0,0.0,-7.1437,-7.1321,-7.0898,-7.0321,-7.0206,-7.0552,0.0,0.0,0.0,0.0,0.0,0.0,0.0,0.0,0.0,0.0,0.0,0.0,0.0,0.0,0.0,0.0,0.0,0.0,0.0,0.0,0.0,0.0,0.0,0.0,0.0,0.0,0.0,0.0,0.0,0.0,0.0,0.0,0.0,0.0,0.0,0.0,0.0,0.0,0.0,0.0,0.0,0.0,0.0,0.0,0.0,0.0,0.0,0.0,0.0,0.0,0.0,0.0,0.0,0.0,0.0,0.0,0.0,0.0,0.0,0.0,0.0,0.0,0.0,0.0,0.0,0.0,0.0,0.0,0.0,0.0,0.0,0.0,0.0,0.0,0.0,0.0,0.0,0.0,0.0,0.0,0.0,0.0,0.0,0.0,0.0,0.0,0.0,0.0,0.0,0.0,0.0,0.0,0.0,0.0,0.0,0.0,0.0,0.0,0.0,0.0,0.0,0.0,0.0,0.0,0.0,0.0,0.0,0.0,-7.1975,-7.0629,-7.0167,-7.086,-7.086,-7.0514,0.0,0.0,0.0,0.0,0.0,0.0,0.0,0.0,0.0,0.0,0.0,0.0,0.0,0.0,0.0,0.0,0.0,0.0,0.0,0.0,0.0,0.0,0.0,0.0,0.0,0.0,0.0,0.0,0.0,0.0,0.0,0.0,0.0,0.0,0.0,0.0,0.0,0.0,0.0,0.0,0.0,0.0,0.0,0.0,0.0,0.0,0.0,0.0,0.0,0.0,0.0,0.0,0.0,0.0,0.0,0.0,0.0,0.0,0.0,0.0,0.0,0.0,0.0,0.0,0.0,0.0,0.0,0.0,0.0,0.0,0.0,0.0,0.0,0.0,0.0,0.0,0.0,0.0,0.0,0.0,0.0,0.0,0.0,0.0,0.0,0.0,0.0,0.0,0.0,0.0,0.0,0.0,0.0,0.0,0.0,0.0,0.0,0.0,0.0,0.0,0.0,0.0,0.0,0.0,0.0,0.0,0.0,0.0,0.0,-7.0514,-6.9475,-6.9513,-7.0783,-6.9321,-6.859,0.0,0.0,0.0,0.0,0.0,0.0,0.0,0.0,0.0,0.0,0.0,0.0,0.0,0.0,0.0,0.0,0.0,0.0,0.0,0.0,0.0,0.0,0.0,0.0,0.0,0.0,0.0,0.0,0.0,0.0,0.0,0.0,0.0,0.0,0.0,0.0,0.0,0.0,0.0,0.0,0.0,0.0,0.0,0.0,0.0,0.0,0.0,0.0,0.0,0.0,0.0,0.0,0.0,0.0,0.0,0.0,0.0,0.0,0.0,0.0,0.0,0.0,0.0,0.0,0.0,0.0,0.0,0.0,0.0,0.0,0.0,0.0,0.0,0.0,0.0,0.0,0.0,0.0,0.0,0.0,0.0,0.0,0.0,0.0,0.0,0.0,0.0,0.0,0.0,0.0,0.0,0.0,0.0,0.0,0.0,0.0,0.0,0.0,0.0,0.0,0.0,0.0,0.0,0.0,0.0,0.0,0.0,0.0,0.0,-6.9667,0.0,-6.8936,-6.9975,-6.8167,-6.7244,0.0,0.0,0.0,0.0,0.0,0.0,0.0,0.0,0.0,0.0,0.0,0.0,0.0,0.0,0.0,0.0,0.0,0.0,0.0,0.0,0.0,0.0,0.0,0.0,0.0,0.0,0.0,0.0,0.0,0.0,0.0,0.0,0.0,0.0,0.0,0.0,0.0,0.0,0.0,0.0,0.0,0.0,0.0,0.0,0.0,0.0,0.0,0.0,0.0,0.0,0.0,0.0,0.0,0.0,0.0,0.0,0.0,0.0,0.0,0.0,0.0,0.0,0.0,0.0,0.0,0.0,0.0,0.0,0.0,0.0,0.0,0.0,0.0,0.0,0.0,0.0,0.0,0.0,0.0,0.0,0.0,0.0,0.0,0.0,0.0,0.0,0.0,0.0,0.0,0.0,0.0,0.0,0.0,0.0,0.0,0.0,0.0,0.0,0.0,0.0,0.0,0.0,0.0,0.0,0.0,0.0,0.0,0.0,-6.9706,-6.9667,-6.8859,-6.8513,-6.8436,-6.7628,-6.6744,0.0,0.0,0.0,0.0,0.0,0.0,0.0,0.0,0.0,0.0,0.0,0.0,0.0,0.0,0.0,0.0,0.0,0.0,0.0,0.0,0.0,0.0,0.0,0.0,0.0,0.0,0.0,0.0,0.0,0.0,0.0,0.0,0.0,0.0,0.0,0.0,0.0,0.0,0.0,0.0,0.0,0.0,0.0,0.0,0.0,0.0,0.0,0.0,0.0,0.0,0.0,0.0,0.0,0.0,0.0,0.0,0.0,0.0,0.0,0.0,0.0,0.0,0.0,0.0,0.0,0.0,0.0,0.0,0.0,0.0,0.0,0.0,0.0,0.0,0.0,0.0,0.0,0.0,0.0,0.0,0.0,0.0,0.0,0.0,0.0,0.0,0.0,0.0,0.0,0.0,0.0,0.0,0.0,0.0,0.0,0.0,0.0,0.0,0.0,0.0,0.0,0.0,0.0,0.0,0.0,0.0,0.0,0.0,0.0,-6.9706,-6.8859,-6.9244,-7.086,-6.8475,-6.7552,0.0,0.0,0.0,0.0,0.0,0.0,0.0,0.0,0.0,0.0,0.0,0.0,0.0,0.0,0.0,0.0,0.0,0.0,0.0,0.0,0.0,0.0,0.0,0.0,0.0,0.0,0.0,0.0,0.0,0.0,0.0,0.0,0.0,0.0,0.0,0.0,0.0,0.0,0.0,0.0,0.0,0.0,0.0,0.0,0.0,0.0,0.0,0.0,0.0,0.0,0.0,0.0,0.0,0.0,0.0,0.0,0.0,0.0,0.0,0.0,0.0,0.0,0.0,0.0,0.0,0.0,0.0,0.0,0.0,0.0,0.0,0.0,0.0,0.0,0.0,0.0,0.0,0.0,0.0,0.0,0.0,0.0,0.0,0.0,0.0,0.0,0.0,0.0,0.0,0.0,0.0,0.0,0.0,0.0,0.0,0.0,0.0,0.0,0.0,0.0,0.0,0.0,0.0,0.0,0.0,0.0,0.0,0.0,0.0,-7.2476,-7.0744,-7.0591,-7.2168,-6.9513,-6.8244,-6.8667,0.0,0.0,0.0,0.0,0.0,0.0,0.0,0.0,0.0,0.0,0.0,0.0,0.0,0.0,0.0,0.0,0.0,0.0,0.0,0.0,0.0,0.0,0.0,0.0,0.0,0.0,0.0,0.0,0.0,0.0,0.0,0.0,0.0,0.0,0.0,0.0,0.0,0.0,0.0,0.0,0.0,0.0,0.0,0.0,0.0,0.0,0.0,0.0,0.0,0.0,0.0,0.0,0.0,0.0,0.0,0.0,0.0,0.0,0.0,0.0,0.0,0.0,0.0,0.0,0.0,0.0,0.0,0.0,0.0,0.0,0.0,0.0,0.0,0.0,0.0,0.0,0.0,0.0,0.0,0.0,0.0,0.0,0.0,0.0,0.0,0.0,0.0,0.0,0.0,0.0,0.0,0.0,0.0,0.0,0.0,0.0,0.0,0.0,0.0,0.0,0.0,0.0,0.0,0.0,0.0,0.0,0.0,0.0,-7.7438,-7.4476,-7.2899,-7.2783,-7.0937,-6.9129,0.0,0.0,0.0,0.0,0.0,0.0,0.0,0.0,0.0,0.0,0.0,0.0,0.0,0.0,0.0,0.0,0.0,0.0,0.0,0.0,0.0,0.0,0.0,0.0,0.0,0.0,0.0,0.0,0.0,0.0,0.0,0.0,0.0,0.0,0.0,0.0,0.0,0.0,0.0,0.0,0.0,0.0,0.0,0.0,0.0,0.0,0.0,0.0,0.0,0.0,0.0,0.0,0.0,0.0,0.0,0.0,0.0,0.0,0.0,0.0,0.0,0.0,0.0,0.0,0.0,0.0,0.0,0.0,0.0,0.0,0.0,0.0,0.0,0.0,0.0,0.0,0.0,0.0,0.0,0.0,0.0,0.0,0.0,0.0,0.0,0.0,0.0,0.0,0.0,0.0,0.0,0.0,0.0,0.0,0.0,0.0,0.0,0.0,0.0,0.0,0.0,0.0,0.0,0.0,0.0,0.0,0.0,0.0,0.0,-7.9054,-8.0708,-8.0708,-7.8784,-7.4707,-7.1975,0.0,0.0,0.0,0.0,0.0,0.0,0.0,0.0,0.0,0.0,0.0,0.0,0.0,0.0,0.0,0.0,0.0,0.0,0.0,0.0,0.0,0.0,0.0,0.0,0.0,0.0,0.0,0.0,0.0,0.0,0.0,0.0,0.0,0.0,0.0,0.0,0.0,0.0,0.0,0.0,0.0,0.0,0.0,0.0,0.0,0.0,0.0,0.0,0.0,0.0,0.0,0.0,0.0,0.0,0.0,0.0,0.0,0.0,0.0,0.0,0.0,0.0,0.0,0.0,0.0,0.0,0.0,0.0,0.0,0.0,0.0,0.0,0.0,0.0,0.0,0.0,0.0,0.0,0.0,0.0,0.0,0.0,0.0,0.0,0.0,0.0,0.0,0.0,0.0,0.0,0.0,0.0,0.0,0.0,0.0,0.0,0.0,0.0,0.0,0.0,0.0,0.0,0.0,0.0,0.0,0.0,0.0,0.0,-7.8707,-8.1362,-8.5055,-8.6286,-8.4863,-8.0592,-7.6361,0.0,0.0,0.0,0.0,0.0,0.0,0.0,0.0,0.0,0.0,0.0,0.0,0.0,0.0,0.0,0.0,0.0,0.0,0.0,0.0,0.0,0.0,0.0,0.0,0.0,0.0,0.0,0.0,0.0,0.0,0.0,0.0,0.0,0.0,0.0,0.0,0.0,0.0,0.0,0.0,0.0,0.0,0.0,0.0,0.0,0.0,0.0,0.0,0.0,0.0,0.0,0.0,0.0,0.0,0.0,0.0,0.0,0.0,0.0,0.0,0.0,0.0,0.0,0.0,0.0,0.0,0.0,0.0,0.0,0.0,0.0,0.0,0.0,0.0,0.0,0.0,0.0,0.0,0.0,0.0,0.0,0.0,0.0,0.0,0.0,0.0,0.0,0.0,0.0,0.0,0.0,0.0,0.0,0.0,0.0,0.0,0.0,0.0,0.0,0.0,0.0,0.0,0.0,0.0,0.0,0.0,0.0,0.0,-8.1977,-8.3824,-8.8055,-9.0248,-9.0056,-8.6517,-8.0785,0.0,0.0,0.0,0.0,0.0,0.0,0.0,0.0,0.0,0.0,0.0,0.0,0.0,0.0,0.0,0.0,0.0,0.0,0.0,0.0,0.0,0.0,0.0,0.0,0.0,0.0,0.0,0.0,0.0,0.0,0.0,0.0,0.0,0.0,0.0,0.0,0.0,0.0,0.0,0.0,0.0,0.0,0.0,0.0,0.0,0.0,0.0,0.0,0.0,0.0,0.0,0.0,0.0,0.0,0.0,0.0,0.0,0.0,0.0,0.0,0.0,0.0,0.0,0.0,0.0,0.0,0.0,0.0,0.0,0.0,0.0,0.0,0.0,0.0,0.0,0.0,0.0,0.0,0.0,0.0,0.0,0.0,0.0,0.0,0.0,0.0,0.0,0.0,0.0,0.0,0.0,0.0,0.0,0.0,0.0,0.0,0.0,0.0,0.0,0.0,0.0,0.0,0.0,0.0,0.0,0.0,0.0,0.0,-8.2554,-8.5555,-9.0364,-9.2595,-9.1941,-8.544,-7.9823,0.0,0.0,0.0,0.0,0.0,0.0,0.0,0.0,0.0,0.0,0.0,0.0,0.0,0.0,0.0,0.0,0.0,0.0,0.0,0.0,0.0,0.0,0.0,0.0,0.0,0.0,0.0,0.0,0.0,0.0,0.0,0.0,0.0,0.0,0.0,0.0,0.0,0.0,0.0,0.0,0.0,0.0,0.0,0.0,0.0,0.0,0.0,0.0,-7.7226,0.0,0.0,0.0,0.0,0.0,0.0,0.0,0.0,0.0,0.0,0.0,0.0,0.0,0.0,0.0,0.0,0.0,0.0,0.0,0.0,0.0,0.0,0.0,0.0,0.0,0.0,0.0,0.0,0.0,0.0,0.0,0.0,0.0,0.0,0.0,0.0,0.0,0.0,0.0,0.0,0.0,0.0,0.0,0.0,0.0,0.0,0.0,0.0,0.0,0.0,0.0,0.0,0.0,0.0,0.0,0.0,0.0,0.0,0.0,-8.2708,-8.6094,-9.071,-9.2749,-9.171,-8.6055,-8.1093,0.0,0.0,0.0,0.0,0.0,0.0,0.0,0.0,0.0,0.0,0.0,0.0,0.0,0.0,0.0,0.0,0.0,0.0,0.0,0.0,0.0,0.0,0.0,0.0,0.0,0.0,0.0,0.0,0.0,0.0,0.0,0.0,0.0,0.0,0.0,0.0,0.0,0.0,0.0,0.0,0.0,0.0,0.0,0.0,0.0,0.0,0.0,0.0,0.0,0.0,0.0,0.0,0.0,0.0,0.0,0.0,0.0,0.0,0.0,0.0,0.0,0.0,0.0,0.0,0.0,0.0,0.0,0.0,0.0,0.0,0.0,0.0,0.0,0.0,0.0,0.0,0.0,0.0,0.0,0.0,0.0,0.0,0.0,0.0,0.0,0.0,0.0,0.0,0.0,0.0,0.0,0.0,0.0,0.0,0.0,0.0,0.0,0.0,0.0,0.0,0.0,0.0,0.0,0.0,0.0,0.0,0.0,-7.8177,-8.2785,-8.6286,-9.0364,-9.2095,-9.1171,-8.7363,-8.3208,-7.89,0.0,0.0,0.0,0.0,0.0,0.0,0.0,0.0,0.0,0.0,0.0,0.0,0.0,0.0,0.0,0.0,0.0,0.0,0.0,0.0,0.0,0.0,0.0,0.0,0.0,0.0,0.0,0.0,0.0,0.0,0.0,0.0,0.0,0.0,0.0,0.0,0.0,0.0,-7.3555,-7.5312,0.0,0.0,0.0,0.0,0.0,0.0,0.0,0.0,-7.7383,0.0,0.0,0.0,0.0,0.0,0.0,0.0,0.0,0.0,0.0,0.0,0.0,0.0,0.0,0.0,0.0,0.0,0.0,0.0,0.0,0.0,0.0,0.0,0.0,0.0,0.0,0.0,0.0,0.0,0.0,0.0,0.0,0.0,0.0,0.0,0.0,0.0,0.0,0.0,0.0,0.0,0.0,0.0,0.0,0.0,0.0,0.0,0.0,0.0,0.0,0.0,0.0,0.0,0.0,0.0,0.0,-7.3679,-7.8567,-8.3093,-8.7132,-9.0671,-9.2056,-9.1171,-8.8479,-8.467,-7.9785,0.0,0.0,0.0,0.0,0.0,0.0,0.0,0.0,0.0,0.0,0.0,0.0,0.0,0.0,0.0,0.0,0.0,0.0,0.0,0.0,0.0,0.0,0.0,0.0,0.0,0.0,0.0,0.0,0.0,0.0,0.0,0.0,0.0,0.0,0.0,0.0,0.0,0.0,0.0,-7.7578,-7.8867,0.0,0.0,0.0,0.0,0.0,0.0,0.0,0.0,-7.8555,0.0,0.0,0.0,0.0,0.0,0.0,0.0,0.0,0.0,0.0,0.0,0.0,0.0,0.0,0.0,0.0,0.0,0.0,0.0,0.0,0.0,0.0,0.0,0.0,0.0,0.0,0.0,0.0,0.0,0.0,0.0,0.0,0.0,0.0,0.0,0.0,0.0,0.0,0.0,0.0,0.0,0.0,0.0,0.0,0.0,0.0,0.0,0.0,0.0,0.0,0.0,0.0,0.0,0.0,0.0,-7.4537,-7.855,-8.2465,-8.6182,-8.9066,-8.9902,-8.8594,-8.6517,-8.3439,0.0,0.0,0.0,0.0,0.0,0.0,0.0,0.0,0.0,0.0,0.0,0.0,0.0,0.0,0.0,0.0,0.0,0.0,0.0,0.0,0.0,0.0,0.0,0.0,0.0,0.0,0.0,0.0,0.0,0.0,0.0,0.0,0.0,0.0,0.0,0.0,0.0,0.0,0.0,0.0,-7.9453,-8.0742,-7.9922,0.0,0.0,0.0,0.0,0.0,0.0,-7.8828,-7.9258,0.0,0.0,0.0,0.0,0.0,0.0,0.0,0.0,0.0,0.0,0.0,0.0,0.0,0.0,0.0,0.0,0.0,0.0,0.0,0.0,0.0,0.0,0.0,0.0,0.0,0.0,0.0,0.0,0.0,0.0,0.0,0.0,0.0,0.0,0.0,0.0,0.0,0.0,0.0,0.0,0.0,0.0,0.0,0.0,0.0,0.0,0.0,0.0,0.0,0.0,0.0,0.0,0.0,0.0,0.0,-7.4826,-7.8348,-8.1652,-8.4786,-8.7036,-8.744,-8.5901,-8.4209,-8.1823,0.0,0.0,0.0,0.0,0.0,0.0,0.0,0.0,0.0,0.0,0.0,0.0,0.0,0.0,0.0,0.0,0.0,0.0,0.0,0.0,0.0,0.0,0.0,0.0,0.0,0.0,0.0,0.0,0.0,0.0,0.0,0.0,0.0,0.0,0.0,0.0,0.0,0.0,0.0,0.0,0.0,-8.2383,-8.1172,-8.1758,0.0,0.0,0.0,0.0,-7.8789,-8.0429,0.0,0.0,0.0,0.0,0.0,0.0,0.0,0.0,0.0,0.0,0.0,0.0,0.0,0.0,0.0,0.0,0.0,0.0,0.0,0.0,0.0,0.0,0.0,0.0,0.0,0.0,0.0,0.0,0.0,0.0,0.0,0.0,0.0,0.0,0.0,0.0,0.0,0.0,0.0,0.0,0.0,0.0,0.0,0.0,0.0,0.0,0.0,0.0,0.0,0.0,0.0,0.0,0.0,0.0,0.0,0.0,-7.4149,-7.7895,-8.1145,-8.372,-8.5483,-8.594,-8.5055,-8.3362,-8.1208,0.0,0.0,0.0,0.0,0.0,0.0,0.0,0.0,0.0,0.0,0.0,0.0,0.0,0.0,0.0,0.0,0.0,0.0,0.0,0.0,0.0,0.0,0.0,0.0,0.0,0.0,0.0,0.0,0.0,0.0,0.0,0.0,0.0,0.0,0.0,0.0,0.0,0.0,0.0,0.0,0.0,-8.3711,-8.1328,-8.1758,-8.1406,0.0,0.0,-8.0429,-7.9687,-8.4726,0.0,0.0,0.0,0.0,0.0,0.0,0.0,0.0,0.0,0.0,0.0,0.0,0.0,0.0,0.0,0.0,0.0,0.0,0.0,0.0,0.0,0.0,0.0,0.0,0.0,0.0,0.0,0.0,0.0,0.0,0.0,0.0,0.0,0.0,0.0,0.0,0.0,0.0,0.0,0.0,0.0,0.0,0.0,0.0,0.0,0.0,0.0,0.0,0.0,0.0,0.0,0.0,0.0,0.0,0.0,-7.2013,-7.4216,-7.7548,-8.0305,-8.2296,-8.3901,-8.4286,-8.3439,-8.2247,-8.0631,0.0,0.0,0.0,0.0,0.0,0.0,0.0,0.0,0.0,0.0,0.0,0.0,0.0,0.0,0.0,0.0,0.0,0.0,0.0,0.0,0.0,0.0,0.0,0.0,0.0,0.0,0.0,0.0,0.0,0.0,0.0,0.0,0.0,0.0,0.0,0.0,0.0,0.0,0.0,0.0,0.0,0.0,-8.2304,-8.414,0.0,0.0,0.0,-8.3984,-8.4101,0.0,0.0,0.0,0.0,0.0,0.0,0.0,0.0,0.0,0.0,0.0,0.0,0.0,0.0,0.0,0.0,0.0,0.0,0.0,0.0,0.0,0.0,0.0,0.0,0.0,0.0,0.0,0.0,0.0,0.0,0.0,0.0,0.0,0.0,0.0,0.0,0.0,0.0,0.0,0.0,0.0,0.0,0.0,0.0,0.0,0.0,0.0,0.0,0.0,0.0,0.0,0.0,0.0,0.0,0.0,0.0,0.0,-7.4506,-7.7207,-7.94,-8.1021,-8.2301,-8.267,-8.2016,-8.1208,0.0,0.0,0.0,0.0,0.0,0.0,0.0,0.0,0.0,0.0,0.0,0.0,0.0,0.0,0.0,0.0,0.0,0.0,0.0,0.0,0.0,0.0,0.0,0.0,0.0,0.0,0.0,-7.0547,0.0,0.0,0.0,0.0,0.0,0.0,0.0,0.0,0.0,0.0,0.0,0.0,0.0,0.0,-8.789,-8.3828,-8.6367,-8.7773,0.0,0.0,-8.6992,-8.7422,-8.8945,-8.902,0.0,0.0,0.0,0.0,0.0,0.0,0.0,0.0,0.0,0.0,0.0,0.0,0.0,0.0,0.0,0.0,0.0,0.0,0.0,0.0,0.0,0.0,0.0,0.0,0.0,0.0,0.0,0.0,0.0,0.0,0.0,0.0,0.0,0.0,0.0,0.0,0.0,0.0,0.0,0.0,0.0,0.0,0.0,0.0,0.0,0.0,0.0,0.0,0.0,0.0,0.0,0.0,0.0,0.0,-7.3343,-7.5037,-7.6864,-7.858,-8.0144,-8.0903,-8.1246,-8.117,-8.0362,-7.9862,0.0,0.0,0.0,0.0,0.0,0.0,0.0,0.0,0.0,0.0,0.0,0.0,0.0,0.0,0.0,0.0,0.0,0.0,0.0,0.0,0.0,0.0,0.0,0.0,0.0,0.0,0.0,0.0,0.0,0.0,0.0,0.0,0.0,0.0,0.0,0.0,0.0,0.0,0.0,0.0,0.0,-8.7265,-8.6094,-8.7539,-8.8633,0.0,-8.8476,-8.8281,-8.7617,-9.2851,-9.4215,-8.6034,0.0,0.0,0.0,0.0,0.0,0.0,0.0,0.0,0.0,0.0,0.0,0.0,0.0,0.0,0.0,0.0,0.0,0.0,0.0,0.0,0.0,0.0,0.0,0.0,0.0,0.0,0.0,0.0,0.0,0.0,0.0,0.0,0.0,0.0,0.0,0.0,0.0,0.0,0.0,0.0,0.0,0.0,0.0,0.0,0.0,0.0,0.0,0.0,0.0,0.0,0.0,0.0,0.0,-7.3896,-7.591,-7.7952,-7.9544,-8.0656,-8.0975,-8.1093,-8.1093,-8.0785,-8.0362,0.0,0.0,0.0,0.0,0.0,0.0,0.0,0.0,0.0,0.0,0.0,0.0,0.0,0.0,0.0,0.0,0.0,0.0,0.0,0.0,0.0,0.0,0.0,0.0,0.0,0.0,0.0,0.0,-7.4297,-7.4219,-7.457,0.0,0.0,0.0,0.0,0.0,0.0,0.0,0.0,0.0,0.0,-8.8945,-8.6562,-8.8984,0.0,0.0,-9.0742,-9.1015,-9.0703,-9.1953,-9.1403,-8.6854,-8.5395,0.0,0.0,0.0,0.0,0.0,0.0,0.0,0.0,0.0,0.0,0.0,0.0,0.0,0.0,0.0,0.0,0.0,0.0,0.0,0.0,0.0,0.0,0.0,0.0,0.0,0.0,0.0,0.0,0.0,0.0,0.0,0.0,0.0,0.0,0.0,0.0,0.0,0.0,0.0,0.0,0.0,0.0,0.0,0.0,0.0,0.0,0.0,0.0,0.0,0.0,0.0,0.0,-7.4093,-7.6122,-7.8394,-7.9939,-8.0783,-8.0991,-8.1093,-8.1093,-8.1093,-8.0823,0.0,0.0,0.0,0.0,0.0,0.0,0.0,0.0,0.0,0.0,0.0,0.0,0.0,0.0,0.0,0.0,0.0,0.0,0.0,0.0,0.0,0.0,0.0,0.0,0.0,0.0,0.0,0.0,-7.539,-7.539,-7.539,0.0,0.0,0.0,0.0,0.0,0.0,0.0,0.0,0.0,0.0,-8.9179,-8.6601,-8.9648,-9.1992,-9.1406,-9.1367,-9.1523,-9.1797,-9.0586,-8.8904,-8.6767,0.0,0.0,0.0,0.0,0.0,0.0,0.0,0.0,0.0,0.0,0.0,0.0,0.0,0.0,0.0,0.0,0.0,0.0,0.0,0.0,0.0,0.0,0.0,0.0,0.0,0.0,0.0,0.0,0.0,0.0,-7.1468,0.0,0.0,0.0,0.0,0.0,0.0,0.0,0.0,0.0,0.0,0.0,0.0,0.0,0.0,0.0,0.0,0.0,0.0,0.0,0.0,0.0,0.0,-7.39,-7.5523,-7.7854,-7.9343,-8.0125,-8.075,-8.1093,-8.1093,-8.1093,-8.1093,-8.1054,0.0,0.0,0.0,0.0,0.0,0.0,0.0,0.0,0.0,0.0,0.0,0.0,0.0,0.0,0.0,0.0,0.0,0.0,0.0,0.0,0.0,0.0,0.0,0.0,0.0,0.0,-7.6953,-7.7148,-7.7109,0.0,0.0,0.0,0.0,0.0,0.0,0.0,0.0,0.0,0.0,-8.4804,-8.7265,-8.6367,-8.914,-9.125,-9.1289,-8.9883,-8.9101,-8.9922,-8.9258,-8.7851,0.0,0.0,0.0,0.0,0.0,0.0,0.0,0.0,0.0,0.0,0.0,0.0,0.0,0.0,0.0,0.0,0.0,0.0,0.0,0.0,0.0,0.0,0.0,0.0,0.0,0.0,0.0,-7.2386,-7.2863,0.0,0.0,0.0,0.0,0.0,0.0,0.0,0.0,0.0,0.0,0.0,-7.6466,-7.6503,0.0,0.0,0.0,0.0,0.0,0.0,0.0,0.0,0.0,0.0,0.0,0.0,-7.56,-7.7464,-7.896,-8.0028,-8.075,-8.0975,-8.1093,-8.1093,-8.1093,-8.1093,-8.1093,0.0,0.0,0.0,0.0,0.0,0.0,0.0,0.0,0.0,0.0,0.0,0.0,0.0,0.0,0.0,0.0,0.0,0.0,0.0,0.0,0.0,0.0,0.0,0.0,0.0,-7.8008,0.0,0.0,0.0,0.0,0.0,0.0,0.0,0.0,0.0,0.0,0.0,-8.0664,-8.0976,-8.4258,-8.6523,-8.625,-8.8125,-8.9765,0.0,0.0,0.0,0.0,0.0,0.0,0.0,0.0,0.0,0.0,0.0,0.0,0.0,0.0,-8.04,-7.9515,-7.8669,-7.7938,-7.74,0.0,0.0,0.0,0.0,0.0,0.0,0.0,0.0,0.0,0.0,0.0,0.0,0.0,0.0,-7.3634,0.0,-7.356,0.0,0.0,0.0,0.0,0.0,0.0,0.0,0.0,-7.613,-7.6533,-7.7273,-7.731,-7.731,0.0,-7.679,-7.6276,0.0,0.0,0.0,0.0,0.0,0.0,0.0,0.0,-7.6303,-7.7903,-7.9583,-8.0681,-8.1077,-8.1093,-8.1093,-8.1093,-8.1093,-8.1093,-8.1093,-8.0554,-8.0246,0.0,0.0,0.0,0.0,0.0,0.0,0.0,0.0,0.0,0.0,0.0,0.0,0.0,0.0,0.0,0.0,0.0,0.0,0.0,0.0,0.0,0.0,0.0,-7.9492,0.0,0.0,0.0,0.0,0.0,0.0,0.0,0.0,0.0,-8.0234,-8.0937,-8.1562,-8.1875,-8.414,-8.5625,-8.5351,0.0,0.0,0.0,0.0,0.0,0.0,0.0,-8.5937,-8.5078,-8.4717,-8.4422,-8.4143,-8.427,-8.4286,-8.3747,0.0,0.0,-8.0169,-7.9092,-7.8323,-7.7823,-7.8361,-7.8861,-7.8669,-7.9708,-8.0592,0.0,0.0,0.0,0.0,0.0,0.0,0.0,0.0,-7.4258,-7.4918,0.0,-7.4882,0.0,0.0,0.0,0.0,0.0,-7.4992,0.0,0.0,-7.6166,-7.657,-7.7273,-7.731,-7.731,-7.731,-7.7273,-7.7273,-7.7163,-7.5732,0.0,0.0,0.0,0.0,0.0,0.0,-7.6101,-7.7019,-7.966,-8.1077,-8.1093,-8.1093,-8.1093,-8.1093,-8.1093,-8.1093,-8.1093,-8.1093,-8.1093,-8.1093,-8.1054,0.0,0.0,0.0,0.0,0.0,0.0,0.0,0.0,0.0,0.0,0.0,0.0,0.0,0.0,0.0,0.0,0.0,0.0,0.0,0.0,-7.9765,0.0,0.0,0.0,0.0,0.0,0.0,0.0,0.0,0.0,0.0,-8.1054,-8.1758,-8.2617,-8.3398,0.0,0.0,0.0,0.0,-8.832,-8.7695,-8.8906,-8.9922,-8.9922,-8.9219,-8.8359,-8.7578,0.0,0.0,-8.6238,-8.617,-8.617,-8.617,-8.6055,-8.4863,-8.09,-7.9592,-7.89,-7.8861,-7.9592,-8.0246,-8.1054,-8.19,-8.2708,-7.3046,0.0,0.0,0.0,0.0,-7.356,-7.4221,-7.4294,-7.5322,-7.5763,-7.5726,-7.5139,0.0,0.0,0.0,0.0,0.0,0.0,-7.6723,-7.6943,-7.6943,-7.7053,-7.731,-7.731,-7.731,-7.731,-7.731,-7.731,-7.7273,-7.6833,-7.6063,-7.5095,0.0,0.0,0.0,0.0,-7.8275,-7.8947,-7.9889,-8.0626,-8.1093,-8.1093,-8.1093,-8.1093,-8.1093,-8.1093,-8.1093,-8.1093,-8.1093,-8.1093,-8.1093,0.0,0.0,0.0,0.0,0.0,0.0,0.0,0.0,0.0,0.0,0.0,0.0,0.0,0.0,0.0,0.0,0.0,0.0,0.0,-8.1484,-8.1562,-8.1289,0.0,0.0,0.0,0.0,0.0,0.0,0.0,0.0,0.0,-8.1953,-8.2148,-8.2383,0.0,0.0,-8.3398,-8.4414,-8.539,-8.6562,-8.8125,-8.875,0.0,-8.9062,-8.8867,-8.8437,-8.7617,-8.7628,-8.7777,-8.7934,-8.7979,-8.794,-8.794,-8.744,-8.6594,-8.5517,-8.4055,-8.3131,-8.3093,-8.3285,-8.3516,-8.3785,-8.4439,-8.5093,-7.4771,-7.2753,-7.3266,-7.345,-7.356,-7.4845,-7.5395,-7.5432,-7.624,-7.657,-7.657,-7.6056,-7.5873,-7.5842,-7.5873,0.0,0.0,0.0,-7.731,-7.731,-7.731,-7.731,-7.731,-7.731,-7.731,-7.731,-7.731,-7.731,-7.731,-7.731,-7.7199,-7.6971,0.0,0.0,-7.6399,-7.782,-7.8828,-7.9433,-8.0131,-8.0677,-8.1077,-8.1093,-8.1093,-8.1093,-8.1093,-8.1093,-8.1093,-8.1093,-8.1093,-8.1093,-8.1093,-8.1093,0.0,0.0,0.0,0.0,0.0,0.0,0.0,0.0,0.0,0.0,0.0,-8.0617,-8.0162,0.0,0.0,0.0,-8.1211,-8.1719,-8.2265,-8.2304,0.0,0.0,0.0,0.0,0.0,0.0,0.0,-8.2265,-8.2304,-8.2304,-8.2304,-8.2617,-8.2812,-8.2812,-8.2812,-8.3437,-8.5156,0.0,-8.6836,-8.9375,-9.0039,-9.0351,-9.0703,-9.0742,-9.0429,-8.9519,-8.9471,-8.9605,-8.976,-8.9767,-8.9671,-8.9633,-8.9248,-8.8902,-8.8902,-8.8055,-8.6901,-8.567,-8.567,-8.6094,-8.6709,-8.7555,-8.8209,-7.5909,-7.5102,-7.5102,-7.4999,-7.4992,-7.5763,-7.6093,-7.6166,-7.6974,-7.731,-7.731,-7.731,-7.731,-7.7273,-7.731,0.0,-7.731,-7.731,-7.731,-7.731,-7.731,-7.731,-7.731,-7.731,-7.731,-7.731,-7.731,-7.731,-7.7304,-7.7365,-7.768,-7.8245,-7.6992,-7.6309,-7.6317,-7.7612,-7.8504,-7.9075,-8.04,-8.1093,-8.1093,-8.1093,-8.1093,-8.1093,-8.1093,-8.1093,-8.1093,-8.1093,-8.1093,-8.1093,-8.1093,-8.1093,-8.1093,0.0,0.0,0.0,0.0,0.0,0.0,0.0,0.0,0.0,0.0,0.0,0.0,0.0,0.0,-8.2304,-8.2304,0.0,-8.2304,-8.2304,0.0,0.0,0.0,-8.2304,-8.2304,-8.2304,-8.2304,-8.2304,0.0,0.0,-8.2304,-8.3008,-8.3476,-8.3476,-8.3633,-8.4336,-8.6094,-8.6953,-8.8398,-9.0703,-9.1875,-9.2695,-9.289,-9.3047,-9.2617,-9.1542,-9.1795,-9.1402,-9.1151,-9.0996,-9.1,-9.0834,-9.0993,-9.0898,-9.0941,-9.071,-9.0133,-8.7017,-8.7171,-8.8209,-8.9517,-9.0402,-9.1056,-7.8075,-7.6723,-7.6723,-7.5989,-7.4992,-7.5763,-7.613,-7.6166,-7.6974,-7.731,-7.731,-7.731,-7.731,-7.731,-7.731,-7.731,-7.731,-7.731,-7.731,-7.731,-7.731,-7.731,-7.731,-7.731,-7.731,-7.731,-7.731,-7.731,-7.7304,-7.7826,-7.8118,-7.8309,-7.8415,-7.8667,-7.9094,-7.9933,-8.0426,-8.0564,-8.093,-8.1093,-8.1093,-8.1093,-8.1093,-8.1093,-8.1093,-8.1093,-8.1093,-8.1093,-8.1093,-8.1093,-8.1093,-8.1093,-8.1093,-8.1093,0.0,0.0,0.0,0.0,0.0,0.0,0.0,0.0,0.0,-8.1873,-8.1909,0.0,-8.2263,0.0,-8.2304,-8.2304,-8.2304,-8.2304,0.0,0.0,-8.2304,-8.2304,-8.2304,-8.2304,-8.2304,-8.2304,-8.2304,-8.2304,-8.2304,-8.2461,-8.2617,-8.2656,-8.3789,-8.5195,-8.6914,-8.7344,-8.8164,-8.9922,-9.0976,-9.1445,-9.1015,-9.0937,-9.0581,-8.9501,-8.9804,-9.0119,-8.9867,-8.9779,-8.9698,-8.9551,-8.9522,-8.9484,-8.9354,-8.9748,-8.994,-8.9248,-8.971,-9.0402,-9.0825,-9.1056,-9.1287,-7.8516,-7.731,-7.731,-7.676,-7.6019,-7.646,-7.6644,-7.668,-7.7121,-7.731,-7.731,-7.731,-7.731,-7.731,-7.731,-7.731,-7.731,-7.731,-7.731,-7.731,-7.731,-7.731,-7.731,-7.731,-7.731,-7.731,-7.731,-7.731,-7.7335,-7.7988,-7.8432,-7.8704,-7.9313,-7.9908,-8.0517,-8.0626,-8.0822,-8.1093,-8.1093,-8.1093,-8.1093,-8.1093,-8.1093,-8.1093,-8.1093,-8.1093,-8.1093,-8.1093,-8.1093,-8.1093,-8.0708,-8.0708,-8.1054,-8.0746,-8.0708,0.0,0.0,0.0,0.0,0.0,0.0,0.0,0.0,0.0,0.0,0.0,-8.2304,-8.2304,-8.2304,-8.2304,-8.2304,-8.2304,-8.2304,-8.2304,-8.2304,-8.2304,-8.2304,-8.2304,-8.2304,-8.2304,-8.2304,-8.2304,-8.2304,-8.2656,-8.289,-8.289,-8.4062,-8.5234,-8.6133,-8.664,-8.7383,-8.8672,-8.9297,-8.9453,-8.8945,-8.8867,-8.8709,-8.8182,-8.8302,-8.8477,-8.8352,-8.8258,-8.8147,-8.8046,-8.7909,-8.7952,-8.8204,-8.848,-8.8863,-8.9325,-8.9748,-9.0479,-9.1556,-9.1787,-9.1787,-7.7982,-7.731,-7.731,-7.731,-7.731,-7.731,-7.731,-7.731,-7.731,-7.731,-7.731,-7.731,-7.731,-7.731,-7.731,-7.731,-7.731,-7.731,-7.731,-7.731,-7.731,-7.731,-7.731,-7.731,-7.731,-7.731,-7.731,-7.731,-7.7304,-7.8035,-7.8678,-7.9221,-7.9888,-8.0517,-8.1061,-8.0517,-8.0499,-8.1077,-8.1093,-8.1093,-8.1093,-8.1093,-8.1093,-8.1093,-8.1093,-8.1093,-8.1093,-8.1093,-8.1093,-8.1054,-8.0362,-8.0323,-8.1054,-8.0362,-8.0323,0.0,-8.1298,0.0,0.0,0.0,0.0,0.0,0.0,0.0,0.0,-8.2218,-8.2304,-8.2304,-8.2304,-8.2304,-8.2304,-8.2304,-8.2304,-8.2304,-8.2304,-8.2304,-8.2304,-8.2304,-8.2304,-8.2304,-8.2304,-8.2304,-8.2344,-8.2969,-8.3398,-8.3359,-8.3906,-8.4414,-8.4648,-8.539,-8.6328,-8.707,-8.7148,-8.7187,-8.6992,-8.707,-8.7109,-8.6992,-8.6895,-8.6808,-8.6847,-8.6674,-8.6553,-8.6505,-8.6291,-8.6362,-8.7126,-8.7093,-8.7341,-8.794,-8.8209,-8.9094,-9.1095,-9.171,-9.2018,-7.7291,-7.731,-7.731,-7.731,-7.731,-7.731,-7.731,-7.731,-7.731,-7.731,-7.731,-7.731,-7.731,-7.731,-7.731,-7.731,-7.731,-7.731,-7.731,-7.731,-7.731,-7.731,-7.731,-7.731,-7.731,-7.731,-7.731,-7.731,-7.7304,-7.8473,-7.9081,-7.9221,-8.0333,-8.0975,-8.1077,0.0,0.0,0.0,-8.1093,-8.1093,-8.1093,-8.1093,-8.1093,-8.1093,-8.1093,0.0,-8.1093,-8.1093,-8.1093,-8.1093,-8.0939,0.0,0.0,0.0,0.0,0.0,0.0,0.0,0.0,0.0,0.0,0.0,-8.2042,-8.2062,-8.2221,-8.2265,-8.2304,-8.2304,-8.2304,-8.2304,-8.2304,-8.2304,-8.2304,-8.2304,-8.2304,-8.2304,-8.2304,-8.2304,-8.2304,-8.2304,-8.2304,-8.2304,-8.2344,-8.2461,-8.2539,-8.2617,-8.2695,-8.2773,-8.2851,-8.414,-8.5156,-8.539,-8.539,-8.5117,-8.4453,-8.4961,-8.5156,-8.4609,-8.4921,-8.5273,-8.5312,-8.5273,-8.5195,-8.5053,-8.4784,-8.4602,-8.4696,-8.501,-8.544,-8.5593,-8.617,-8.7171,-8.9017,-8.9402,-8.9402,-7.7623,0.0,-7.731,-7.731,0.0,-7.731,-7.731,-7.731,-7.731,-7.731,-7.731,-7.731,-7.731,-7.731,-7.731,-7.731,-7.731,-7.731,-7.731,-7.731,-7.731,-7.731,-7.731,-7.731,-7.731,-7.731,-7.731,-7.7487,-7.7817,-7.8754,-7.9358,-7.9642,-8.0608,-8.1093,-8.1093,-8.1093,-8.1093,-8.1093,-8.1093,-8.1093,-8.1093,-8.1093,-8.1093,-8.1093,-8.1093,0.0,0.0,0.0,0.0,0.0,0.0,0.0,0.0,0.0,0.0,-8.1054,-8.121,-8.1272,-8.1395,-8.1512,-8.1615,-8.1844,-8.1919,-8.2107,-8.2304,-8.2304,-8.2304,-8.2304,-8.2304,-8.2304,-8.2304,-8.2304,-8.2304,-8.2304,-8.2304,-8.2304,-8.2304,-8.2304,-8.2304,-8.2304,-8.2304,-8.2304,-8.2304,-8.2304,-8.2304,-8.2304,-8.2304,-8.2304,-8.2344,-8.3008,-8.3594,-8.3633,-8.3633,-8.3476,-8.3086,-8.3242,-8.3515,-8.3125,-8.332,-8.3554,-8.3594,-8.3594,-8.3592,-8.3454,-8.3181,-8.3032,-8.3397,-8.3566,-8.3747,-8.417,-8.4593,-8.5093,-8.6094,-8.6824,-8.7401,-7.7772,-7.731,-7.731,-7.731,-7.731,-7.731,-7.731,-7.731,0.0,0.0,0.0,-7.731,-7.731,-7.731,-7.731,-7.731,-7.731,-7.731,-7.731,-7.731,-7.731,-7.731,-7.731,-7.731,-7.731,-7.7304,-7.7389,-7.7768,-7.8336,-7.901,-7.96,-8.0125,-8.0767,-8.1093,-8.1093,-8.1093,-8.1093,-8.1093,-8.1093,-8.1093,-8.1093,-8.1093,-8.1093,-8.1093,-8.1093,-8.1093,-8.1093,-8.1093,-8.1093,-8.1093,-8.04,-8.0362,-8.1016,-8.04,-8.0362,-8.1016,-8.1093,-8.1167,-8.1336,-8.1361,-8.1425,-8.1653,-8.1844,-8.2053,-8.2304,-8.2304,-8.2304,-8.2304,-8.2304,-8.2304,-8.2304,-8.2304,-8.2304,-8.2304,-8.2304,-8.2304,-8.2304,-8.2304,-8.2304,-8.2304,-8.2304,-8.2304,-8.2304,-8.2304,-8.2304,-8.2304,-8.2304,-8.2304,-8.2304,-8.2383,-8.2461,-8.2461,-8.2539,-8.2383,-8.2344,-8.2383,-8.2304,-8.2383,-8.2383,-8.2304,-8.2304,-8.2304,-8.2304,-8.2461,-8.1953,-8.2068,-8.2573,-8.2431,-8.2355,-8.3016,-8.3131,-8.317,-8.3285,-8.4209,-8.5209,-7.6639,-7.731,-7.731,-7.731,-7.731,-7.731,-7.731,-7.731,-7.731,-7.731,-7.731,-7.731,-7.731,-7.731,-7.731,-7.731,-7.731,-7.731,-7.731,0.0,-7.731,-7.731,-7.731,-7.731,-7.731,-7.7335,-7.7875,-7.82,-7.8405,-7.9425,-8.0046,-8.0182,-8.0767,-8.1093,-8.1093,-8.1093,-8.1093,-8.1093,-8.1093,-8.1093,-8.1093,-8.1093,-8.1093,-8.1093,-8.1093,-8.1093,-8.1093,-8.1093,-8.1093,-8.1093,-8.0977,-8.0977,-8.1093,-8.0977,-8.0977,-8.1093,-8.1093,-8.1124,-8.1131,-8.1146,-8.1228,-8.1414,-8.1606,-8.1894,-8.2265,-8.2304,-8.2304,-8.2304,-8.2304,-8.2304,-8.2304,-8.2304,-8.2304,-8.2304,-8.2304,-8.2304,-8.2304,-8.2304,-8.2304,-8.2304,-8.2304,-8.2304,-8.2304,-8.2304,-8.2304,-8.2304,-8.2304,-8.2304,-8.2304,-8.2304,-8.2304,-8.2304,-8.2304,-8.2304,-8.2304,-8.2304,-8.2304,-8.2304,-8.2304,-8.2304,-8.2304,-8.2304,-8.2304,-8.2304,-8.1992,-8.1796,-8.1867,-8.1565,-8.1338,-8.1477,-8.1477,-8.1516,-8.1554,-8.1862,-8.2362,-7.6856,-7.7273,-7.731,-7.731,-7.731,-7.731,-7.731,-7.731,-7.731,-7.731,-7.731,-7.731,-7.731,-7.731,-7.731,-7.731,-7.731,-7.731,-7.731,-7.731,-7.731,-7.731,-7.731,-7.731,-7.7517,-7.7817,-7.8146,-7.8628,-7.9267,-7.9847,-8.0296,-8.0626,-8.0959,-8.1093,-8.1093,-8.1093,-8.1093,-8.1093,-8.1093,-8.1093,-8.1093,-8.1093,-8.1093,-8.1093,-8.1093,-8.1093,-8.1093,-8.1093,-8.1093,-8.1093,-8.1093,-8.1093,-8.1093,-8.1093,-8.1093,-8.1093,-8.1093,-8.1093,-8.1093,-8.1093,-8.1196,-8.1383,-8.1591,-8.1837,-8.2118,-8.2125,-8.2175,-8.2304,-8.2304,-8.2304,-8.2304,-8.2304,-8.2304,-8.2304,-8.2304,-8.2304,-8.2304,-8.2304,-8.2304,-8.2304,-8.2304,-8.2304,-8.2304,-8.2304,-8.2304,-8.2304,-8.2304,-8.2304,-8.2304,-8.2304,-8.2304,-8.2304,-8.2304,-8.2304,-8.2304,-8.2304,-8.2304,-8.2304,-8.2304,-8.2304,-8.2304,-8.2304,-8.2304,-8.2265,-8.1941,-8.1523,-8.1135,-8.0674,-8.0275,-7.9785,-8.0131,-8.0323,-8.04,-8.04,-8.0862,-7.731,-7.731,-7.731,-7.731,-7.731,-7.731,-7.731,-7.731,-7.731,-7.731,-7.731,-7.731,-7.731,-7.731,-7.731,-7.731,-7.731,-7.731,-7.731,-7.731,-7.731,-7.731,-7.731,-7.731,-7.7651,-7.8255,-7.8432,-7.9034,-7.9989,-8.0239,-8.0591,-8.1023,-8.1093,-8.1093,-8.1093,-8.1093,-8.1093,-8.1093,-8.1093,-8.1016,-8.0823,-8.0977,-8.1016,-8.0823,-8.1016,-8.1093,-8.1093,-8.1093,-8.1093,-8.1093,-8.1093,-8.1093,-8.1093,-8.1093,-8.1093,-8.1093,-8.1093,-8.1093,-8.1093,-8.1093,-8.1196,-8.1383,-8.1534,-8.1718,-8.1971,-8.1992,-8.2068,-8.2265,-8.2304,-8.2304,-8.2304,-8.2304,-8.2304,-8.2304,-8.2304,-8.2304,-8.2304,-8.2304,-8.2304,-8.2304,-8.2304,-8.2304,-8.2304,-8.2304,-8.2304,-8.2304,-8.2304,-8.2304,-8.2304,-8.2304,-8.2304,-8.2304,-8.2304,-8.2304,-8.2304,-8.2304,-8.2304,-8.2304,-8.2304,-8.2187,-8.2109,-8.2109,-8.1992,-8.1797,-8.1512,-8.1024,-8.0295,-7.9784,-7.9336,-7.8823,-7.9169,-7.9515,-7.9515,-7.9515,-7.9823,-7.731,-7.731,-7.731,-7.731,-7.731,-7.731,-7.731,-7.731,-7.731,-7.731,-7.731,-7.731,-7.731,-7.731,-7.731,-7.731,-7.731,-7.731,-7.731,-7.731,-7.731,-7.731,-7.731,-7.731,-7.7659,-7.8336,-7.8816,-7.9425,-8.0163,-8.0716,-8.1045,-8.1093,-8.1093,-8.1093,-8.1093,-8.1093,-8.1093,-8.1093,-8.1093,-8.0708,-8.0015,-8.0669,-8.0746,-7.9939,-8.0708,-8.1093,-8.1093,-8.1093,-8.1093,-8.1093,-8.1093,-8.1093,-8.1093,-8.1093,-8.1093,-8.1093,-8.1093,-8.1093,-8.1093,-8.1093,-8.1196,-8.1371,-8.1453,-8.1618,-8.1967,-8.1992,-8.2068,-8.2265,-8.2304,-8.2304,-8.2304,-8.2304,-8.2304,-8.2304,-8.2304,-8.2304,-8.2304,-8.2304,-8.2304,-8.2304,-8.2304,-8.2304,-8.2304,-8.2304,-8.2304,-8.2304,-8.2304,-8.2304,-8.2304,-8.2304,-8.2304,-8.2304,-8.2304,-8.2304,-8.2304,-8.2304,-8.2304,-8.2304,-8.2265,-8.1953,-8.1601,-8.1679,-8.1875,-8.0664,-8.0341,-8.0192,-7.9459,-7.8905,-7.856,-7.8284,-7.84,-7.8631,-7.8631,-7.8631,-7.8977,-7.731,-7.731,-7.731,-7.731,-7.731,-7.731,-7.731,-7.731,-7.731,-7.731,-7.731,-7.731,-7.731,-7.731,-7.731,-7.731,-7.731,-7.731,-7.731,-7.731,-7.731,-7.731,-7.731,-7.731,-7.7817,-7.8779,-7.9081,-7.9723,-8.0591,-8.0975,-8.1093,-8.1093,-8.1093,-8.1093,-8.1093,-8.1093,-8.1093,-8.1093,-8.1093,-8.0669,-8.0015,-8.0669,-8.0939,-8.0669,-8.09,-8.1093,-8.1093,-8.1093,-8.1093,-8.1093,-8.1093,-8.1093,-8.1093,-8.1093,-8.1093,-8.1093,-8.1093,-8.1093,-8.1093,-8.1093,-8.1196,-8.1383,-8.1532,-8.168,-8.1976,-8.2115,-8.222,-8.2304,-8.2304,-8.2304,-8.2304,-8.2304,-8.2304,-8.2304,-8.2304,-8.2304,-8.2304,-8.2304,-8.2304,-8.2304,-8.2304,-8.2304,-8.2304,-8.2304,-8.2304,-8.2304,-8.2304,-8.2304,-8.2304,-8.2304,-8.2304,-8.2304,-8.2304,-8.2304,-8.2304,-8.2304,-8.2304,-8.2226,-8.1836,-8.1328,-8.1133,-8.0703,-8.0429,-7.9726,-7.9648,-7.9336,-7.8535,-7.76,-7.7015,-7.7092,-7.7592,-7.79,-7.84,-7.8092,-7.79,-7.731,-7.731,-7.731,-7.731,-7.731,-7.731,-7.731,-7.731,-7.731,-7.731,-7.731,-7.731,-7.731,-7.731,-7.731,-7.731,-7.731,-7.731,-7.731,-7.731,-7.731,-7.731,-7.731,-7.7304,-7.7903,-7.8816,-7.9128,-7.9847,-8.0975,-8.1093,-8.1093,-8.1093,-8.1093,-8.1093,-8.1093,-8.1093,-8.1093,-8.1093,-8.1093,-8.0785,-8.0323,-8.0785,-8.0977,-8.0785,-8.0977,-8.1093,-8.1093,-8.1093,-8.1093,-8.1093,-8.1093,-8.1093,-8.1093,-8.1093,-8.1093,-8.1093,-8.1093,-8.1093,-8.1093,-8.1093,-8.12,-8.1458,-8.1636,-8.1825,-8.2053,-8.222,-8.2304,-8.2304,-8.2304,-8.2304,-8.2304,-8.2304,-8.2304,-8.2304,-8.2304,-8.2304,-8.2304,-8.2304,-8.2304,-8.2304,-8.2304,-8.2304,-8.2304,-8.2304,-8.2304,-8.2304,-8.2304,-8.2304,-8.2304,-8.2304,-8.2304,-8.2304,-8.2304,-8.2304,-8.2304,-8.2304,-8.2304,-8.2109,-8.164,-8.0976,-8.0742,-8.0039,-7.9219,-7.8867,-7.8828,-7.8278,-7.7214,-7.6256,-7.5553,-7.5515,-7.5861,-7.6476,-7.6553,-7.6476,-7.6053,-7.731,-7.731,-7.731,-7.731,-7.731,-7.731,-7.731,-7.731,-7.731,-7.731,-7.731,-7.731,-7.731,-7.731,-7.731,-7.731,-7.731,-7.731,-7.731,-7.731,-7.731,-7.731,-7.731,-7.7304,-7.7651,-7.8432,-7.8962,-7.9885,-8.1007,-8.1093,-8.1093,-8.1093,-8.1093,-8.1093,-8.1093,-8.1093,-8.1093,-8.1093,-8.1093,-8.1054,-8.1016,-8.1054,-8.0746,-8.0169,-8.0669,-8.1093,-8.1093,-8.1093,-8.1093,-8.1093,-8.1093,-8.1093,-8.1093,-8.1093,-8.1093,-8.1093,-8.1093,-8.1093,-8.1093,-8.1093,-8.1244,-8.16,-8.1656,-8.1867,-8.2175,-8.2265,-8.2304,-8.2304,-8.2304,-8.2304,-8.2304,-8.2304,-8.2304,-8.2304,-8.2304,-8.2304,-8.2304,-8.2304,-8.2304,-8.2304,-8.2304,-8.2304,-8.2304,-8.2304,-8.2304,-8.2304,-8.2304,-8.2304,-8.2304,-8.2304,-8.2304,-8.2304,-8.2304,-8.2304,-8.2304,-8.2304,-8.2304,-8.207,-8.1484,-8.0703,-8.0156,-7.9531,-7.8672,-7.8008,-7.7773,-7.711,-7.586,-7.5012,-7.4435,-7.4207,-7.4091,-7.4361,-7.4938,-7.4091,-7.3822,-7.731,-7.731,-7.731,-7.731,-7.731,-7.731,-7.731,-7.731,-7.731,-7.731,-7.731,-7.731,-7.731,-7.731,-7.731,-7.731,-7.731,-7.731,-7.731,-7.731,-7.731,-7.731,-7.731,-7.731,-7.7651,-7.8309,-7.8914,-7.9847,-8.0975,-8.1093,-8.1093,-8.1093,-8.1093,-8.1093,-8.1093,-8.1093,-8.1093,-8.1093,-8.1093,-8.1093,-8.1093,-8.1093,-8.0939,-8.0669,-8.0939,-8.1093,-8.1093,-8.1093,-8.1093,-8.1093,-8.1093,-8.1093,-8.1093,-8.1093,-8.1093,-8.1093,-8.1093,-8.1093,-8.1093,-8.1093,-8.12,-8.148,-8.1645,-8.1786,-8.2062,-8.2226,-8.2304,-8.2304,-8.2304,-8.2304,-8.2304,-8.2304,-8.2304,-8.2304,-8.2304,-8.2304,-8.2304,-8.2304,-8.2304,-8.2304,-8.2304,-8.2304,-8.2304,-8.2304,-8.2304,-8.2304,-8.2304,-8.2304,-8.2304,-8.2304,-8.2304,-8.2304,-8.2304,-8.2304,-8.2304,-8.2304,-8.2226,-8.1836,-8.1289,-8.0429,-7.9765,-7.8672,-7.7734,-7.75,-7.7148,-7.6384,-7.5238,-7.4182,-7.3611,-7.3014,-7.286,-7.3091,-7.35,-7.3129,-7.2937,-7.731,-7.731,-7.731,-7.731,-7.731,-7.731,-7.731,-7.731,-7.731,-7.731,-7.731,-7.731,-7.731,-7.731,-7.731,-7.731,-7.731,-7.731,-7.731,-7.731,-7.731,-7.731,-7.7335,-7.751,-7.7846,-7.8379,-7.9128,-8.0066,-8.0975,-8.1093,-8.1093,-8.1093,-8.1093,-8.1093,-8.1093,-8.1093,-8.1093,-8.1093,-8.1093,-8.1093,-8.1093,-8.1093,-8.1093,-8.1093,-8.1093,-8.1093,-8.1093,-8.1093,-8.1093,-8.1093,-8.1093,-8.1093,-8.1093,-8.1093,-8.1093,-8.1093,-8.1093,-8.1093,-8.1093,-8.1093,-8.1196,-8.1383,-8.1591,-8.1767,-8.1984,-8.2175,-8.2304,-8.2304,-8.2304,-8.2304,-8.2304,-8.2304,-8.2304,-8.2304,-8.2304,-8.2304,-8.2304,-8.2304,-8.2304,-8.2304,-8.2304,-8.2304,-8.2304,-8.2304,-8.2304,-8.2304,-8.2304,-8.2304,-8.2304,-8.2304,-8.2304,-8.2304,-8.2304,-8.2304,-8.2304,-8.2304,-8.2304,-8.1992,-8.0937,-8.0078,-7.9297,-7.8047,-7.7265,-7.7031,-7.6482,-7.568,-7.4697,-7.3566,-7.2739,-7.2041,-7.1937,-7.2129,-7.2399,-7.2552,-7.2245,-7.731,-7.731,-7.731,-7.731,-7.731,-7.731,-7.731,-7.731,-7.731,-7.731,-7.731,-7.731,-7.731,-7.731,-7.731,-7.731,-7.731,-7.731,-7.731,-7.731,-7.731,-7.731,-7.7335,-7.7854,-7.82,-7.8432,-7.9551,-8.0427,-8.1077,-8.1093,-8.1093,-8.1093,-8.1093,-8.1093,-8.1093,-8.1093,-8.1093,-8.1093,-8.1093,-8.1093,-8.1093,-8.1093,-8.1093,-8.1093,-8.1093,-8.1093,-8.1093,-8.1093,-8.1093,-8.1093,-8.1093,-8.1093,-8.1093,-8.1093,-8.1093,-8.1093,-8.1093,-8.1093,-8.1093,-8.1093,-8.1196,-8.1383,-8.1591,-8.1805,-8.1984,-8.2187,-8.2304,-8.2304,-8.2304,-8.2304,-8.2304,-8.2304,-8.2304,-8.2304,-8.2304,-8.2304,-8.2304,-8.2304,-8.2304,-8.2304,-8.2304,-8.2304,-8.2304,-8.2304,-8.2304,-8.2304,-8.2304,-8.2304,-8.2304,-8.2304,-8.2304,-8.2304,-8.2304,-8.2304,-8.2304,-8.2304,-8.2304,-8.207,-8.0742,-7.9648,-7.9101,-7.8125,-7.7422,-7.707,-7.6523,-7.5651,-7.3878,-7.2778,-7.1993,-7.1398,-7.1321,-7.1245,-7.1206,-7.1321,-7.1206,-7.731,-7.731,-7.731,-7.731,-7.731,-7.731,-7.731,-7.731,-7.731,-7.731,-7.731,-7.731,-7.731,-7.731,-7.731,-7.731,-7.731,-7.731,-7.731,-7.731,-7.731,-7.731,-7.7335,-7.754,-7.809,-7.8914,-7.9744,-8.0463,-8.0975,-8.1093,-8.1093,-8.1093,-8.1093,-8.1093,-8.1093,-8.1093,-8.1093,-8.1093,-8.1093,-8.1093,-8.1093,-8.1093,-8.1093,-8.1093,-8.1093,-8.1093,-8.1093,-8.1093,-8.1093,-8.1093,-8.1093,-8.1093,-8.1093,-8.1093,-8.1093,-8.1093,-8.1093,-8.1093,-8.1093,-8.1108,-8.1196,-8.1383,-8.1591,-8.1805,-8.1984,-8.2175,-8.2304,-8.2304,-8.2304,-8.2304,-8.2304,-8.2304,-8.2304,-8.2304,-8.2304,-8.2304,-8.2304,-8.2304,-8.2304,-8.2304,-8.2304,-8.2304,-8.2304,-8.2304,-8.2304,-8.2304,-8.2304,-8.2304,-8.2304,-8.2304,-8.2304,-8.2304,-8.2304,-8.2304,-8.2304,-8.2265,-8.2226,-8.1797,-8.0625,-7.9648,-7.9062,-7.8203,-7.75,-7.6953,-7.6406,-7.528,-7.3474,-7.2302,-7.1632,-7.1091,-7.1052,-7.0744,-7.0244,-7.0167,-7.0283,-7.731,-7.731,-7.731,-7.731,-7.731,-7.731,-7.731,-7.731,-7.731,-7.731,-7.731,-7.731,-7.731,-7.731,-7.731,-7.731,-7.731,-7.731,-7.731,-7.731,-7.731,-7.731,-7.7426,-7.7846,-7.8487,-7.9469,-8.0201,-8.066,-8.1077,-8.1093,-8.1093,-8.1093,-8.1093,-8.1093,-8.1093,-8.1093,-8.1093,-8.1093,-8.1093,-8.1093,-8.1093,-8.1093,-8.1093,-8.1093,-8.1093,-8.1093,-8.1093,-8.1093,-8.1093,-8.1093,-8.1093,-8.1093,-8.1093,-8.1093,-8.1093,-8.1093,-8.1093,-8.1093,-8.1093,-8.1093,-8.1196,-8.1383,-8.1591,-8.1805,-8.1984,-8.2175,-8.2304,-8.2304,-8.2304,-8.2304,-8.2304,-8.2304,-8.2304,-8.2304,-8.2304,-8.2304,-8.2304,-8.2304,-8.2304,-8.2304,-8.2304,-8.2304,-8.2304,-8.2304,-8.2304,-8.2304,-8.2304,-8.2304,-8.2304,-8.2304,-8.2304,-8.2304,-8.2304,-8.2304,-8.2304,-8.2226,-8.2148,-8.1445,-8.0547,-7.9844,-7.9258,-7.8086,-7.7187,-7.6797,-7.6289,-7.5227,-7.3552,-7.2649,-7.1898,-7.1437,-7.0898,-7.0744,-7.0437,-6.9975,-6.9975,-7.731,-7.731,-7.731,-7.731,-7.731,-7.731,-7.731,-7.731,-7.731,-7.731,-7.731,-7.731,-7.7347,-7.7384,-7.7494,-7.753,-7.7494,-7.764,-7.7604,-7.7494,-7.7488,-7.7488,-7.7457,-7.842,-7.9267,-7.9908,-8.0643,-8.1023,-8.1093,-8.1093,-8.1093,-8.1093,-8.1093,-8.1093,-8.1093,-8.1093,-8.1093,-8.1093,-8.1093,-8.1093,-8.1093,-8.1093,-8.1093,-8.1093,-8.1093,-8.1093,-8.1093,-8.1093,-8.1093,-8.1093,-8.1093,-8.1093,-8.1093,-8.1093,-8.1093,-8.1093,-8.1093,-8.1093,-8.1093,-8.1131,-8.1242,-8.1425,-8.1615,-8.178,-8.2007,-8.2187,-8.2304,-8.2304,-8.2304,-8.2304,-8.2304,-8.2304,-8.2304,-8.2304,-8.2304,-8.2304,-8.2304,-8.2304,-8.2304,-8.2304,-8.2304,-8.2304,-8.2304,-8.2304,-8.2304,-8.2304,-8.2304,-8.2304,-8.2304,-8.2304,-8.2304,-8.2304,-8.2304,-8.2304,-8.2304,-8.2304,-8.2187,-8.1679,-8.0664,-7.9765,-7.914,-7.7969,-7.7148,-7.6711,-7.6253,-7.509,-7.3984,-7.3034,-7.2017,-7.1245,-7.0937,-7.0898,-7.0552,-6.9975,-6.9821,-7.731,-7.731,-7.731,-7.731,-7.731,-7.731,-7.731,-7.731,-7.731,-7.731,-7.731,-7.731,-7.7671,-7.8222,-7.8259,-7.8552,-7.8883,-7.9029,-7.8772,-7.8332,-7.8259,-7.7855,-7.768,-7.8565,-7.929,-7.9578,-8.0573,-8.1093,-8.1093,-8.1093,-8.1093,-8.1093,-8.1093,-8.1093,-8.1093,-8.1093,-8.1093,-8.1093,-8.1093,-8.1093,-8.1093,-8.1093,-8.1093,-8.1093,-8.1093,-8.1093,-8.1093,-8.1093,-8.1093,-8.1093,-8.1093,-8.1093,-8.1093,-8.1093,-8.1093,-8.1093,-8.1093,-8.1093,-8.11,-8.1242,-8.1418,-8.1618,-8.1805,-8.1996,-8.2179,-8.2265,-8.2304,-8.2304,-8.2304,-8.2304,-8.2304,-8.2304,-8.2304,-8.2304,-8.2304,-8.2304,-8.2304,-8.2304,-8.2304,-8.2304,-8.2304,-8.2304,-8.2304,-8.2304,-8.2304,-8.2304,-8.2304,-8.2304,-8.2304,-8.2304,-8.2304,-8.2304,-8.2304,-8.2304,-8.2304,-8.2304,-8.2187,-8.1914,-8.0859,-7.9492,-7.875,-7.7812,-7.7265,-7.6858,-7.6593,-7.5665,-7.4488,-7.342,-7.2315,-7.1206,-7.0937,-7.086,-7.0283,-6.9744,-6.9783,-7.731,-7.731,-7.7708,-7.7855,-7.7855,-7.7855,-7.7855,-7.7781,-7.742,-7.731,-7.731,-7.731,-7.7781,-7.8552,-7.8589,-7.8809,-7.925,-7.9286,-7.8809,-7.8112,-7.8002,-7.7745,-7.7695,-7.8602,-7.9198,-7.9335,-8.0481,-8.1007,-8.1093,-8.1093,-8.1093,-8.1093,-8.1093,-8.1093,-8.1093,-8.1093,-8.1093,-8.1093,-8.1093,-8.1093,-8.1093,-8.1093,-8.1093,-8.1093,-8.1093,-8.1093,-8.1093,-8.1093,-8.1093,-8.1093,-8.1093,-8.1093,-8.1093,-8.1093,-8.1093,-8.1093,-8.1093,-8.1093,-8.1131,-8.1298,-8.1501,-8.1703,-8.1883,-8.2107,-8.2265,-8.2304,-8.2304,-8.2304,-8.2304,-8.2304,-8.2304,-8.2304,-8.2304,-8.2304,-8.2304,-8.2304,-8.2304,-8.2304,-8.2304,-8.2304,-8.2304,-8.2304,-8.2304,-8.2304,-8.2304,-8.2304,-8.2304,-8.2304,-8.2304,-8.2304,-8.2304,-8.2304,-8.2304,-8.2304,-8.2304,-8.2304,-8.2187,-8.1914,-8.1054,-7.9609,-7.8476,-7.7656,-7.7305,-7.6939,-7.6744,-7.614,-7.4722,-7.3493,-7.2571,-7.1668,-7.1245,-7.0783,-7.0321,-6.9898,-6.9898,-7.7384,-7.7384,-7.8222,-7.8552,-7.8405,-7.8442,-7.8369,-7.8405,-7.7818,-7.7567,-7.7677,-7.7604,-7.8295,-7.8809,-7.914,-7.8993,-7.914,-7.9286,-7.8442,-7.7928,-7.7671,-7.7555,-7.7688,-7.8678,-7.9244,-7.9513,-8.0573,-8.0991,-8.1093,-8.1093,-8.1093,-8.1093,-8.1093,-8.1093,-8.1093,-8.1093,-8.1093,-8.1093,-8.1093,-8.1093,-8.1093,-8.1093,-8.1093,-8.1093,-8.1093,-8.1093,-8.1093,-8.1093,-8.1093,-8.1093,-8.1093,-8.1093,-8.1093,-8.1093,-8.1093,-8.1093,-8.1093,-8.1093,-8.1131,-8.1311,-8.1494,-8.1688,-8.1899,-8.2113,-8.2265,-8.2304,-8.2304,-8.2304,-8.2304,-8.2304,-8.2304,-8.2304,-8.2304,-8.2304,-8.2304,-8.2304,-8.2304,-8.2304,-8.2304,-8.2304,-8.2304,-8.2304,-8.2304,-8.2304,-8.2304,-8.2304,-8.2304,-8.2304,-8.2304,-8.2304,-8.2304,-8.2304,-8.2304,-8.2304,-8.2304,-8.2304,-8.2148,-8.1875,-8.0976,-7.9765,-7.832,-7.7578,-7.7265,-7.6987,-7.677,-7.585,-7.4342,-7.3336,-7.2636,-7.1745,-7.1014,-7.0898,-7.0783,-7.036,-7.0206,-7.7928,-7.7347,-7.8222,-7.8222,-7.764,-7.7567,-7.8002,-7.8626,-7.8405,-7.8626,-7.9103,-7.9213,-7.9653,-8.0424,-8.0388,-8.0791,-8.0975,-8.0498,-7.9727,-7.8442,-7.8332,-7.8212,-7.8276,-7.8964,-7.9463,-7.9967,-8.0698,-8.1077,-8.1093,-8.1093,-8.1093,-8.1093,-8.1093,-8.1093,-8.1093,-8.1093,-8.1093,-8.1093,-8.1093,-8.1093,-8.1093,-8.1093,-8.1093,-8.1093,-8.1093,-8.1093,-8.1093,-8.1093,-8.1093,-8.1093,-8.1093,-8.1093,-8.1093,-8.1093,-8.1093,-8.1093,-8.1093,-8.1093,-8.1137,-8.1418,-8.1623,-8.1695,-8.1996,-8.2265,-8.2304,-8.2304,-8.2304,-8.2304,-8.2304,-8.2304,-8.2304,-8.2304,-8.2304,-8.2304,-8.2304,-8.2304,-8.2304,-8.2304,-8.2304,-8.2304,-8.2304,-8.2304,-8.2304,-8.2304,-8.2304,-8.2304,-8.2304,-8.2304,-8.2304,-8.2304,-8.2304,-8.2304,-8.2304,-8.2304,-8.2304,-8.2226,-8.2031,-8.164,-8.0781,-7.9883,-7.8476,-7.7539,-7.7226,-7.6992,-7.6839,-7.5658,-7.4442,-7.3578,-7.2976,-7.1898,-7.0937,-7.0898,-7.0821,-7.0591,-7.0475,-7.7708,-7.742,-7.8626,-7.8883,-7.8589,-7.8883,-7.9286,-7.958,-7.9286,-7.9396,-7.9727,-7.9832,-8.0241,-8.0975,-8.1012,-8.1232,-8.1342,-8.0791,-7.9984,-7.925,-7.9165,-7.9216,-7.9351,-7.9561,-7.9946,-8.0239,-8.0767,-8.1077,-8.1093,-8.1093,-8.1093,-8.1093,-8.1093,-8.1093,-8.1093,-8.1093,-8.1093,-8.1093,-8.1093,-8.1093,-8.1093,-8.1093,-8.1093,-8.1093,-8.1093,-8.1093,-8.1093,-8.1093,-8.1093,-8.1093,-8.1093,-8.1093,-8.1093,-8.1093,-8.1093,-8.1093,-8.1093,-8.1093,-8.1196,-8.1447,-8.168,-8.1688,-8.2065,-8.2226,-8.2304,-8.2304,-8.2304,-8.2304,-8.2304,-8.2304,-8.2304,-8.2304,-8.2304,-8.2304,-8.2304,-8.2304,-8.2304,-8.2304,-8.2304,-8.2304,-8.2304,-8.2304,-8.2304,-8.2304,-8.2304,-8.2304,-8.2304,-8.2304,-8.2304,-8.2304,-8.2304,-8.2304,-8.2304,-8.2304,-8.2304,-8.2148,-8.1875,-8.1328,-8.0547,-7.9648,-7.8594,-7.7812,-7.7226,-7.7031,-7.6868,-7.6124,-7.5011,-7.4181,-7.3182,-7.2168,-7.1437,-7.1129,-7.086,-7.0744,-7.0706,-7.7494,-7.7604,-7.914,-7.9832,-7.991,-8.0424,-8.0718,-8.0828,-8.0277,-8.0094,-8.0167,-8.0199,-8.0755,-8.1122,-8.1269,-8.1158,-8.0901,-8.0713,-8.0341,-7.9996,-8.018,-8.046,-8.0701,-8.0787,-8.0883,-8.0659,-8.0954,-8.1115,-8.1093,-8.1093,-8.1093,-8.1093,-8.1093,-8.1093,-8.1093,-8.1093,-8.1093,-8.1093,-8.1093,-8.1093,-8.1093,-8.1093,-8.1093,-8.1093,-8.1093,-8.1093,-8.1093,-8.1093,-8.1093,-8.1093,-8.1093,-8.1093,-8.1093,-8.1093,-8.1093,-8.1093,-8.1093,-8.1093,-8.1167,-8.1447,-8.1688,-8.1742,-8.2065,-8.2265,-8.2304,-8.2304,-8.2304,-8.2304,-8.2304,-8.2304,-8.2304,-8.2304,-8.2304,-8.2304,-8.2304,-8.2304,-8.2304,-8.2304,-8.2304,-8.2304,-8.2304,-8.2304,-8.2304,-8.2304,-8.2304,-8.2304,-8.2304,-8.2304,-8.2304,-8.2304,-8.2304,-8.2304,-8.2304,-8.2304,-8.2304,-8.2304,-8.1992,-8.1601,-8.0703,-7.9883,-7.9062,-7.8594,-7.8047,-7.7226,-7.678,-7.612,-7.5283,-7.4231,-7.3279,-7.239,-7.1668,-7.1052,-7.0898,-7.0898,-7.0898,-7.8405,-7.8479,-7.9396,-7.9832,-7.98,-7.9984,-8.0498,-8.0938,-8.0865,-8.1195,-8.1672,-8.1746,-8.1746,-8.1929,-8.1966,-8.1672,-8.1342,-8.1402,-8.1348,-8.1021,-8.1371,-8.1843,-8.213,-8.215,-8.2416,-8.251,-8.2,-8.1323,-8.117,-8.1093,-8.1093,-8.1093,-8.1093,-8.1093,-8.1093,-8.1093,-8.1093,-8.1093,-8.1093,-8.1093,-8.1093,-8.1093,-8.1093,-8.1093,-8.1093,-8.1093,-8.1093,-8.1093,-8.1093,-8.1093,-8.1093,-8.1093,-8.1093,-8.1093,-8.1093,-8.1093,-8.1093,-8.1093,-8.1181,-8.148,-8.1648,-8.1767,-8.2065,-8.2265,-8.2304,-8.2304,-8.2304,-8.2304,-8.2304,-8.2304,-8.2304,-8.2304,-8.2304,-8.2304,-8.2304,-8.2304,-8.2304,-8.2304,-8.2304,-8.2304,-8.2304,-8.2304,-8.2304,-8.2304,-8.2304,-8.2304,-8.2304,-8.2304,-8.2304,-8.2304,-8.2304,-8.2304,-8.2304,-8.2304,-8.2304,-8.2304,-8.2187,-8.2109,-8.1445,-8.0781,-8.0078,-7.9648,-7.8984,-7.789,-7.6992,-7.6325,-7.5396,-7.4397,-7.3626,-7.2902,-7.1951,-7.1014,-7.1091,-7.1245,-7.1014,-7.8332,-7.8112,-7.969,-8.0167,-7.9984,-8.0718,-8.1269,-8.1599,-8.1636,-8.1819,-8.2113,-8.2186,-8.2186,-8.2186,-8.2186,-8.215,-8.2361,-8.2505,-8.269,-8.2696,-8.2998,-8.316,-8.3346,-8.331,-8.3388,-8.3324,-8.2747,-8.2093,-8.1708,-8.1285,-8.117,-8.1093,-8.1093,-8.1093,-8.1093,-8.1093,-8.1093,-8.1093,-8.1093,-8.1093,-8.1093,-8.1093,-8.1093,-8.1093,-8.1093,-8.1093,-8.1093,-8.1093,-8.1093,-8.1093,-8.1093,-8.1093,-8.1093,-8.1093,-8.1093,-8.1093,-8.1093,-8.1122,-8.1258,-8.1534,-8.171,-8.1878,-8.2127,-8.2265,-8.2304,-8.2304,-8.2304,-8.2304,-8.2304,-8.2304,-8.2304,-8.2304,-8.2304,-8.2304,-8.2304,-8.2304,-8.2304,-8.2304,-8.2304,-8.2304,-8.2304,-8.2304,-8.2304,-8.2304,-8.2304,-8.2304,-8.2304,-8.2304,-8.2304,-8.2304,-8.2304,-8.2304,-8.2304,-8.2304,-8.2304,-8.2304,-8.2304,-8.2265,-8.2031,-8.1328,-8.0586,-7.9883,-7.914,-7.8203,-7.7383,-7.6523,-7.5984,-7.5177,-7.4316,-7.3493,-7.2836,-7.2245,-7.1783,-7.1514,-7.1437,-7.8112,-7.8002,-7.9947,-8.0571,-8.0498,-8.1636,-8.215,-8.2186,-8.215,-8.215,-8.2186,-8.2186,-8.2186,-8.2223,-8.2406,-8.27,-8.3206,-8.3217,-8.3702,-8.4019,-8.4255,-8.43,-8.436,-8.4327,-8.4381,-8.4352,-8.3862,-8.3401,-8.2554,-8.1823,-8.1439,-8.1362,-8.1285,-8.1093,-8.1093,-8.1093,-8.1093,-8.1093,-8.1093,-8.1093,-8.1093,-8.1093,-8.1093,-8.1093,-8.1093,-8.1093,-8.1093,-8.1093,-8.1093,-8.1093,-8.1093,-8.1093,-8.1093,-8.1093,-8.1093,-8.1093,-8.1093,-8.12,-8.1383,-8.1582,-8.176,-8.1967,-8.2173,-8.2265,-8.2304,-8.2304,-8.2304,-8.2304,-8.2304,-8.2304,-8.2304,-8.2304,-8.2304,-8.2304,-8.2304,-8.2304,-8.2304,-8.2304,-8.2304,-8.2304,-8.2304,-8.2383,-8.2422,-8.2304,-8.2304,-8.2304,-8.2304,-8.2304,-8.2304,-8.2304,-8.2304,-8.2304,-8.2304,-8.2304,-8.2304,-8.2304,-8.2304,-8.2304,-8.2031,-8.1523,-8.0703,-7.9883,-7.914,-7.8476,-7.7578,-7.6773,-7.6358,-7.5826,-7.4839,-7.4127,-7.3826,-7.336,-7.2706,-7.2399,-7.2322,-7.8259,-7.9507,-7.98,-8.0681,-8.1782,-8.2076,-8.2186,-8.2186,-8.2186,-8.2186,-8.2186,-8.2186,-8.2186,-8.2333,-8.2957,-8.2884,-8.3024,-8.3819,-8.4533,-8.4896,-8.506,-8.5397,-8.5731,-8.5856,-8.5591,-8.5363,-8.4978,-8.4286,-8.3478,-8.2631,-8.2131,-8.1977,-8.14,-8.1093,-8.1093,-8.1093,-8.1093,-8.1093,-8.1093,-8.1093,-8.1093,-8.1093,-8.1093,-8.1093,-8.1093,-8.1093,-8.1093,-8.1093,-8.1093,-8.1093,-8.1093,-8.1093,-8.1093,-8.1093,-8.1093,-8.1093,-8.11,-8.1196,-8.1395,-8.1591,-8.1805,-8.2023,-8.2254,-8.2304,-8.2578,-8.2617,-8.2617,-8.2304,-8.2422,-8.2461,-8.25,-8.2383,-8.2344,-8.2383,-8.25,-8.25,-8.25,-8.3047,-8.2929,-8.2851,-8.3008,-8.2773,-8.2617,-8.2461,-8.2304,-8.2304,-8.2304,-8.2304,-8.2304,-8.2304,-8.2304,-8.2304,-8.2304,-8.2304,-8.2304,-8.2304,-8.2304,-8.2304,-8.207,-8.1758,-8.1172,-8.039,-7.9453,-7.875,-7.7851,-7.707,-7.6508,-7.5904,-7.516,-7.4745,-7.448,-7.4014,-7.3476,-7.3322,-7.3245,-7.8736,-7.98,-8.0277,-8.0865,-8.1525,-8.1966,-8.2186,-8.2186,-8.2186,-8.2186,-8.2186,-8.2186,-8.2186,-8.2406,-8.303,-8.3692,-8.4225,-8.5153,-8.614,-8.6427,-8.6543,-8.654,-8.6603,-8.6363,-8.6094,-8.6017,-8.5786,-8.5517,-8.4555,-8.3247,-8.2324,-8.2247,-8.1554,-8.1093,-8.1285,-8.1131,-8.1093,-8.1093,-8.1093,-8.1093,-8.1093,-8.1093,-8.1093,-8.1093,-8.1093,-8.1093,-8.1093,-8.1093,-8.1093,-8.1093,-8.1093,-8.1093,-8.1093,-8.1093,-8.1093,-8.1093,-8.1093,-8.121,-8.1383,-8.1591,-8.1844,-8.2179,-8.2617,-8.3281,-8.3594,-8.3711,-8.3711,-8.3789,-8.3789,-8.3554,-8.3125,-8.3047,-8.3047,-8.3047,-8.3008,-8.3359,-8.3476,-8.375,-8.3945,-8.3828,-8.3672,-8.3515,-8.3203,-8.289,-8.2695,-8.25,-8.2422,-8.2383,-8.2344,-8.2304,-8.2304,-8.2304,-8.2304,-8.2304,-8.2304,-8.2304,-8.2304,-8.2304,-8.2304,-8.1992,-8.1758,-8.1054,-8.0078,-7.9258,-7.8555,-7.7734,-7.6875,-7.6294,-7.5808,-7.5463,-7.5168,-7.4745,-7.4322,-7.4207,-7.413,-7.9176,-8.0131,-8.0755,-8.1122,-8.1342,-8.1966,-8.2333,-8.2517,-8.2517,-8.2517,-8.248,-8.2517,-8.2517,-8.2835,-8.3802,-8.4873,-8.5558,-8.6692,-8.7587,-8.8082,-8.8078,-8.7581,-8.7248,-8.6709,-8.6363,-8.6094,-8.6017,-8.594,-8.5363,-8.4286,-8.3131,-8.2901,-8.2401,-8.1939,-8.1785,-8.1862,-8.1862,-8.1516,-8.1477,-8.1362,-8.117,-8.1093,-8.1093,-8.1093,-8.1093,-8.1093,-8.1093,-8.1093,-8.1093,-8.1093,-8.1093,-8.1093,-8.1093,-8.1093,-8.1093,-8.117,-8.1285,-8.1546,-8.1774,-8.1951,-8.211,-8.2573,-8.3242,-8.414,-8.4609,-8.4922,-8.4883,-8.4687,-8.4687,-8.4414,-8.4101,-8.3945,-8.3945,-8.3906,-8.3906,-8.4375,-8.4765,-8.4883,-8.4726,-8.4414,-8.4375,-8.4531,-8.4179,-8.3554,-8.3125,-8.2773,-8.2578,-8.2539,-8.2383,-8.2304,-8.2304,-8.2304,-8.2304,-8.2304,-8.2304,-8.2304,-8.2304,-8.2304,-8.2304,-8.2226,-8.1992,-8.1406,-8.0508,-7.9765,-7.9101,-7.8047,-7.6953,-7.6709,-7.6462,-7.5975,-7.5553,-7.5476,-7.5245,-7.5091,-7.5014,-7.9507,-8.0938,-8.1012,-8.1489,-8.2113,-8.215,-8.2627,-8.3287,-8.3287,-8.3287,-8.3324,-8.3287,-8.3251,-8.3783,-8.5207,-8.6043,-8.5794,-8.7771,-8.8368,-8.838,-8.823,-8.8137,-8.7709,-8.7248,-8.6824,-8.6209,-8.6094,-8.6094,-8.5901,-8.5209,-8.467,-8.4593,-8.3516,-8.3401,-8.3208,-8.2939,-8.2708,-8.2362,-8.2247,-8.19,-8.1554,-8.1362,-8.1323,-8.1285,-8.1208,-8.1093,-8.1131,-8.1208,-8.1246,-8.1246,-8.1131,-8.1093,-8.1093,-8.1246,-8.1285,-8.14,-8.1939,-8.2194,-8.2347,-8.2686,-8.3013,-8.3471,-8.414,-8.4922,-8.5312,-8.5078,-8.4961,-8.5195,-8.5429,-8.5117,-8.4922,-8.4804,-8.4844,-8.5078,-8.5234,-8.5586,-8.5859,-8.582,-8.5625,-8.5117,-8.5195,-8.5625,-8.5508,-8.5,-8.4101,-8.3711,-8.3086,-8.2969,-8.2461,-8.2304,-8.2304,-8.2304,-8.2304,-8.2304,-8.2304,-8.2304,-8.2304,-8.2304,-8.2304,-8.2304,-8.2226,-8.1523,-8.1015,-8.0117,-7.9375,-7.8242,-7.7277,-7.7071,-7.6803,-7.6237,-7.5976,-7.6053,-7.5938,-7.5745,-7.5707,-7.969,-8.0351,-8.1305,-8.2186,-8.2884,-8.2406,-8.292,-8.3911,-8.3618,-8.3691,-8.4095,-8.3691,-8.3691,-8.4543,-8.5912,-8.7013,-8.7249,-8.8772,-8.9443,-8.9708,-8.9601,-8.8979,-8.8325,-8.7594,-8.694,-8.6324,-8.6132,-8.6094,-8.6017,-8.5863,-8.6132,-8.5786,-8.4709,-8.3785,-8.3555,-8.3862,-8.3478,-8.3285,-8.3093,-8.2862,-8.2785,-8.2631,-8.2631,-8.2631,-8.2631,-8.2631,-8.2593,-8.2093,-8.19,-8.1708,-8.14,-8.1285,-8.1362,-8.1631,-8.1823,-8.1939,-8.2631,-8.3016,-8.3156,-8.3535,-8.4104,-8.5014,-8.5508,-8.5859,-8.6211,-8.6445,-8.6484,-8.6523,-8.6406,-8.625,-8.5781,-8.5742,-8.5859,-8.625,-8.664,-8.6992,-8.7187,-8.7226,-8.7148,-8.6914,-8.6992,-8.7265,-8.6953,-8.6562,-8.5586,-8.4687,-8.4023,-8.3359,-8.2851,-8.2422,-8.2422,-8.2344,-8.2304,-8.2304,-8.2304,-8.2304,-8.2304,-8.2304,-8.2304,-8.2304,-8.2304,-8.2265,-8.164,-8.0664,-7.9765,-7.8906,-7.8188,-7.7634,-7.7209,-7.685,-7.6773,-7.6823,-7.663,-7.6438,-7.6399,-7.958,-7.9947,-8.1269,-8.2443,-8.3251,-8.2517,-8.3104,-8.4278,-8.3765,-8.3875,-8.4606,-8.44,-8.471,-8.5625,-8.7125,-8.8135,-8.8791,-8.9833,-9.0589,-9.0739,-9.0462,-8.9825,-8.9094,-8.8479,-8.794,-8.7055,-8.6863,-8.6978,-8.7055,-8.6901,-8.7209,-8.7055,-8.617,-8.5517,-8.5247,-8.4786,-8.4516,-8.4093,-8.3978,-8.3785,-8.3632,-8.3516,-8.3516,-8.3439,-8.3401,-8.3401,-8.3285,-8.2939,-8.2708,-8.2554,-8.2285,-8.1977,-8.2093,-8.2285,-8.2631,-8.2978,-8.3401,-8.3939,-8.4102,-8.4427,-8.5186,-8.6202,-8.6484,-8.6914,-8.7304,-8.75,-8.7226,-8.7383,-8.7539,-8.7578,-8.6953,-8.7304,-8.7656,-8.8164,-8.8242,-8.8515,-8.8906,-8.9023,-8.8984,-8.8867,-8.8867,-8.8594,-8.7851,-8.7304,-8.6445,-8.5508,-8.4687,-8.3945,-8.3203,-8.2851,-8.2656,-8.25,-8.2304,-8.2304,-8.2304,-8.2304,-8.2304,-8.2304,-8.2304,-8.2304,-8.2304,-8.2304,-8.1992,-8.1015,-8.0195,-7.9648,-7.9111,-7.8538,-7.8076,-7.7578,-7.7602,-7.7645,-7.7592,-7.74,-7.7207,-7.9103,-7.9837,-8.0718,-8.1966,-8.3251,-8.2553,-8.3104,-8.4425,-8.3875,-8.3985,-8.4856,-8.5905,-8.6571,-8.7188,-8.8671,-8.952,-8.9822,-9.0627,-9.1118,-9.1077,-9.1018,-9.0556,-9.0017,-8.9479,-8.8902,-8.8709,-8.8325,-8.8171,-8.8402,-8.8171,-8.8402,-8.8709,-8.8286,-8.8055,-8.8363,-8.7632,-8.644,-8.517,-8.4978,-8.4478,-8.4093,-8.3978,-8.3978,-8.4016,-8.4016,-8.4093,-8.4016,-8.3785,-8.3593,-8.3478,-8.3285,-8.3093,-8.317,-8.3401,-8.3555,-8.3632,-8.4401,-8.4824,-8.4943,-8.5314,-8.6167,-8.707,-8.7148,-8.7383,-8.75,-8.7539,-8.7734,-8.8008,-8.8203,-8.8554,-8.8828,-8.9179,-8.9414,-8.9726,-8.9726,-8.9961,-9.0351,-9.0586,-9.0469,-9.0117,-8.9922,-8.9648,-8.875,-8.7969,-8.7187,-8.6289,-8.5429,-8.4609,-8.3828,-8.3281,-8.3008,-8.2773,-8.2539,-8.2304,-8.2304,-8.2304,-8.2304,-8.2304,-8.2304,-8.2304,-8.2304,-8.2304,-8.1875,-8.1211,-8.0742,-8.0234,-7.9883,-7.9504,-7.9111,-7.8801,-7.8515,-7.8492,-7.8453,-7.8299,-7.7938,-7.9066,-7.9874,-8.0681,-8.1929,-8.3177,-8.2553,-8.3104,-8.4389,-8.4389,-8.4646,-8.5471,-8.6505,-8.7243,-8.8082,-8.9224,-9.016,-9.0245,-9.0858,-9.121,-9.121,-9.121,-9.0633,-9.0171,-8.9902,-8.9517,-8.8902,-8.8709,-8.8825,-8.8594,-8.8863,-8.9171,-8.9402,-8.9825,-8.9671,-8.8709,-8.7863,-8.6978,-8.6517,-8.6055,-8.5555,-8.5286,-8.517,-8.517,-8.5132,-8.5132,-8.5093,-8.5055,-8.467,-8.4478,-8.4362,-8.4132,-8.3785,-8.3901,-8.4093,-8.4516,-8.467,-8.5286,-8.6046,-8.6542,-8.7059,-8.7253,-8.7539,-8.7578,-8.7812,-8.8164,-8.7734,-8.8125,-8.8711,-8.8867,-8.9179,-8.9531,-8.9687,-9.0,-9.0664,-9.0898,-9.125,-9.1601,-9.1758,-9.1719,-9.1172,-9.082,-9.0039,-8.9179,-8.8515,-8.7773,-8.7148,-8.6289,-8.5429,-8.4648,-8.3867,-8.3398,-8.3125,-8.2851,-8.25,-8.2304,-8.2304,-8.2304,-8.2304,-8.2304,-8.2304,-8.2304,-8.2304,-8.2187,-8.1758,-8.1328,-8.0898,-8.0625,-8.0386,-8.033,-8.0091,-7.97,-7.9407,-7.9361,-7.8938,-7.8376,-7.8626,-7.9433,-8.0241,-8.1342,-8.2443,-8.2296,-8.2847,-8.3831,-8.4539,-8.5254,-8.5953,-8.7266,-8.8291,-8.9048,-8.9893,-9.0488,-9.0528,-9.0914,-9.121,-9.121,-9.121,-9.0864,-9.0556,-9.0287,-9.021,-8.9633,-8.9517,-8.9633,-8.971,-8.9633,-8.9902,-9.0402,-9.0902,-9.0517,-8.9556,-8.8671,-8.7671,-8.7171,-8.6478,-8.5978,-8.594,-8.5978,-8.6017,-8.5978,-8.5978,-8.6017,-8.594,-8.567,-8.5324,-8.5132,-8.4863,-8.4478,-8.4709,-8.5209,-8.5709,-8.5978,-8.655,-8.7393,-8.8022,-8.8322,-8.8401,-8.8515,-8.8125,-8.8359,-8.8906,-8.875,-8.9023,-8.9453,-8.9609,-8.9961,-9.0312,-9.0469,-9.1015,-9.164,-9.1797,-9.2148,-9.2226,-9.2344,-9.2344,-9.1797,-9.1562,-9.0625,-8.9765,-8.9023,-8.8359,-8.7773,-8.7187,-8.6328,-8.5429,-8.4609,-8.3828,-8.3476,-8.3008,-8.25,-8.2304,-8.2304,-8.2304,-8.2304,-8.2304,-8.2304,-8.2304,-8.2304,-8.2304,-8.2304,-8.1875,-8.1523,-8.1406,-8.1262,-8.1063,-8.0891,-8.0641,-8.0396,-8.0277,-7.9785,-7.9208,-7.7818,-7.8662,-7.9433,-8.0277,-8.1085,-8.1893,-8.226,-8.2467,-8.4619,-8.5581,-8.5773,-8.8631,-8.9756,-9.0078,-9.0839,-9.11,-9.1082,-9.1192,-9.1192,-9.121,-9.121,-9.1095,-9.1095,-9.1018,-9.0825,-9.0979,-9.0941,-9.0633,-9.1056,-9.0787,-9.0864,-9.1056,-9.1133,-9.0941,-9.0364,-8.9479,-8.8402,-8.7671,-8.6901,-8.6363,-8.617,-8.6247,-8.6363,-8.644,-8.6517,-8.6478,-8.644,-8.6324,-8.6247,-8.617,-8.6132,-8.617,-8.644,-8.6978,-8.7286,-8.7632,-8.8171,-8.8745,-8.9088,-8.9206,-8.967,-8.9735,-8.9297,-8.9453,-8.9648,-8.9804,-8.9961,-9.0351,-9.0664,-9.0976,-9.1289,-9.1758,-9.2226,-9.2422,-9.2422,-9.25,-9.25,-9.2539,-9.2539,-9.2422,-9.2383,-9.1758,-9.0859,-9.0039,-8.914,-8.8359,-8.7812,-8.7226,-8.6289,-8.5156,-8.4414,-8.3789,-8.3242,-8.2461,-8.2304,-8.2304,-8.2304,-8.2304,-8.2304,-8.2304,-8.2304,-8.2304,-8.2304,-8.2304,-8.2304,-8.2148,-8.1875,-8.1719,-8.1611,-8.1437,-8.1154,-8.0954,-8.0692,-8.0762,-8.04,-7.7818,-7.8589,-7.8846,-7.9727,-8.1048,-8.1856,-8.2186,-8.25,-8.4613,-8.5603,-8.5765,-8.8791,-9.0122,-9.016,-9.0858,-9.1118,-9.121,-9.121,-9.121,-9.121,-9.121,-9.121,-9.121,-9.121,-9.121,-9.121,-9.121,-9.121,-9.1171,-9.121,-9.121,-9.1171,-9.121,-9.121,-9.0825,-9.0094,-8.921,-8.8325,-8.7478,-8.6863,-8.6594,-8.6786,-8.6901,-8.7094,-8.7517,-8.744,-8.7171,-8.7555,-8.7517,-8.7132,-8.7632,-8.7902,-8.7979,-8.8209,-8.8325,-8.8402,-8.8996,-8.9629,-8.9774,-9.0026,-9.0478,-9.0989,-9.0759,-9.0703,-9.0742,-9.0664,-9.0703,-9.1211,-9.1562,-9.1836,-9.2109,-9.2539,-9.2812,-9.2851,-9.2773,-9.2578,-9.2578,-9.2578,-9.2578,-9.2578,-9.2578,-9.2304,-9.1484,-9.0976,-9.0117,-8.914,-8.8359,-8.7812,-8.7031,-8.5859,-8.4922,-8.4297,-8.3437,-8.2656,-8.2344,-8.2304,-8.2304,-8.2304,-8.2304,-8.2304,-8.2304,-8.2304,-8.2304,-8.2304,-8.2304,-8.2304,-8.2265,-8.207,-8.1836,-8.1648,-8.1413,-8.1247,-8.1122,-8.11,-8.1093,-7.7598,-7.8112,-7.8479,-7.936,-8.0635,-8.1986,-8.2437,-8.2628,-8.4898,-8.6159,-8.6743,-8.9348,-9.0528,-9.0626,-9.1008,-9.121,-9.121,-9.121,-9.121,-9.121,-9.121,-9.121,-9.121,-9.121,-9.121,-9.121,-9.121,-9.121,-9.121,-9.121,-9.121,-9.121,-9.121,-9.121,-9.1018,-9.0633,-9.0017,-8.9171,-8.8402,-8.7709,-8.7517,-8.7594,-8.7786,-8.8017,-8.8556,-8.8325,-8.8055,-8.8594,-8.8363,-8.7979,-8.8556,-8.8671,-8.8748,-8.894,-8.9479,-8.9633,-9.0094,-9.0461,-9.0639,-9.0918,-9.1447,-9.1814,-9.1875,-9.1836,-9.1679,-9.1562,-9.1836,-9.2187,-9.2344,-9.2539,-9.2851,-9.3125,-9.3164,-9.3164,-9.289,-9.2617,-9.2578,-9.2578,-9.2578,-9.2578,-9.25,-9.2344,-9.1953,-9.1601,-9.0937,-8.9765,-8.8789,-8.8125,-8.7344,-8.6367,-8.5469,-8.4726,-8.375,-8.2851,-8.2578,-8.2304,-8.2304,-8.2304,-8.2304,-8.2304,-8.2304,-8.2304,-8.2304,-8.2304,-8.2304,-8.2304,-8.2304,-8.2109,-8.1904,-8.1725,-8.1543,-8.1349,-8.1181,-8.1124,-8.1093,-7.731,-7.7384,-7.8222,-7.8993,-7.9963,-8.1919,-8.2556,-8.2454,-8.5171,-8.6919,-8.7811,-8.9898,-9.0772,-9.0718,-9.0885,-9.1056,-9.1133,-9.121,-9.121,-9.121,-9.121,-9.121,-9.121,-9.121,-9.121,-9.121,-9.121,-9.121,-9.121,-9.121,-9.121,-9.121,-9.121,-9.121,-9.1133,-9.1095,-9.0594,-9.0056,-8.944,-8.8863,-8.8632,-8.8671,-8.8786,-8.8825,-8.894,-8.894,-8.8863,-8.8863,-8.8825,-8.8825,-8.894,-8.9017,-8.9517,-8.9902,-9.0594,-9.1133,-9.1518,-9.1462,-9.1581,-9.1811,-9.1887,-9.2178,-9.2422,-9.2539,-9.25,-9.2539,-9.2812,-9.3047,-9.3203,-9.3594,-9.3945,-9.4023,-9.4023,-9.3945,-9.375,-9.3554,-9.3515,-9.3437,-9.332,-9.3242,-9.3008,-9.2812,-9.2344,-9.1953,-9.1484,-9.0312,-8.9414,-8.8672,-8.7773,-8.6875,-8.5937,-8.5117,-8.4023,-8.3086,-8.2539,-8.2304,-8.2304,-8.2304,-8.2304,-8.2304,-8.2304,-8.2304,-8.2304,-8.2304,-8.2304,-8.2304,-8.2265,-8.2148,-8.1992,-8.1732,-8.1553,-8.1386,-8.1228,-8.1116,-8.1093,-7.731,-7.7384,-7.8259,-7.8736,-7.9081,-8.0613,-8.188,-8.2799,-8.459,-8.5969,-8.694,-8.8479,-8.971,-9.0287,-9.0325,-9.0594,-9.1133,-9.121,-9.121,-9.121,-9.121,-9.121,-9.121,-9.121,-9.121,-9.121,-9.121,-9.121,-9.1325,-9.1287,-9.121,-9.1248,-9.121,-9.121,-9.121,-9.121,-9.0979,-9.071,-9.0479,-8.9748,-8.9094,-8.9402,-8.9633,-8.9825,-8.9979,-9.0017,-9.0056,-9.0248,-9.0017,-8.9825,-9.0364,-9.0902,-9.1556,-9.1748,-9.2287,-9.2903,-9.2903,-9.2661,-9.2496,-9.2596,-9.2671,-9.2399,-9.2539,-9.3008,-9.332,-9.3515,-9.3711,-9.3906,-9.4219,-9.4648,-9.4883,-9.4883,-9.4883,-9.4765,-9.4609,-9.4531,-9.4453,-9.4297,-9.414,-9.3906,-9.3633,-9.3203,-9.2773,-9.2304,-9.1836,-9.1094,-9.0234,-8.9414,-8.8476,-8.7539,-8.6328,-8.539,-8.4258,-8.3359,-8.2773,-8.2304,-8.2304,-8.2304,-8.2304,-8.2304,-8.2304,-8.2304,-8.2304,-8.2304,-8.2304,-8.2304,-8.2304,-8.2304,-8.2109,-8.1836,-8.1615,-8.1469,-8.1283,-8.1116,-8.1108,-7.731,-7.7384,-7.8259,-7.8547,-7.8779,-8.0373,-8.1594,-8.2488,-8.4173,-8.5264,-8.603,-8.7742,-8.9133,-8.9825,-8.9902,-9.0364,-9.1056,-9.1171,-9.121,-9.121,-9.121,-9.121,-9.121,-9.121,-9.121,-9.121,-9.121,-9.1287,-9.1595,-9.1364,-9.1248,-9.1556,-9.1518,-9.121,-9.121,-9.121,-9.121,-9.1171,-9.121,-9.0633,-8.971,-9.0171,-9.0479,-9.071,-9.0787,-9.0825,-9.1056,-9.1287,-9.1402,-9.1402,-9.1902,-9.2364,-9.2787,-9.2903,-9.3172,-9.348,-9.3557,-9.3518,-9.3312,-9.3323,-9.3483,-9.3171,-9.3437,-9.4219,-9.4453,-9.4648,-9.4765,-9.5,-9.5351,-9.5742,-9.5781,-9.5781,-9.5781,-9.5703,-9.5234,-9.4922,-9.4883,-9.4804,-9.4726,-9.4648,-9.4219,-9.3672,-9.3203,-9.2695,-9.2148,-9.1289,-9.0547,-8.9804,-8.8945,-8.8203,-8.6953,-8.5859,-8.4844,-8.3906,-8.3242,-8.2695,-8.2304,-8.2304,-8.2304,-8.2304,-8.2304,-8.2304,-8.2304,-8.2304,-8.2304,-8.2304,-8.2304,-8.2304,-8.2187,-8.1953,-8.1739,-8.16,-8.1359,-8.1131,-8.1124,-7.731,-7.742,-7.8112,-7.8382,-7.8586,-8.0417,-8.1369,-8.1784,-8.3738,-8.4808,-8.5236,-8.7308,-8.8748,-8.9517,-8.9787,-9.0479,-9.0941,-9.1133,-9.121,-9.121,-9.121,-9.121,-9.121,-9.121,-9.121,-9.121,-9.121,-9.1748,-9.2326,-9.1748,-9.1518,-9.2095,-9.1787,-9.121,-9.121,-9.121,-9.121,-9.121,-9.121,-9.121,-9.1133,-9.121,-9.121,-9.1248,-9.1364,-9.1402,-9.171,-9.2095,-9.2595,-9.2787,-9.3056,-9.348,-9.3787,-9.3864,-9.4095,-9.4287,-9.4441,-9.4249,-9.4018,-9.4304,-9.4348,-9.4473,-9.5004,-9.5312,-9.5469,-9.5664,-9.5781,-9.6094,-9.6445,-9.6562,-9.6601,-9.6601,-9.6601,-9.6562,-9.5976,-9.5586,-9.5586,-9.5547,-9.5508,-9.5429,-9.4804,-9.4219,-9.3594,-9.3086,-9.2344,-9.1484,-9.0742,-8.9961,-8.9219,-8.8594,-8.7695,-8.6719,-8.582,-8.4883,-8.375,-8.3164,-8.2656,-8.2304,-8.2304,-8.2304,-8.2304,-8.2304,-8.2304,-8.2304,-8.2304,-8.2304,-8.2304,-8.2304,-8.2187,-8.1992,-8.1831,-8.1618,-8.1349,-8.1161,-8.1124,-7.731,-7.731,-7.7524,-7.7828,-7.8427,-7.9314,-8.0315,-8.1537,-8.3103,-8.4209,-8.5016,-8.5978,-8.7401,-8.894,-8.894,-8.9671,-9.1056,-9.121,-9.121,-9.121,-9.121,-9.121,-9.121,-9.121,-9.121,-9.121,-9.1287,-9.1748,-9.2326,-9.1748,-9.1633,-9.2364,-9.1672,-9.1248,-9.1248,-9.1248,-9.1248,-9.1287,-9.1248,-9.1248,-9.1287,-9.1402,-9.171,-9.1941,-9.2249,-9.2672,-9.3056,-9.3364,-9.3441,-9.3557,-9.3749,-9.421,-9.4518,-9.4788,-9.498,-9.5249,-9.5403,-9.5206,-9.5091,-9.5258,-9.5282,-9.4926,-9.5351,-9.582,-9.6015,-9.6328,-9.6562,-9.7031,-9.7304,-9.7304,-9.7304,-9.7304,-9.7304,-9.7304,-9.6992,-9.6953,-9.6953,-9.6875,-9.6758,-9.6211,-9.5429,-9.4726,-9.3984,-9.3359,-9.2656,-9.1914,-9.1406,-9.0664,-9.0312,-8.9414,-8.8359,-8.7578,-8.6719,-8.5273,-8.3945,-8.3594,-8.3125,-8.2695,-8.2304,-8.2304,-8.2304,-8.2304,-8.2304,-8.2304,-8.2304,-8.2304,-8.2304,-8.2304,-8.2148,-8.1984,-8.1831,-8.1618,-8.1361,-8.1176,-8.1124]},{"header":{"parameterUnit":"m.s-1","parameterCategory":1,"la1":31.0,"la2":29.5877,"lo1":-88.7671,"lo2":-86.6584,"dy":0.0162,"dx":0.0185,"nx":115,"ny":88,"refTime":"2024-03-06T18:00:00:Z","depth":0,"parameterNumber":3,"parameterNumberName":"V-component_of_WINDS"},"data":[0.0,0.0,0.0,0.0,0.0,0.0,0.0,0.0,0.0,0.0,0.0,0.0,0.0,0.0,0.0,0.0,0.0,0.0,0.0,0.0,0.0,0.0,0.0,0.0,0.0,0.0,0.0,0.0,0.0,0.0,0.0,0.0,0.0,0.0,0.0,0.0,0.0,0.0,0.0,0.0,0.0,0.0,0.0,0.0,0.0,0.0,0.0,0.0,0.0,0.0,0.0,0.0,0.0,0.0,0.0,0.0,0.0,0.0,0.0,0.0,0.0,0.0,0.0,0.0,0.0,0.0,0.0,0.0,0.0,0.0,0.0,0.0,0.0,0.0,0.0,0.0,0.0,0.0,0.0,0.0,0.0,0.0,0.0,0.0,0.0,0.0,0.0,0.0,0.0,0.0,0.0,0.0,0.0,0.0,0.0,0.0,0.0,0.0,0.0,0.0,0.0,0.0,0.0,0.0,0.0,0.0,0.0,0.0,0.0,0.0,0.0,0.0,0.0,0.0,0.0,0.0,0.0,0.0,0.0,0.0,0.0,0.0,0.0,0.0,0.0,0.0,0.0,0.0,0.0,0.0,0.0,0.0,0.0,0.0,0.0,0.0,0.0,0.0,0.0,0.0,0.0,0.0,0.0,0.0,0.0,0.0,0.0,0.0,0.0,0.0,0.0,0.0,0.0,0.0,0.0,0.0,0.0,0.0,0.0,0.0,0.0,0.0,0.0,0.0,0.0,0.0,0.0,0.0,0.0,0.0,0.0,0.0,0.0,0.0,0.0,0.0,0.0,0.0,0.0,0.0,0.0,0.0,0.0,0.0,0.0,0.0,0.0,0.0,0.0,0.0,0.0,0.0,0.0,0.0,0.0,0.0,0.0,0.0,0.0,0.0,0.0,0.0,0.0,0.0,0.0,0.0,0.0,0.0,0.0,0.0,0.0,0.0,0.0,0.0,0.0,0.0,0.0,0.0,0.0,0.0,0.0,0.0,0.0,0.0,0.0,0.0,0.0,0.0,0.0,0.0,0.0,0.0,0.0,0.0,0.0,0.0,0.0,0.0,0.0,0.0,0.0,0.0,0.0,0.0,0.0,0.0,0.0,0.0,0.0,0.0,0.0,0.0,0.0,0.0,0.0,0.0,0.0,0.0,0.0,0.0,0.0,0.0,0.0,0.0,0.0,0.0,0.0,0.0,0.0,0.0,0.0,0.0,0.0,0.0,0.0,0.0,0.0,0.0,0.0,0.0,0.0,0.0,0.0,0.0,0.0,0.0,0.0,0.0,0.0,0.0,0.0,0.0,0.0,0.0,0.0,0.0,0.0,0.0,0.0,0.0,0.0,0.0,0.0,0.0,0.0,0.0,0.0,0.0,0.0,0.0,0.0,0.0,0.0,0.0,0.0,0.0,0.0,0.0,0.0,0.0,0.0,0.0,0.0,0.0,0.0,0.0,0.0,0.0,0.0,0.0,0.0,0.0,0.0,0.0,0.0,0.0,0.0,0.0,0.0,0.0,0.0,0.0,0.0,0.0,0.0,0.0,0.0,0.0,0.0,0.0,0.0,0.0,0.0,0.0,0.0,0.0,0.0,0.0,0.0,0.0,0.0,0.0,0.0,0.0,0.0,0.0,0.0,0.0,0.0,0.0,0.0,0.0,0.0,0.0,0.0,0.0,0.0,0.0,0.0,0.0,0.0,0.0,0.0,0.0,0.0,0.0,0.0,0.0,0.0,0.0,0.0,0.0,0.0,0.0,0.0,0.0,0.0,0.0,0.0,0.0,0.0,0.0,0.0,0.0,0.0,0.0,0.0,0.0,0.0,0.0,0.0,0.0,0.0,0.0,0.0,0.0,0.0,0.0,0.0,0.0,0.0,0.0,0.0,0.0,0.0,0.0,0.0,0.0,0.0,0.0,0.0,0.0,0.0,0.0,0.0,0.0,0.0,0.0,0.0,0.0,0.0,0.0,0.0,0.0,0.0,0.0,0.0,0.0,0.0,0.0,0.0,0.0,0.0,0.0,0.0,0.0,0.0,0.0,0.0,0.0,0.0,0.0,0.0,0.0,0.0,0.0,0.0,0.0,0.0,0.0,0.0,0.0,0.0,0.0,0.0,0.0,0.0,0.0,0.0,0.0,0.0,0.0,0.0,0.0,0.0,0.0,0.0,0.0,0.0,0.0,0.0,0.0,0.0,0.0,0.0,0.0,0.0,0.0,0.0,0.0,0.0,0.0,0.0,0.0,0.0,0.0,0.0,0.0,0.0,0.0,0.0,0.0,0.0,0.0,0.0,0.0,0.0,0.0,0.0,0.0,0.0,0.0,0.0,0.0,0.0,0.0,0.0,0.0,0.0,0.0,0.0,0.0,0.0,0.0,0.0,0.0,0.0,0.0,0.0,0.0,0.0,0.0,0.0,0.0,0.0,0.0,0.0,0.0,0.0,0.0,0.0,0.0,0.0,0.0,0.0,0.0,0.0,0.0,0.0,0.0,0.0,0.0,0.0,0.0,0.0,0.0,0.0,0.0,0.0,0.0,0.0,0.0,0.0,0.0,0.0,0.0,0.0,0.0,0.0,0.0,0.0,0.0,0.0,0.0,0.0,0.0,0.0,0.0,0.0,0.0,0.0,0.0,0.0,0.0,0.0,0.0,0.0,0.0,0.0,0.0,0.0,0.0,0.0,0.0,0.0,0.0,0.0,0.0,0.0,0.0,0.0,0.0,0.0,0.0,0.0,0.0,0.0,0.0,0.0,0.0,0.0,0.0,0.0,0.0,0.0,0.0,0.0,0.0,0.0,0.0,0.0,0.0,0.0,0.0,0.0,0.0,0.0,0.0,0.0,0.0,0.0,0.0,0.0,0.0,0.0,0.0,0.0,0.0,0.0,0.0,0.0,0.0,0.0,0.0,0.0,0.0,0.0,0.0,0.0,0.0,0.0,0.0,0.0,0.0,0.0,0.0,0.0,0.0,0.0,0.0,0.0,0.0,0.0,0.0,0.0,0.0,0.0,0.0,0.0,0.0,0.0,0.0,0.0,0.0,0.0,0.0,0.0,0.0,0.0,0.0,0.0,0.0,0.0,0.0,0.0,0.0,0.0,0.0,0.0,0.0,0.0,0.0,0.0,0.0,0.0,0.0,0.0,0.0,0.0,0.0,0.0,0.0,0.0,0.0,0.0,0.0,0.0,0.0,0.0,0.0,0.0,0.0,0.0,0.0,0.0,0.0,0.0,0.0,0.0,0.0,0.0,0.0,0.0,0.0,0.0,0.0,0.0,0.0,0.0,0.0,0.0,0.0,0.0,0.0,0.0,0.0,0.0,0.0,0.0,0.0,0.0,0.0,0.0,0.0,0.0,0.0,0.0,0.0,0.0,0.0,0.0,0.0,0.0,0.0,0.0,0.0,0.0,0.0,0.0,0.0,0.0,0.0,0.0,0.0,0.0,0.0,0.0,0.0,0.0,0.0,0.0,0.0,0.0,0.0,0.0,0.0,0.0,0.0,0.0,0.0,0.0,0.0,0.0,0.0,0.0,0.0,0.0,0.0,0.0,0.0,0.0,0.0,0.0,0.0,0.0,0.0,0.0,0.0,0.0,0.0,0.0,0.0,0.0,0.0,0.0,0.0,0.0,0.0,0.0,0.0,0.0,0.0,0.0,0.0,0.0,0.0,0.0,0.0,0.0,0.0,0.0,0.0,0.0,0.0,0.0,0.0,0.0,0.0,0.0,0.0,0.0,0.0,0.0,0.0,0.0,0.0,0.0,0.0,0.0,0.0,0.0,0.0,0.0,0.0,0.0,0.0,0.0,0.0,0.0,0.0,0.0,0.0,0.0,0.0,0.0,0.0,0.0,0.0,0.0,0.0,0.0,0.0,0.0,0.0,0.0,0.0,0.0,0.0,0.0,0.0,0.0,0.0,0.0,0.0,0.0,0.0,0.0,0.0,0.0,0.0,0.0,0.0,0.0,0.0,0.0,0.0,0.0,0.0,0.0,0.0,0.0,0.0,0.0,0.0,0.0,0.0,0.0,0.0,0.0,0.0,0.0,0.0,0.0,0.0,0.0,0.0,0.0,0.0,0.0,0.0,0.0,0.0,0.0,0.0,0.0,0.0,0.0,0.0,0.0,0.0,0.0,0.0,0.0,0.0,0.0,0.0,0.0,0.0,0.0,0.0,0.0,0.0,0.0,0.0,0.0,0.0,0.0,0.0,0.0,0.0,0.0,0.0,0.0,0.0,0.0,0.0,0.0,0.0,0.0,0.0,0.0,0.0,0.0,0.0,0.0,0.0,-1.2739,0.0,0.0,0.0,0.0,0.0,0.0,0.0,0.0,0.0,0.0,0.0,0.0,0.0,0.0,0.0,0.0,0.0,0.0,0.0,0.0,0.0,0.0,0.0,0.0,0.0,0.0,0.0,0.0,0.0,0.0,0.0,0.0,0.0,0.0,0.0,0.0,0.0,0.0,0.0,0.0,0.0,0.0,0.0,0.0,0.0,0.0,0.0,0.0,0.0,0.0,0.0,0.0,0.0,0.0,0.0,0.0,0.0,0.0,0.0,0.0,0.0,0.0,0.0,0.0,0.0,0.0,0.0,0.0,0.0,0.0,0.0,0.0,0.0,0.0,0.0,0.0,0.0,0.0,0.0,0.0,0.0,0.0,0.0,0.0,0.0,0.0,0.0,0.0,0.0,0.0,0.0,0.0,0.0,0.0,0.0,0.0,0.0,0.0,0.0,0.0,0.0,0.0,0.0,0.0,0.0,0.0,0.0,0.0,0.0,0.0,-1.2868,-1.2929,-1.2949,-1.2854,-1.2617,0.0,0.0,0.0,0.0,0.0,0.0,0.0,0.0,0.0,0.0,0.0,0.0,0.0,0.0,0.0,0.0,0.0,0.0,0.0,0.0,0.0,0.0,0.0,0.0,0.0,0.0,0.0,0.0,0.0,0.0,0.0,0.0,0.0,0.0,0.0,0.0,0.0,0.0,0.0,0.0,0.0,0.0,0.0,0.0,0.0,0.0,0.0,0.0,0.0,0.0,0.0,0.0,0.0,0.0,0.0,0.0,0.0,0.0,0.0,0.0,0.0,0.0,0.0,0.0,0.0,0.0,0.0,0.0,0.0,0.0,0.0,0.0,0.0,0.0,0.0,0.0,0.0,0.0,0.0,0.0,0.0,0.0,0.0,0.0,0.0,0.0,0.0,0.0,0.0,0.0,0.0,0.0,0.0,0.0,0.0,0.0,0.0,0.0,0.0,0.0,0.0,0.0,0.0,0.0,0.0,0.0,0.0,0.0,0.0,0.0,0.0,0.0,-1.2868,-1.28,-1.2569,0.0,0.0,0.0,0.0,0.0,0.0,0.0,0.0,0.0,0.0,0.0,0.0,0.0,0.0,0.0,0.0,0.0,0.0,0.0,0.0,0.0,0.0,0.0,0.0,0.0,0.0,0.0,0.0,0.0,0.0,0.0,0.0,0.0,0.0,0.0,0.0,0.0,0.0,0.0,0.0,0.0,0.0,0.0,0.0,0.0,0.0,0.0,0.0,0.0,0.0,0.0,0.0,0.0,0.0,0.0,0.0,0.0,0.0,0.0,0.0,0.0,0.0,0.0,0.0,0.0,0.0,0.0,0.0,0.0,0.0,0.0,0.0,0.0,0.0,0.0,0.0,0.0,0.0,0.0,0.0,0.0,0.0,0.0,0.0,0.0,0.0,0.0,0.0,0.0,0.0,0.0,0.0,0.0,0.0,0.0,0.0,0.0,0.0,0.0,0.0,0.0,0.0,0.0,0.0,0.0,0.0,0.0,0.0,0.0,0.0,-1.2657,-1.3009,-1.2813,0.0,-1.2712,0.0,0.0,0.0,0.0,0.0,0.0,0.0,0.0,0.0,0.0,0.0,0.0,0.0,0.0,0.0,0.0,0.0,0.0,0.0,0.0,0.0,0.0,0.0,0.0,0.0,0.0,0.0,0.0,0.0,0.0,0.0,0.0,0.0,0.0,0.0,0.0,0.0,0.0,0.0,0.0,0.0,0.0,0.0,0.0,0.0,0.0,0.0,0.0,0.0,0.0,0.0,0.0,0.0,0.0,0.0,0.0,0.0,0.0,0.0,0.0,0.0,0.0,0.0,0.0,0.0,0.0,0.0,0.0,0.0,0.0,0.0,0.0,0.0,0.0,0.0,0.0,0.0,0.0,0.0,0.0,0.0,0.0,0.0,0.0,0.0,0.0,0.0,0.0,0.0,0.0,0.0,0.0,0.0,0.0,0.0,0.0,0.0,0.0,0.0,0.0,0.0,0.0,0.0,0.0,0.0,0.0,0.0,0.0,0.0,0.0,-1.2657,-1.2691,-1.2542,-1.2508,0.0,0.0,0.0,0.0,0.0,0.0,0.0,0.0,0.0,0.0,0.0,0.0,0.0,0.0,0.0,0.0,0.0,0.0,0.0,0.0,0.0,0.0,0.0,0.0,0.0,0.0,0.0,0.0,0.0,0.0,0.0,0.0,0.0,0.0,0.0,0.0,0.0,0.0,0.0,0.0,0.0,0.0,0.0,0.0,0.0,0.0,0.0,0.0,0.0,0.0,0.0,0.0,0.0,0.0,0.0,0.0,0.0,0.0,0.0,0.0,0.0,0.0,0.0,0.0,0.0,0.0,0.0,0.0,0.0,0.0,0.0,0.0,0.0,0.0,0.0,0.0,0.0,0.0,0.0,0.0,0.0,0.0,0.0,0.0,0.0,0.0,0.0,0.0,0.0,0.0,0.0,0.0,0.0,0.0,0.0,0.0,0.0,0.0,0.0,0.0,0.0,0.0,0.0,0.0,0.0,0.0,0.0,0.0,0.0,0.0,-1.2596,-1.2576,-1.2501,-1.24,-1.2379,-1.244,0.0,0.0,0.0,0.0,0.0,0.0,0.0,0.0,0.0,0.0,0.0,0.0,0.0,0.0,0.0,0.0,0.0,0.0,0.0,0.0,0.0,0.0,0.0,0.0,0.0,0.0,0.0,0.0,0.0,0.0,0.0,0.0,0.0,0.0,0.0,0.0,0.0,0.0,0.0,0.0,0.0,0.0,0.0,0.0,0.0,0.0,0.0,0.0,0.0,0.0,0.0,0.0,0.0,0.0,0.0,0.0,0.0,0.0,0.0,0.0,0.0,0.0,0.0,0.0,0.0,0.0,0.0,0.0,0.0,0.0,0.0,0.0,0.0,0.0,0.0,0.0,0.0,0.0,0.0,0.0,0.0,0.0,0.0,0.0,0.0,0.0,0.0,0.0,0.0,0.0,0.0,0.0,0.0,0.0,0.0,0.0,0.0,0.0,0.0,0.0,0.0,0.0,0.0,0.0,0.0,0.0,0.0,0.0,-1.2691,-1.2454,-1.2372,-1.2494,-1.2494,-1.2433,0.0,0.0,0.0,0.0,0.0,0.0,0.0,0.0,0.0,0.0,0.0,0.0,0.0,0.0,0.0,0.0,0.0,0.0,0.0,0.0,0.0,0.0,0.0,0.0,0.0,0.0,0.0,0.0,0.0,0.0,0.0,0.0,0.0,0.0,0.0,0.0,0.0,0.0,0.0,0.0,0.0,0.0,0.0,0.0,0.0,0.0,0.0,0.0,0.0,0.0,0.0,0.0,0.0,0.0,0.0,0.0,0.0,0.0,0.0,0.0,0.0,0.0,0.0,0.0,0.0,0.0,0.0,0.0,0.0,0.0,0.0,0.0,0.0,0.0,0.0,0.0,0.0,0.0,0.0,0.0,0.0,0.0,0.0,0.0,0.0,0.0,0.0,0.0,0.0,0.0,0.0,0.0,0.0,0.0,0.0,0.0,0.0,0.0,0.0,0.0,0.0,0.0,0.0,0.0,0.0,0.0,0.0,0.0,0.0,-1.2433,-1.225,-1.2257,-1.2481,-1.2223,-1.2094,0.0,0.0,0.0,0.0,0.0,0.0,0.0,0.0,0.0,0.0,0.0,0.0,0.0,0.0,0.0,0.0,0.0,0.0,0.0,0.0,0.0,0.0,0.0,0.0,0.0,0.0,0.0,0.0,0.0,0.0,0.0,0.0,0.0,0.0,0.0,0.0,0.0,0.0,0.0,0.0,0.0,0.0,0.0,0.0,0.0,0.0,0.0,0.0,0.0,0.0,0.0,0.0,0.0,0.0,0.0,0.0,0.0,0.0,0.0,0.0,0.0,0.0,0.0,0.0,0.0,0.0,0.0,0.0,0.0,0.0,0.0,0.0,0.0,0.0,0.0,0.0,0.0,0.0,0.0,0.0,0.0,0.0,0.0,0.0,0.0,0.0,0.0,0.0,0.0,0.0,0.0,0.0,0.0,0.0,0.0,0.0,0.0,0.0,0.0,0.0,0.0,0.0,0.0,0.0,0.0,0.0,0.0,0.0,0.0,-1.2284,0.0,-1.2155,-1.2338,-1.202,-1.1857,0.0,0.0,0.0,0.0,0.0,0.0,0.0,0.0,0.0,0.0,0.0,0.0,0.0,0.0,0.0,0.0,0.0,0.0,0.0,0.0,0.0,0.0,0.0,0.0,0.0,0.0,0.0,0.0,0.0,0.0,0.0,0.0,0.0,0.0,0.0,0.0,0.0,0.0,0.0,0.0,0.0,0.0,0.0,0.0,0.0,0.0,0.0,0.0,0.0,0.0,0.0,0.0,0.0,0.0,0.0,0.0,0.0,0.0,0.0,0.0,0.0,0.0,0.0,0.0,0.0,0.0,0.0,0.0,0.0,0.0,0.0,0.0,0.0,0.0,0.0,0.0,0.0,0.0,0.0,0.0,0.0,0.0,0.0,0.0,0.0,0.0,0.0,0.0,0.0,0.0,0.0,0.0,0.0,0.0,0.0,0.0,0.0,0.0,0.0,0.0,0.0,0.0,0.0,0.0,0.0,0.0,0.0,0.0,-1.2291,-1.2284,-1.2142,-1.2081,-1.2067,-1.1925,-1.1769,0.0,0.0,0.0,0.0,0.0,0.0,0.0,0.0,0.0,0.0,0.0,0.0,0.0,0.0,0.0,0.0,0.0,0.0,0.0,0.0,0.0,0.0,0.0,0.0,0.0,0.0,0.0,0.0,0.0,0.0,0.0,0.0,0.0,0.0,0.0,0.0,0.0,0.0,0.0,0.0,0.0,0.0,0.0,0.0,0.0,0.0,0.0,0.0,0.0,0.0,0.0,0.0,0.0,0.0,0.0,0.0,0.0,0.0,0.0,0.0,0.0,0.0,0.0,0.0,0.0,0.0,0.0,0.0,0.0,0.0,0.0,0.0,0.0,0.0,0.0,0.0,0.0,0.0,0.0,0.0,0.0,0.0,0.0,0.0,0.0,0.0,0.0,0.0,0.0,0.0,0.0,0.0,0.0,0.0,0.0,0.0,0.0,0.0,0.0,0.0,0.0,0.0,0.0,0.0,0.0,0.0,0.0,0.0,0.0,-1.2291,-1.2142,-1.221,-1.2494,-1.2074,-1.1911,0.0,0.0,0.0,0.0,0.0,0.0,0.0,0.0,0.0,0.0,0.0,0.0,0.0,0.0,0.0,0.0,0.0,0.0,0.0,0.0,0.0,0.0,0.0,0.0,0.0,0.0,0.0,0.0,0.0,0.0,0.0,0.0,0.0,0.0,0.0,0.0,0.0,0.0,0.0,0.0,0.0,0.0,0.0,0.0,0.0,0.0,0.0,0.0,0.0,0.0,0.0,0.0,0.0,0.0,0.0,0.0,0.0,0.0,0.0,0.0,0.0,0.0,0.0,0.0,0.0,0.0,0.0,0.0,0.0,0.0,0.0,0.0,0.0,0.0,0.0,0.0,0.0,0.0,0.0,0.0,0.0,0.0,0.0,0.0,0.0,0.0,0.0,0.0,0.0,0.0,0.0,0.0,0.0,0.0,0.0,0.0,0.0,0.0,0.0,0.0,0.0,0.0,0.0,0.0,0.0,0.0,0.0,0.0,0.0,-1.2779,-1.2474,-1.2447,-1.2725,-1.2257,-1.2033,-1.2108,0.0,0.0,0.0,0.0,0.0,0.0,0.0,0.0,0.0,0.0,0.0,0.0,0.0,0.0,0.0,0.0,0.0,0.0,0.0,0.0,0.0,0.0,0.0,0.0,0.0,0.0,0.0,0.0,0.0,0.0,0.0,0.0,0.0,0.0,0.0,0.0,0.0,0.0,0.0,0.0,0.0,0.0,0.0,0.0,0.0,0.0,0.0,0.0,0.0,0.0,0.0,0.0,0.0,0.0,0.0,0.0,0.0,0.0,0.0,0.0,0.0,0.0,0.0,0.0,0.0,0.0,0.0,0.0,0.0,0.0,0.0,0.0,0.0,0.0,0.0,0.0,0.0,0.0,0.0,0.0,0.0,0.0,0.0,0.0,0.0,0.0,0.0,0.0,0.0,0.0,0.0,0.0,0.0,0.0,0.0,0.0,0.0,0.0,0.0,0.0,0.0,0.0,0.0,0.0,0.0,0.0,0.0,0.0,-1.3654,-1.3132,-1.2854,-1.2834,-1.2508,-1.2189,0.0,0.0,0.0,0.0,0.0,0.0,0.0,0.0,0.0,0.0,0.0,0.0,0.0,0.0,0.0,0.0,0.0,0.0,0.0,0.0,0.0,0.0,0.0,0.0,0.0,0.0,0.0,0.0,0.0,0.0,0.0,0.0,0.0,0.0,0.0,0.0,0.0,0.0,0.0,0.0,0.0,0.0,0.0,0.0,0.0,0.0,0.0,0.0,0.0,0.0,0.0,0.0,0.0,0.0,0.0,0.0,0.0,0.0,0.0,0.0,0.0,0.0,0.0,0.0,0.0,0.0,0.0,0.0,0.0,0.0,0.0,0.0,0.0,0.0,0.0,0.0,0.0,0.0,0.0,0.0,0.0,0.0,0.0,0.0,0.0,0.0,0.0,0.0,0.0,0.0,0.0,0.0,0.0,0.0,0.0,0.0,0.0,0.0,0.0,0.0,0.0,0.0,0.0,0.0,0.0,0.0,0.0,0.0,0.0,-1.3939,-1.4231,-1.4231,-1.3892,-1.3173,-1.2691,0.0,0.0,0.0,0.0,0.0,0.0,0.0,0.0,0.0,0.0,0.0,0.0,0.0,0.0,0.0,0.0,0.0,0.0,0.0,0.0,0.0,0.0,0.0,0.0,0.0,0.0,0.0,0.0,0.0,0.0,0.0,0.0,0.0,0.0,0.0,0.0,0.0,0.0,0.0,0.0,0.0,0.0,0.0,0.0,0.0,0.0,0.0,0.0,0.0,0.0,0.0,0.0,0.0,0.0,0.0,0.0,0.0,0.0,0.0,0.0,0.0,0.0,0.0,0.0,0.0,0.0,0.0,0.0,0.0,0.0,0.0,0.0,0.0,0.0,0.0,0.0,0.0,0.0,0.0,0.0,0.0,0.0,0.0,0.0,0.0,0.0,0.0,0.0,0.0,0.0,0.0,0.0,0.0,0.0,0.0,0.0,0.0,0.0,0.0,0.0,0.0,0.0,0.0,0.0,0.0,0.0,0.0,0.0,-1.3878,-1.4346,-1.4997,-1.5215,-1.4964,-1.4211,-1.3464,0.0,0.0,0.0,0.0,0.0,0.0,0.0,0.0,0.0,0.0,0.0,0.0,0.0,0.0,0.0,0.0,0.0,0.0,0.0,0.0,0.0,0.0,0.0,0.0,0.0,0.0,0.0,0.0,0.0,0.0,0.0,0.0,0.0,0.0,0.0,0.0,0.0,0.0,0.0,0.0,0.0,0.0,0.0,0.0,0.0,0.0,0.0,0.0,0.0,0.0,0.0,0.0,0.0,0.0,0.0,0.0,0.0,0.0,0.0,0.0,0.0,0.0,0.0,0.0,0.0,0.0,0.0,0.0,0.0,0.0,0.0,0.0,0.0,0.0,0.0,0.0,0.0,0.0,0.0,0.0,0.0,0.0,0.0,0.0,0.0,0.0,0.0,0.0,0.0,0.0,0.0,0.0,0.0,0.0,0.0,0.0,0.0,0.0,0.0,0.0,0.0,0.0,0.0,0.0,0.0,0.0,0.0,0.0,-1.4455,-1.478,-1.5527,-1.5913,-1.5879,-1.5255,-1.4245,0.0,0.0,0.0,0.0,0.0,0.0,0.0,0.0,0.0,0.0,0.0,0.0,0.0,0.0,0.0,0.0,0.0,0.0,0.0,0.0,0.0,0.0,0.0,0.0,0.0,0.0,0.0,0.0,0.0,0.0,0.0,0.0,0.0,0.0,0.0,0.0,0.0,0.0,0.0,0.0,0.0,0.0,0.0,0.0,0.0,0.0,0.0,0.0,0.0,0.0,0.0,0.0,0.0,0.0,0.0,0.0,0.0,0.0,0.0,0.0,0.0,0.0,0.0,0.0,0.0,0.0,0.0,0.0,0.0,0.0,0.0,0.0,0.0,0.0,0.0,0.0,0.0,0.0,0.0,0.0,0.0,0.0,0.0,0.0,0.0,0.0,0.0,0.0,0.0,0.0,0.0,0.0,0.0,0.0,0.0,0.0,0.0,0.0,0.0,0.0,0.0,0.0,0.0,0.0,0.0,0.0,0.0,0.0,-1.4557,-1.5086,-1.5934,-1.6327,-1.6212,-1.5065,-1.4075,0.0,0.0,0.0,0.0,0.0,0.0,0.0,0.0,0.0,0.0,0.0,0.0,0.0,0.0,0.0,0.0,0.0,0.0,0.0,0.0,0.0,0.0,0.0,0.0,0.0,0.0,0.0,0.0,0.0,0.0,0.0,0.0,0.0,0.0,0.0,0.0,0.0,0.0,0.0,0.0,0.0,0.0,0.0,0.0,0.0,0.0,0.0,0.0,0.0,0.0,0.0,0.0,0.0,0.0,0.0,0.0,0.0,0.0,0.0,0.0,0.0,0.0,0.0,0.0,0.0,0.0,0.0,0.0,0.0,0.0,0.0,0.0,0.0,0.0,0.0,0.0,0.0,0.0,0.0,0.0,0.0,0.0,0.0,0.0,0.0,0.0,0.0,0.0,0.0,0.0,0.0,0.0,0.0,0.0,0.0,0.0,0.0,0.0,0.0,0.0,0.0,0.0,0.0,0.0,0.0,0.0,0.0,0.0,-1.4584,-1.5181,-1.5995,-1.6354,-1.6171,-1.5174,-1.4299,0.0,0.0,0.0,0.0,0.0,0.0,0.0,0.0,0.0,0.0,0.0,0.0,0.0,0.0,0.0,0.0,0.0,0.0,0.0,0.0,0.0,0.0,0.0,0.0,0.0,0.0,0.0,0.0,0.0,0.0,0.0,0.0,0.0,0.0,0.0,0.0,0.0,0.0,0.0,0.0,0.0,0.0,0.0,0.0,0.0,0.0,0.0,0.0,0.0,0.0,0.0,0.0,0.0,0.0,0.0,0.0,0.0,0.0,0.0,0.0,0.0,0.0,0.0,0.0,0.0,0.0,0.0,0.0,0.0,0.0,0.0,0.0,0.0,0.0,0.0,0.0,0.0,0.0,0.0,0.0,0.0,0.0,0.0,0.0,0.0,0.0,0.0,0.0,0.0,0.0,0.0,0.0,0.0,0.0,0.0,0.0,0.0,0.0,0.0,0.0,0.0,0.0,0.0,0.0,0.0,0.0,0.0,-1.3961,-1.4597,-1.5215,-1.5934,-1.6239,-1.6076,-1.5404,-1.4672,-1.3912,0.0,0.0,0.0,0.0,0.0,0.0,0.0,0.0,0.0,0.0,0.0,0.0,0.0,0.0,0.0,0.0,0.0,0.0,0.0,0.0,0.0,0.0,0.0,0.0,0.0,0.0,0.0,0.0,0.0,0.0,0.0,0.0,0.0,0.0,0.0,0.0,0.0,0.0,0.0,0.0,0.0,0.0,0.0,0.0,0.0,0.0,0.0,0.0,0.0,0.0,0.0,0.0,0.0,0.0,0.0,0.0,0.0,0.0,0.0,0.0,0.0,0.0,0.0,0.0,0.0,0.0,0.0,0.0,0.0,0.0,0.0,0.0,0.0,0.0,0.0,0.0,0.0,0.0,0.0,0.0,0.0,0.0,0.0,0.0,0.0,0.0,0.0,0.0,0.0,0.0,0.0,0.0,0.0,0.0,0.0,0.0,0.0,0.0,0.0,0.0,0.0,0.0,0.0,0.0,0.0,-1.5409,-1.465,-1.4652,-1.5364,-1.5988,-1.6232,-1.6076,-1.5601,-1.493,-1.4068,0.0,0.0,0.0,0.0,0.0,0.0,0.0,0.0,0.0,0.0,0.0,0.0,0.0,0.0,0.0,0.0,0.0,0.0,0.0,0.0,0.0,0.0,0.0,0.0,0.0,0.0,0.0,0.0,0.0,0.0,0.0,0.0,0.0,0.0,0.0,0.0,0.0,0.0,0.0,0.0,0.0,0.0,0.0,0.0,0.0,0.0,0.0,0.0,0.0,0.0,0.0,0.0,0.0,0.0,0.0,0.0,0.0,0.0,0.0,0.0,0.0,0.0,0.0,0.0,0.0,0.0,0.0,0.0,0.0,0.0,0.0,0.0,0.0,0.0,0.0,0.0,0.0,0.0,0.0,0.0,0.0,0.0,0.0,0.0,0.0,0.0,0.0,0.0,0.0,0.0,0.0,0.0,0.0,0.0,0.0,0.0,0.0,0.0,0.0,0.0,0.0,0.0,0.0,0.0,0.0,-1.6439,-1.616,-1.631,-1.7045,-1.6307,-1.5852,-1.5622,-1.5255,-1.4713,0.0,0.0,0.0,0.0,0.0,0.0,0.0,0.0,0.0,0.0,0.0,0.0,0.0,0.0,0.0,0.0,0.0,0.0,0.0,0.0,0.0,0.0,0.0,0.0,0.0,0.0,0.0,0.0,0.0,0.0,0.0,0.0,0.0,0.0,0.0,0.0,0.0,0.0,0.0,0.0,0.0,0.0,0.0,0.0,0.0,0.0,0.0,0.0,0.0,0.0,0.0,0.0,0.0,0.0,0.0,0.0,0.0,0.0,0.0,0.0,0.0,0.0,0.0,0.0,0.0,0.0,0.0,0.0,0.0,0.0,0.0,0.0,0.0,0.0,0.0,0.0,0.0,0.0,0.0,0.0,0.0,0.0,0.0,0.0,0.0,0.0,0.0,0.0,0.0,0.0,0.0,0.0,0.0,0.0,0.0,0.0,0.0,0.0,0.0,0.0,0.0,0.0,0.0,0.0,0.0,0.0,-1.676,-1.6743,-1.7169,-1.7829,-1.6328,-1.5418,-1.5147,-1.4848,-1.4428,0.0,0.0,0.0,0.0,0.0,0.0,0.0,0.0,0.0,0.0,0.0,0.0,0.0,0.0,0.0,0.0,0.0,0.0,0.0,0.0,0.0,0.0,0.0,0.0,0.0,0.0,0.0,0.0,0.0,0.0,0.0,0.0,0.0,0.0,0.0,0.0,0.0,0.0,0.0,0.0,0.0,0.0,0.0,0.0,0.0,0.0,0.0,0.0,0.0,0.0,0.0,0.0,0.0,0.0,0.0,0.0,0.0,0.0,0.0,0.0,0.0,0.0,0.0,0.0,0.0,0.0,0.0,0.0,0.0,0.0,0.0,0.0,0.0,0.0,0.0,0.0,0.0,0.0,0.0,0.0,0.0,0.0,0.0,0.0,0.0,0.0,0.0,0.0,0.0,0.0,0.0,0.0,0.0,0.0,0.0,0.0,0.0,0.0,0.0,0.0,0.0,0.0,0.0,0.0,0.0,0.0,-1.6015,-1.5053,-1.4673,-1.5139,-1.5265,-1.5153,-1.4997,-1.4699,-1.4319,0.0,0.0,0.0,0.0,0.0,0.0,0.0,0.0,0.0,0.0,0.0,0.0,0.0,0.0,0.0,0.0,0.0,0.0,0.0,0.0,0.0,0.0,0.0,0.0,0.0,0.0,0.0,0.0,0.0,0.0,0.0,0.0,0.0,0.0,0.0,0.0,0.0,0.0,0.0,0.0,0.0,0.0,0.0,0.0,0.0,0.0,0.0,0.0,0.0,0.0,0.0,0.0,0.0,0.0,0.0,0.0,0.0,0.0,0.0,0.0,0.0,0.0,0.0,0.0,0.0,0.0,0.0,0.0,0.0,0.0,0.0,0.0,0.0,0.0,0.0,0.0,0.0,0.0,0.0,0.0,0.0,0.0,0.0,0.0,0.0,0.0,0.0,0.0,0.0,0.0,0.0,0.0,0.0,0.0,0.0,0.0,0.0,0.0,0.0,0.0,0.0,0.0,0.0,0.0,0.0,-1.8122,-1.8161,-1.6749,-1.6156,-1.6556,-1.5455,-1.4862,-1.4713,-1.4502,-1.4217,0.0,0.0,0.0,0.0,0.0,0.0,0.0,0.0,0.0,0.0,0.0,0.0,0.0,0.0,0.0,0.0,0.0,0.0,0.0,0.0,0.0,0.0,0.0,0.0,0.0,0.0,0.0,0.0,0.0,0.0,0.0,0.0,0.0,0.0,0.0,0.0,0.0,0.0,0.0,0.0,0.0,0.0,0.0,0.0,0.0,0.0,0.0,0.0,0.0,0.0,0.0,0.0,0.0,0.0,0.0,0.0,0.0,0.0,0.0,0.0,0.0,0.0,0.0,0.0,0.0,0.0,0.0,0.0,0.0,0.0,0.0,0.0,0.0,0.0,0.0,0.0,0.0,0.0,0.0,0.0,0.0,0.0,0.0,0.0,0.0,0.0,0.0,0.0,0.0,0.0,0.0,0.0,0.0,0.0,0.0,0.0,0.0,0.0,0.0,0.0,0.0,0.0,0.0,0.0,0.0,0.0,-1.9095,-1.7913,-1.7421,-1.7869,-1.5718,-1.4577,-1.4462,-1.4319,0.0,0.0,0.0,0.0,0.0,0.0,0.0,0.0,0.0,0.0,0.0,0.0,0.0,0.0,0.0,0.0,0.0,0.0,0.0,0.0,0.0,0.0,0.0,0.0,0.0,0.0,0.0,0.0,0.0,0.0,0.0,0.0,0.0,0.0,0.0,0.0,0.0,0.0,0.0,0.0,0.0,0.0,0.0,0.0,0.0,0.0,0.0,0.0,0.0,0.0,0.0,0.0777,0.0,0.0,0.0,0.0,0.0,0.0,0.0,0.0,0.0,0.0,0.0,0.0,0.0,0.0,0.0,0.0,0.0,0.0,0.0,0.0,0.0,0.0,0.0,0.0,0.0,0.0,0.0,0.0,0.0,0.0,0.0,0.0,0.0,0.0,0.0,0.0,0.0,0.0,0.0,0.0,0.0,0.0,0.0,0.0,0.0,0.0,0.0,0.0,0.0,0.0,0.0,0.0,0.0,0.0,-1.6764,-1.7065,-1.7128,-1.7331,-1.7676,-1.5543,-1.4326,-1.4312,-1.417,-1.4082,0.0,0.0,0.0,0.0,0.0,0.0,0.0,0.0,0.0,0.0,0.0,0.0,0.0,0.0,0.0,0.0,0.0,0.0,0.0,0.0,0.0,0.0,0.0,0.0,0.0,0.0,0.0,0.0,0.0,0.0,0.0,0.0,0.0,0.0,0.0,0.0,0.0,0.0,0.0,0.0,0.0,0.0,0.0,0.0,0.0,0.0,0.0,0.0,0.0,0.0,0.0822,0.3192,0.0,0.0,0.0,0.0,0.0,0.0,0.0,0.0,0.0,0.0,0.0,0.0,0.0,0.0,0.0,0.0,0.0,0.0,0.0,0.0,0.0,0.0,0.0,0.0,0.0,0.0,0.0,0.0,0.0,0.0,0.0,0.0,0.0,0.0,0.0,0.0,0.0,0.0,0.0,0.0,0.0,0.0,0.0,0.0,0.0,0.0,0.0,0.0,0.0,0.0,0.0,0.0,0.0,-1.7656,-1.6742,-1.5771,-1.5372,-1.5587,-1.4734,-1.4299,-1.4299,-1.4245,-1.417,0.0,0.0,0.0,0.0,0.0,0.0,0.0,0.0,0.0,0.0,0.0,0.0,0.0,0.0,0.0,0.0,0.0,0.0,0.0,0.0,0.0,0.0,0.0,0.0,0.0,0.0,0.0,0.0,0.0,0.0,0.0,0.0,0.0,0.0,0.0,0.0,0.0,0.0,0.0,0.0,0.0,0.0,0.0,0.0,0.0,0.0,0.0,0.0,0.0,0.0,0.0798,0.3223,0.4382,0.0,0.0,0.0,0.0,0.0,0.0,0.0,0.0,0.0,0.0,0.0,0.0,0.0,0.0,0.0,0.0,0.0,0.0,0.0,0.0,0.0,0.0,0.0,0.0,0.0,0.0,0.0,0.0,0.0,0.0,0.0,0.0,0.0,0.0,0.0,0.0,0.0,0.0,0.0,0.0,0.0,0.0,0.0,0.0,0.0,0.0,0.0,0.0,0.0,0.0,0.0,0.0,-1.8817,-1.7749,-1.5949,-1.5177,-1.5337,-1.4646,-1.4299,-1.4299,-1.4299,-1.4251,0.0,0.0,0.0,0.0,0.0,0.0,0.0,0.0,0.0,0.0,0.0,0.0,0.0,0.0,0.0,0.0,0.0,0.0,0.0,0.0,0.0,0.0,0.0,0.0,0.0,0.0,0.0,0.0,0.0,0.0,0.0,0.0,0.0,0.0,0.0,0.0,0.0,0.0,0.0,0.0,0.0,0.0,0.0,0.0,0.0,0.0,0.0,0.0,0.0,0.0,0.0582,0.2272,0.0,0.0,0.0,0.0,0.0,0.0,0.0,0.0,0.0,0.0,0.0,0.0,0.0,0.0,0.0,0.0,0.0,0.0,0.0,0.0,0.0,0.0,0.0,0.0,0.0,0.0,0.0,0.0,0.0,0.0,-2.6012,0.0,0.0,0.0,0.0,0.0,0.0,0.0,0.0,0.0,0.0,0.0,0.0,0.0,0.0,0.0,0.0,0.0,0.0,0.0,0.0,0.0,0.0,-1.9715,-2.0148,-1.8063,-1.7318,-1.758,-1.5513,-1.4299,-1.4299,-1.4299,-1.4299,-1.4292,0.0,0.0,0.0,0.0,0.0,0.0,0.0,0.0,0.0,0.0,0.0,0.0,0.0,0.0,0.0,0.0,0.0,0.0,0.0,0.0,0.0,0.0,0.0,0.0,0.0,0.0,0.0,0.0,0.0,0.0,0.0,0.0,0.0,0.0,0.0,0.0,0.0,0.0,0.0,0.0,0.0,0.0,0.0,0.0,0.0,0.0,0.0,0.0,0.0,0.0,0.0,0.0,0.0,0.0,0.0,0.0,0.0,0.0,0.0,0.0,0.0,0.0,0.0,0.0,0.0,0.0,0.0,0.0,0.0,0.0,0.0,0.0,0.0,0.0,0.0,0.0,0.0,-2.6346,-2.652,0.0,0.0,0.0,0.0,0.0,0.0,0.0,0.0,0.0,0.0,0.0,-2.7926,-2.7939,0.0,0.0,0.0,0.0,0.0,0.0,0.0,0.0,0.0,0.0,0.0,0.0,-1.8587,-1.6201,-1.7054,-1.6919,-1.5513,-1.4734,-1.4299,-1.4299,-1.4299,-1.4299,-1.4299,0.0,0.0,0.0,0.0,0.0,0.0,0.0,0.0,0.0,0.0,0.0,0.0,0.0,0.0,0.0,0.0,0.0,0.0,0.0,0.0,0.0,0.0,0.0,0.0,0.0,0.0,0.0,0.0,0.0,0.0,0.0,0.0,0.0,0.0,0.0,0.0,0.0,0.0,0.0,0.0,0.0,0.0,0.0,0.0,0.0,0.0,0.0,0.0,0.0,0.0,0.0,0.0,0.0,0.0,0.0,0.0,0.0,0.0,1.4177,1.4021,1.3871,1.3743,1.3648,0.0,0.0,0.0,0.0,0.0,0.0,0.0,0.0,0.0,0.0,0.0,0.0,0.0,0.0,-2.68,0.0,-2.6774,0.0,0.0,0.0,0.0,0.0,0.0,0.0,0.0,-2.7709,-2.7856,-2.8221,-2.8234,-2.8234,0.0,-2.7949,-2.7762,0.0,0.0,0.0,0.0,0.0,0.0,0.0,0.0,-1.8671,-1.6204,-1.6372,-1.5866,-1.4387,-1.4299,-1.4299,-1.4299,-1.4299,-1.4299,-1.4299,-1.4204,-1.415,0.0,0.0,0.0,0.0,0.0,0.0,0.0,0.0,0.0,0.0,0.0,0.0,0.0,0.0,0.0,0.0,0.0,0.0,0.0,0.0,0.0,0.0,0.0,0.0,0.0,0.0,0.0,0.0,0.0,0.0,0.0,0.0,0.0,0.0,0.0,0.0,0.0,0.0,0.0,0.0,0.0,0.0,0.0,0.0,0.0,0.0,0.0,0.0,0.0,0.2866,0.6181,0.9587,1.2782,1.4862,1.4767,0.0,0.0,1.4136,1.3946,1.381,1.3722,1.3817,1.3905,1.3871,1.4055,1.4211,0.0,0.0,0.0,0.0,0.0,0.0,0.0,0.0,-2.7028,-2.7268,0.0,-2.7255,0.0,0.0,0.0,0.0,0.0,-2.7295,0.0,0.0,-2.7722,-2.7869,-2.8221,-2.8234,-2.8234,-2.8234,-2.8221,-2.8221,-2.8181,-2.7658,0.0,0.0,0.0,0.0,0.0,0.0,-1.9947,-1.9829,-1.6388,-1.4387,-1.4299,-1.4299,-1.4299,-1.4299,-1.4299,-1.4299,-1.4299,-1.4299,-1.4299,-1.4299,-1.4292,0.0,0.0,0.0,0.0,0.0,0.0,0.0,0.0,0.0,0.0,0.0,0.0,0.0,0.0,0.0,0.0,0.0,0.0,0.0,0.0,0.0,0.0,0.0,0.0,0.0,0.0,0.0,0.0,0.0,0.0,0.0,0.0,0.0,0.0,0.0,0.0,0.0,0.0,0.0,0.0,0.0,0.0,0.0,0.0,0.0,0.0,0.0,0.0,0.0,1.4335,1.5194,1.5194,1.5194,1.5174,1.4964,1.4265,1.4034,1.3912,1.3905,1.4034,1.415,1.4292,1.4441,1.4584,-2.6587,0.0,0.0,0.0,0.0,-2.6774,-2.7014,-2.7041,-2.7415,-2.7575,-2.7562,-2.7348,0.0,0.0,0.0,0.0,0.0,0.0,-2.802,-2.81,-2.81,-2.814,-2.8234,-2.8234,-2.8234,-2.8234,-2.8234,-2.8234,-2.8221,-2.806,-2.7779,-2.724,0.0,0.0,0.0,0.0,-1.7443,-1.5972,-1.6435,-1.5946,-1.4299,-1.4299,-1.4299,-1.4299,-1.4299,-1.4299,-1.4299,-1.4299,-1.4299,-1.4299,-1.4299,0.0,0.0,0.0,0.0,0.0,0.0,0.0,0.0,0.0,0.0,0.0,0.0,0.0,0.0,0.0,0.0,0.0,0.0,0.0,0.0,0.0,0.0,0.0,0.0,0.0,0.0,0.0,0.0,0.0,0.0,0.0,0.0,0.0,0.0,0.0,0.0,0.0,0.0,0.0,0.0,0.0,0.0,0.0,0.0,0.0,0.0,0.0,0.4305,0.9419,1.4616,1.5513,1.5506,1.5506,1.5418,1.5269,1.5079,1.4821,1.4658,1.4652,1.4685,1.4726,1.4774,1.4889,1.5004,-2.7215,-2.648,-2.6667,-2.6734,-2.6774,-2.7241,-2.7442,-2.7455,-2.7749,-2.7869,-2.7869,-2.7682,-2.7615,-2.7698,-2.7615,0.0,0.0,0.0,-2.8234,-2.8234,-2.8234,-2.8234,-2.8234,-2.8234,-2.8234,-2.8234,-2.8234,-2.8234,-2.8234,-2.8234,-2.7622,-2.6503,0.0,0.0,-2.1817,-1.9854,-1.7656,-1.553,-1.603,-1.5682,-1.4387,-1.4299,-1.4299,-1.4299,-1.4299,-1.4299,-1.4299,-1.4299,-1.4299,-1.4299,-1.4299,-1.4299,0.0,0.0,0.0,0.0,0.0,0.0,0.0,0.0,0.0,0.0,0.0,-0.8029,-0.7013,0.0,0.0,0.0,0.0,0.0,0.0,0.0,0.0,0.0,0.0,0.0,0.0,0.0,0.0,0.0,0.0,0.0,0.0,0.0,0.0,0.0,0.0,0.0,0.0,0.0,0.0,0.0,0.0,0.0,0.0,0.0,0.0395,0.1465,0.4983,0.922,1.3315,1.5022,1.5811,1.5805,1.5737,1.5676,1.5676,1.5527,1.5323,1.5106,1.5106,1.5181,1.5289,1.5438,1.5554,-2.7629,-2.7335,-2.7335,-2.739,-2.7295,-2.7575,-2.7696,-2.7722,-2.8016,-2.8234,-2.8234,-2.8234,-2.8234,-2.8221,-2.8234,0.0,-2.8234,-2.8234,-2.8234,-2.8234,-2.8234,-2.8234,-2.8234,-2.8234,-2.8234,-2.8234,-2.8234,-2.8234,-2.8136,-2.7968,-2.6842,-2.4764,-2.6323,-2.5903,-2.3333,-2.125,-1.921,-1.7079,-1.5264,-1.4299,-1.4299,-1.4299,-1.4299,-1.4299,-1.4299,-1.4299,-1.4299,-1.4299,-1.4299,-1.4299,-1.4299,-1.4299,-1.4299,0.0,0.0,0.0,0.0,0.0,0.0,0.0,0.0,0.0,0.0,0.0,0.0,0.0,0.0,-0.018,0.0,0.0,0.0,0.0,0.0,0.0,0.0,0.0,0.0,0.0,0.0,0.0,0.0,0.0,0.0,0.0,0.0,0.0,0.0,0.0,0.0,0.0,0.0,0.0,0.0,0.0,0.0,0.0,0.0,0.3297,0.6017,0.8499,1.1192,1.3498,1.5228,1.5506,1.5738,1.5823,1.6035,1.5995,1.5893,1.5343,1.5371,1.5554,1.5784,1.594,1.6056,-2.8417,-2.802,-2.802,-2.7752,-2.7295,-2.7575,-2.7709,-2.7722,-2.8016,-2.8234,-2.8234,-2.8234,-2.8234,-2.8234,-2.8234,-2.8234,-2.8234,-2.8234,-2.8234,-2.8234,-2.8234,-2.8234,-2.8234,-2.8234,-2.8234,-2.8234,-2.8234,-2.8234,-2.8136,-2.6418,-2.5288,-2.4691,-2.3414,-2.1539,-1.9263,-1.699,-1.5542,-1.5023,-1.4543,-1.4299,-1.4299,-1.4299,-1.4299,-1.4299,-1.4299,-1.4299,-1.4299,-1.4299,-1.4299,-1.4299,-1.4299,-1.4299,-1.4299,-1.4299,0.0,0.0,0.0,0.0,0.0,0.0,0.0,0.0,0.0,-0.5097,-0.4472,0.0,-0.0628,0.0,0.0,0.0,0.0,0.0,0.0,0.0,0.0,0.0,0.0,0.0,0.0,0.0,0.0,0.0,0.0,0.0,0.0,0.0,0.0,0.0,0.0,0.0,0.0,0.0,0.0,0.0,0.0,0.0,0.0889,0.3517,0.4608,0.5907,0.8554,0.9436,1.0517,1.2287,1.2781,1.3573,1.5354,1.5825,1.5859,1.5737,1.5818,1.594,1.6015,1.6056,1.6096,-2.8577,-2.8234,-2.8234,-2.8033,-2.7669,-2.7829,-2.7896,-2.7909,-2.807,-2.8234,-2.8234,-2.8234,-2.8234,-2.8234,-2.8234,-2.8234,-2.8234,-2.8234,-2.8234,-2.8234,-2.8234,-2.8234,-2.8234,-2.8234,-2.8234,-2.8234,-2.8234,-2.8234,-2.8052,-2.5811,-2.4166,-2.3126,-2.0789,-1.854,-1.629,-1.5946,-1.5344,-1.4299,-1.4299,-1.4299,-1.4299,-1.4299,-1.4299,-1.4299,-1.4299,-1.4299,-1.4299,-1.4299,-1.4299,-1.4299,-1.4231,-1.4231,-1.4292,-1.4238,-1.4231,0.0,0.0,0.0,0.0,0.0,0.0,0.0,0.0,0.0,0.0,0.0,0.0,0.0,0.0,0.0,0.0,0.0,0.0,0.0,0.0,0.0,0.0,0.0,0.0,0.0,0.0,0.0,0.0,0.0,0.0,0.0,0.0,0.0,0.0,0.0,0.0,0.0,0.0,0.0,0.0,0.0,0.0484,0.1924,0.318,0.454,0.5985,0.7237,0.8488,0.9837,1.0989,1.2165,1.3674,1.4906,1.5669,1.575,1.5825,1.5954,1.6144,1.6185,1.6185,-2.8672,-2.8234,-2.8234,-2.8234,-2.8234,-2.8234,-2.8234,-2.8234,-2.8234,-2.8234,-2.8234,-2.8234,-2.8234,-2.8234,-2.8234,-2.8234,-2.8234,-2.8234,-2.8234,-2.8234,-2.8234,-2.8234,-2.8234,-2.8234,-2.8234,-2.8234,-2.8234,-2.8234,-2.8136,-2.5543,-2.3212,-2.1135,-1.8627,-1.629,-1.4476,-1.629,-1.6378,-1.4387,-1.4299,-1.4299,-1.4299,-1.4299,-1.4299,-1.4299,-1.4299,-1.4299,-1.4299,-1.4299,-1.4299,-1.4292,-1.417,-1.4163,-1.4292,-1.417,-1.4163,0.0,-1.2059,0.0,0.0,0.0,0.0,0.0,0.0,0.0,0.0,-0.1166,0.0,0.0,0.0,0.0,0.0,0.0,0.0,0.0,0.0,0.0,0.0,0.0,0.0,0.0,0.0,0.0,0.0,0.0,0.0,0.0,0.0,0.0,0.0,0.0,0.0,0.0,0.0,0.0,0.0,0.0,0.0,0.0,0.1801,0.3411,0.3412,0.5301,0.7002,0.7568,0.9355,1.1082,1.1567,1.3697,1.5302,1.5506,1.5554,1.571,1.6062,1.6171,1.6225,-3.0057,-2.8234,-2.8234,-2.8234,-2.8234,-2.8234,-2.8234,-2.8234,-2.8234,-2.8234,-2.8234,-2.8234,-2.8234,-2.8234,-2.8234,-2.8234,-2.8234,-2.8234,-2.8234,-2.8234,-2.8234,-2.8234,-2.8234,-2.8234,-2.8234,-2.8234,-2.8234,-2.8234,-2.8136,-2.3898,-2.1653,-2.1135,-1.6984,-1.4734,-1.4387,0.0,0.0,0.0,-1.4299,-1.4299,-1.4299,-1.4299,-1.4299,-1.4299,-1.4299,0.0,-1.4299,-1.4299,-1.4299,-1.4299,-1.4272,0.0,0.0,0.0,0.0,0.0,0.0,0.0,0.0,0.0,0.0,0.0,-0.3313,-0.2776,-0.0897,-0.0269,0.0,0.0,0.0,0.0,0.0,0.0,0.0,0.0,0.0,0.0,0.0,0.0,0.0,0.0,0.0,0.0,0.0,0.0,0.0,0.0,0.0,0.0,0.0,0.0,0.0,0.0,0.0,0.0,0.0,0.0,0.0,0.0,0.0278,0.0,0.0,0.0,0.0,0.4178,0.658,0.8985,1.0869,1.3369,1.5065,1.5092,1.5194,1.5371,1.5696,1.5764,1.5764,-2.9409,0.0,-2.8234,-2.8234,0.0,-2.8234,-2.8234,-2.8234,-2.8234,-2.8234,-2.8234,-2.8234,-2.8234,-2.8234,-2.8234,-2.8234,-2.8234,-2.8234,-2.8234,-2.8234,-2.8234,-2.8234,-2.8234,-2.8234,-2.8234,-2.8234,-2.8234,-2.763,-2.6321,-2.2955,-2.0616,-1.9488,-1.6034,-1.4299,-1.4299,-1.4299,-1.4299,-1.4299,-1.4299,-1.4299,-1.4299,-1.4299,-1.4299,-1.4299,-1.4299,0.0,0.0,0.0,0.0,0.0,0.0,0.0,0.0,0.0,0.0,-1.4292,-1.3135,-1.1965,-1.0806,-0.9557,-0.7859,-0.5544,-0.4293,-0.2598,-0.018,0.0,0.0,0.0,0.0,0.0,0.0,0.0,0.0,0.0,0.0,0.0,0.0,0.0,0.0,0.0,0.0,0.0,0.0,0.0,0.0,0.0,0.0,0.0,0.0,0.0,0.0,0.0,0.0,0.0,0.0,0.0,0.0,0.0,0.0,0.0,0.0,0.0,0.0456,0.1912,0.4814,0.7812,0.9226,1.221,1.4767,1.4841,1.4916,1.5004,1.5181,1.5309,1.5411,-2.8788,-2.8234,-2.8234,-2.8234,-2.8234,-2.8234,-2.8234,-2.8234,0.0,0.0,0.0,-2.8234,-2.8234,-2.8234,-2.8234,-2.8234,-2.8234,-2.8234,-2.8234,-2.8234,-2.8234,-2.8234,-2.8234,-2.8234,-2.8234,-2.8136,-2.7786,-2.6588,-2.4605,-2.1911,-1.9662,-1.7763,-1.5425,-1.4299,-1.4299,-1.4299,-1.4299,-1.4299,-1.4299,-1.4299,-1.4299,-1.4299,-1.4299,-1.4299,-1.4299,-1.4299,-1.4299,-1.4299,-1.4299,-1.4299,-1.4177,-1.417,-1.4285,-1.4177,-1.417,-1.4285,-1.4299,-1.3401,-1.1522,-1.1344,-1.0268,-0.7862,-0.5544,-0.3045,0.0,0.0,0.0,0.0,0.0,0.0,0.0,0.0,0.0,0.0,0.0,0.0,0.0,0.0,0.0,0.0,0.0,0.0,0.0,0.0,0.0,0.0,0.0,0.0,0.0,0.0,0.0,0.0,0.0,0.0,0.0,0.0,0.0,0.0,0.0,0.0,0.0,0.0,0.0,0.0,0.0,0.6729,0.7678,1.131,1.4336,1.4638,1.4658,1.4665,1.4685,1.4848,1.5025,-2.99,-2.8234,-2.8234,-2.8234,-2.8234,-2.8234,-2.8234,-2.8234,-2.8234,-2.8234,-2.8234,-2.8234,-2.8234,-2.8234,-2.8234,-2.8234,-2.8234,-2.8234,-2.8234,0.0,-2.8234,-2.8234,-2.8234,-2.8234,-2.8234,-2.8052,-2.6151,-2.5032,-2.4252,-2.0356,-1.8113,-1.7501,-1.5425,-1.4299,-1.4299,-1.4299,-1.4299,-1.4299,-1.4299,-1.4299,-1.4299,-1.4299,-1.4299,-1.4299,-1.4299,-1.4299,-1.4299,-1.4299,-1.4299,-1.4299,-1.4278,-1.4278,-1.4299,-1.4278,-1.4278,-1.4299,-1.4299,-1.4122,-1.385,-1.3761,-1.2774,-1.0357,-0.7948,-0.474,0.0,0.0,0.0,0.0,0.0,0.0,0.0,0.0,0.0,0.0,0.0,0.0,0.0,0.0,0.0,0.0,0.0,0.0,0.0,0.0,0.0,0.0,0.0,0.0,0.0,0.0,0.0,0.0,0.0,0.0,0.0,0.0,0.0,0.0,0.0,0.0,0.0,0.0,0.0,0.0,0.0,0.6707,0.7252,1.101,1.3794,1.4367,1.4367,1.4373,1.438,1.4434,1.4523,-2.9118,-2.8221,-2.8234,-2.8234,-2.8234,-2.8234,-2.8234,-2.8234,-2.8234,-2.8234,-2.8234,-2.8234,-2.8234,-2.8234,-2.8234,-2.8234,-2.8234,-2.8234,-2.8234,-2.8234,-2.8234,-2.8234,-2.8234,-2.8234,-2.7545,-2.6321,-2.5203,-2.3384,-2.0962,-1.8802,-1.7159,-1.5946,-1.4822,-1.4299,-1.4299,-1.4299,-1.4299,-1.4299,-1.4299,-1.4299,-1.4299,-1.4299,-1.4299,-1.4299,-1.4299,-1.4299,-1.4299,-1.4299,-1.4299,-1.4299,-1.4299,-1.4299,-1.4299,-1.4299,-1.4299,-1.4299,-1.4299,-1.4299,-1.4299,-1.4299,-1.3224,-1.0895,-0.8486,-0.5633,-0.224,-0.1971,-0.1434,0.0,0.0,0.0,0.0,0.0,0.0,0.0,0.0,0.0,0.0,0.0,0.0,0.0,0.0,0.0,0.0,0.0,0.0,0.0,0.0,0.0,0.0,0.0,0.0,0.0,0.0,0.0,0.0,0.0,0.0,0.0,0.0,0.0,0.0,0.0,0.0,0.0,0.3846,0.6685,0.7098,1.089,1.3523,1.4068,1.4129,1.4163,1.4177,1.4177,1.4258,-2.8234,-2.8234,-2.8234,-2.8234,-2.8234,-2.8234,-2.8234,-2.8234,-2.8234,-2.8234,-2.8234,-2.8234,-2.8234,-2.8234,-2.8234,-2.8234,-2.8234,-2.8234,-2.8234,-2.8234,-2.8234,-2.8234,-2.8234,-2.8234,-2.6927,-2.4861,-2.4166,-2.1825,-1.8191,-1.7238,-1.6122,-1.4469,-1.4299,-1.4299,-1.4299,-1.4299,-1.4299,-1.4299,-1.4299,-1.4285,-1.4251,-1.4278,-1.4285,-1.4251,-1.4285,-1.4299,-1.4299,-1.4299,-1.4299,-1.4299,-1.4299,-1.4299,-1.4299,-1.4299,-1.4299,-1.4299,-1.4299,-1.4299,-1.4299,-1.4299,-1.3224,-1.0895,-0.9019,-0.67,-0.4027,-0.358,-0.2597,0.0,0.0,0.0,0.0,0.0,0.0,0.0,0.0,0.0,0.0,0.0,0.0,0.0,0.0,0.0,0.0,0.0,0.0,0.0,0.0,0.0,0.0,0.0,0.0,0.0,0.0,0.0,0.0,0.0,0.0,0.0,0.0,0.0,0.0,0.0,0.0,0.0,0.3826,0.6555,0.729,1.077,1.3454,1.3899,1.396,1.4021,1.4021,1.4021,1.4075,-2.8234,-2.8234,-2.8234,-2.8234,-2.8234,-2.8234,-2.8234,-2.8234,-2.8234,-2.8234,-2.8234,-2.8234,-2.8234,-2.8234,-2.8234,-2.8234,-2.8234,-2.8234,-2.8234,-2.8234,-2.8234,-2.8234,-2.8234,-2.8234,-2.7025,-2.4605,-2.26,-2.0356,-1.7588,-1.569,-1.4564,-1.4299,-1.4299,-1.4299,-1.4299,-1.4299,-1.4299,-1.4299,-1.4299,-1.4231,-1.4109,-1.4224,-1.4238,-1.4095,-1.4231,-1.4299,-1.4299,-1.4299,-1.4299,-1.4299,-1.4299,-1.4299,-1.4299,-1.4299,-1.4299,-1.4299,-1.4299,-1.4299,-1.4299,-1.4299,-1.3224,-1.0984,-1.0362,-0.8219,-0.4116,-0.358,-0.2597,0.0,0.0,0.0,0.0,0.0,0.0,0.0,0.0,0.0,0.0,0.0,0.0,0.0,0.0,0.0,0.0,0.0,0.0,0.0,0.0,0.0,0.0,0.0,0.0,0.0,0.0,0.0,0.0,0.0,0.0,0.0,0.0,0.0,0.0,0.0,0.0,0.0,0.3771,0.6663,0.7826,1.0563,1.3587,1.3804,1.3824,1.3865,1.3865,1.3865,1.3926,-2.8234,-2.8234,-2.8234,-2.8234,-2.8234,-2.8234,-2.8234,-2.8234,-2.8234,-2.8234,-2.8234,-2.8234,-2.8234,-2.8234,-2.8234,-2.8234,-2.8234,-2.8234,-2.8234,-2.8234,-2.8234,-2.8234,-2.8234,-2.8234,-2.6321,-2.2869,-2.1653,-1.9324,-1.6122,-1.4734,-1.4299,-1.4299,-1.4299,-1.4299,-1.4299,-1.4299,-1.4299,-1.4299,-1.4299,-1.4224,-1.4109,-1.4224,-1.4272,-1.4224,-1.4265,-1.4299,-1.4299,-1.4299,-1.4299,-1.4299,-1.4299,-1.4299,-1.4299,-1.4299,-1.4299,-1.4299,-1.4299,-1.4299,-1.4299,-1.4299,-1.3224,-1.0895,-0.938,-0.7146,-0.3938,-0.233,-0.0987,0.0,0.0,0.0,0.0,0.0,0.0,0.0,0.0,0.0,0.0,0.0,0.0,0.0,0.0,0.0,0.0,0.0,0.0,0.0,0.0,0.0,0.0,0.0,0.0,0.0,0.0,0.0,0.0,0.0,0.0,0.0,0.0,0.0,0.0,0.0,0.0,0.0,0.0,0.6592,0.6785,1.0302,1.358,1.3593,1.3682,1.3736,1.3824,1.377,1.3736,-2.8234,-2.8234,-2.8234,-2.8234,-2.8234,-2.8234,-2.8234,-2.8234,-2.8234,-2.8234,-2.8234,-2.8234,-2.8234,-2.8234,-2.8234,-2.8234,-2.8234,-2.8234,-2.8234,-2.8234,-2.8234,-2.8234,-2.8234,-2.8136,-2.6066,-2.26,-2.148,-1.8802,-1.4734,-1.4299,-1.4299,-1.4299,-1.4299,-1.4299,-1.4299,-1.4299,-1.4299,-1.4299,-1.4299,-1.4245,-1.4163,-1.4245,-1.4278,-1.4245,-1.4278,-1.4299,-1.4299,-1.4299,-1.4299,-1.4299,-1.4299,-1.4299,-1.4299,-1.4299,-1.4299,-1.4299,-1.4299,-1.4299,-1.4299,-1.4299,-1.2952,-1.0002,-0.804,-0.5811,-0.3045,-0.0987,0.0,0.0,0.0,0.0,0.0,0.0,0.0,0.0,0.0,0.0,0.0,0.0,0.0,0.0,0.0,0.0,0.0,0.0,0.0,0.0,0.0,0.0,0.0,0.0,0.0,0.0,0.0,0.0,0.0,0.0,0.0,0.0,0.0,0.0,0.0,0.0,0.0,0.0,0.0,0.659,0.7095,1.0039,1.3322,1.3315,1.3376,1.3485,1.3498,1.3485,1.341,-2.8234,-2.8234,-2.8234,-2.8234,-2.8234,-2.8234,-2.8234,-2.8234,-2.8234,-2.8234,-2.8234,-2.8234,-2.8234,-2.8234,-2.8234,-2.8234,-2.8234,-2.8234,-2.8234,-2.8234,-2.8234,-2.8234,-2.8234,-2.8136,-2.6927,-2.4166,-2.2084,-1.8811,-1.4557,-1.4299,-1.4299,-1.4299,-1.4299,-1.4299,-1.4299,-1.4299,-1.4299,-1.4299,-1.4299,-1.4292,-1.4285,-1.4292,-1.4238,-1.4136,-1.4224,-1.4299,-1.4299,-1.4299,-1.4299,-1.4299,-1.4299,-1.4299,-1.4299,-1.4299,-1.4299,-1.4299,-1.4299,-1.4299,-1.4299,-1.4299,-1.2414,-0.8397,-0.7413,-0.5186,-0.1434,-0.0359,0.0,0.0,0.0,0.0,0.0,0.0,0.0,0.0,0.0,0.0,0.0,0.0,0.0,0.0,0.0,0.0,0.0,0.0,0.0,0.0,0.0,0.0,0.0,0.0,0.0,0.0,0.0,0.0,0.0,0.0,0.0,0.0,0.0,0.0,0.0,0.0,0.0,0.0,0.0,0.6492,0.7304,0.9293,1.2206,1.3085,1.3064,1.3112,1.3214,1.3064,1.3017,-2.8234,-2.8234,-2.8234,-2.8234,-2.8234,-2.8234,-2.8234,-2.8234,-2.8234,-2.8234,-2.8234,-2.8234,-2.8234,-2.8234,-2.8234,-2.8234,-2.8234,-2.8234,-2.8234,-2.8234,-2.8234,-2.8234,-2.8234,-2.8234,-2.6927,-2.4691,-2.2256,-1.8802,-1.4734,-1.4299,-1.4299,-1.4299,-1.4299,-1.4299,-1.4299,-1.4299,-1.4299,-1.4299,-1.4299,-1.4299,-1.4299,-1.4299,-1.4272,-1.4224,-1.4272,-1.4299,-1.4299,-1.4299,-1.4299,-1.4299,-1.4299,-1.4299,-1.4299,-1.4299,-1.4299,-1.4299,-1.4299,-1.4299,-1.4299,-1.4299,-1.2952,-0.9824,-0.7951,-0.5809,-0.2776,0.0,0.0,0.0,0.0,0.0,0.0,0.0,0.0,0.0,0.0,0.0,0.0,0.0,0.0,0.0,0.0,0.0,0.0,0.0,0.0,0.0,0.0,0.0,0.0,0.0,0.0,0.0,0.0,0.0,0.0,0.0,0.0,0.0,0.0,0.0,0.0,0.0,0.0,0.0,0.0,0.6263,0.7245,0.9931,1.2401,1.2874,1.2847,1.2888,1.3043,1.2895,1.2861,-2.8234,-2.8234,-2.8234,-2.8234,-2.8234,-2.8234,-2.8234,-2.8234,-2.8234,-2.8234,-2.8234,-2.8234,-2.8234,-2.8234,-2.8234,-2.8234,-2.8234,-2.8234,-2.8234,-2.8234,-2.8234,-2.8234,-2.8052,-2.7448,-2.6236,-2.4337,-2.148,-1.8025,-1.4734,-1.4299,-1.4299,-1.4299,-1.4299,-1.4299,-1.4299,-1.4299,-1.4299,-1.4299,-1.4299,-1.4299,-1.4299,-1.4299,-1.4299,-1.4299,-1.4299,-1.4299,-1.4299,-1.4299,-1.4299,-1.4299,-1.4299,-1.4299,-1.4299,-1.4299,-1.4299,-1.4299,-1.4299,-1.4299,-1.4299,-1.4299,-1.3224,-1.0895,-0.8486,-0.6076,-0.3759,-0.1434,0.0,0.0,0.0,0.0,0.0,0.0,0.0,0.0,0.0,0.0,0.0,0.0,0.0,0.0,0.0,0.0,0.0,0.0,0.0,0.0,0.0,0.0,0.0,0.0,0.0,0.0,0.0,0.0,0.0,0.0,0.0,0.0,0.0,0.0,0.0,0.0,0.0,0.0,0.2504,0.5209,0.7933,1.0667,1.1928,1.2541,1.2684,1.2718,1.2766,1.2793,1.2739,-2.8234,-2.8234,-2.8234,-2.8234,-2.8234,-2.8234,-2.8234,-2.8234,-2.8234,-2.8234,-2.8234,-2.8234,-2.8234,-2.8234,-2.8234,-2.8234,-2.8234,-2.8234,-2.8234,-2.8234,-2.8234,-2.8234,-2.8052,-2.6333,-2.5032,-2.4166,-2.0019,-1.6729,-1.4387,-1.4299,-1.4299,-1.4299,-1.4299,-1.4299,-1.4299,-1.4299,-1.4299,-1.4299,-1.4299,-1.4299,-1.4299,-1.4299,-1.4299,-1.4299,-1.4299,-1.4299,-1.4299,-1.4299,-1.4299,-1.4299,-1.4299,-1.4299,-1.4299,-1.4299,-1.4299,-1.4299,-1.4299,-1.4299,-1.4299,-1.4299,-1.3224,-1.0895,-0.8486,-0.6079,-0.3759,0.0,0.0,0.0,0.0,0.0,0.0,0.0,0.0,0.0,0.0,0.0,0.0,0.0,0.0,0.0,0.0,0.0,0.0,0.0,0.0,0.0,0.0,0.0,0.0,0.0,0.0,0.0,0.0,0.0,0.0,0.0,0.0,0.0,0.0,0.0,0.0,0.0,0.0,0.0,0.0,0.5622,0.9235,1.169,1.2128,1.2589,1.2576,1.2562,1.2556,1.2576,1.2556,-2.8234,-2.8234,-2.8234,-2.8234,-2.8234,-2.8234,-2.8234,-2.8234,-2.8234,-2.8234,-2.8234,-2.8234,-2.8234,-2.8234,-2.8234,-2.8234,-2.8234,-2.8234,-2.8234,-2.8234,-2.8234,-2.8234,-2.8052,-2.7363,-2.5373,-2.2256,-1.9237,-1.6553,-1.4734,-1.4299,-1.4299,-1.4299,-1.4299,-1.4299,-1.4299,-1.4299,-1.4299,-1.4299,-1.4299,-1.4299,-1.4299,-1.4299,-1.4299,-1.4299,-1.4299,-1.4299,-1.4299,-1.4299,-1.4299,-1.4299,-1.4299,-1.4299,-1.4299,-1.4299,-1.4299,-1.4299,-1.4299,-1.4299,-1.4299,-1.421,-1.3224,-1.0895,-0.8486,-0.6079,-0.3759,-0.1434,0.0,0.0,0.0,0.0,0.0,0.0,0.0,0.0,0.0,0.0,0.0,0.0,0.0,0.0,0.0,0.0,0.0,0.0,0.0,0.0,0.0,0.0,0.0,0.0,0.0,0.0,0.0,0.0,0.0,0.0,0.0,0.0,0.0,0.0,0.0,0.0,0.0,0.0,0.0,0.6338,0.9918,1.1937,1.2389,1.2535,1.2528,1.2474,1.2386,1.2372,1.2393,-2.8234,-2.8234,-2.8234,-2.8234,-2.8234,-2.8234,-2.8234,-2.8234,-2.8234,-2.8234,-2.8234,-2.8234,-2.8234,-2.8234,-2.8234,-2.8234,-2.8234,-2.8234,-2.8234,-2.8234,-2.8234,-2.8234,-2.7799,-2.6236,-2.3715,-2.0183,-1.7597,-1.577,-1.4387,-1.4299,-1.4299,-1.4299,-1.4299,-1.4299,-1.4299,-1.4299,-1.4299,-1.4299,-1.4299,-1.4299,-1.4299,-1.4299,-1.4299,-1.4299,-1.4299,-1.4299,-1.4299,-1.4299,-1.4299,-1.4299,-1.4299,-1.4299,-1.4299,-1.4299,-1.4299,-1.4299,-1.4299,-1.4299,-1.4299,-1.4299,-1.3224,-1.0895,-0.8486,-0.6079,-0.3759,-0.1434,0.0,0.0,0.0,0.0,0.0,0.0,0.0,0.0,0.0,0.0,0.0,0.0,0.0,0.0,0.0,0.0,0.0,0.0,0.0,0.0,0.0,0.0,0.0,0.0,0.0,0.0,0.0,0.0,0.0,0.0,0.0,0.0,0.0,0.0,0.0,0.0,0.0,0.0,0.0,0.6499,0.9928,1.175,1.2678,1.2596,1.2501,1.2474,1.242,1.2338,1.2338,-2.8234,-2.8234,-2.8234,-2.8234,-2.8234,-2.8234,-2.8234,-2.8234,-2.8234,-2.8234,-2.8234,-2.8234,-2.8248,-2.8261,-2.8301,-2.8315,-2.8301,-2.8355,-2.8341,-2.8301,-2.8203,-2.8203,-2.7714,-2.4069,-2.0962,-1.854,-1.5858,-1.4469,-1.4299,-1.4299,-1.4299,-1.4299,-1.4299,-1.4299,-1.4299,-1.4299,-1.4299,-1.4299,-1.4299,-1.4299,-1.4299,-1.4299,-1.4299,-1.4299,-1.4299,-1.4299,-1.4299,-1.4299,-1.4299,-1.4299,-1.4299,-1.4299,-1.4299,-1.4299,-1.4299,-1.4299,-1.4299,-1.4299,-1.4299,-1.385,-1.2686,-1.0268,-0.7859,-0.5898,-0.3222,0.0,0.0,0.0,0.0,0.0,0.0,0.0,0.0,0.0,0.0,0.0,0.0,0.0,0.0,0.0,0.0,0.0,0.0,0.0,0.0,0.0,0.0,0.0,0.0,0.0,0.0,0.0,0.0,0.0,0.0,0.0,0.0,0.0,0.0,0.0,0.0,0.0,0.0,0.2679,0.4831,0.7148,0.933,1.1323,1.2456,1.2562,1.2508,1.2501,1.244,1.2338,1.2311,-2.8234,-2.8234,-2.8234,-2.8234,-2.8234,-2.8234,-2.8234,-2.8234,-2.8234,-2.8234,-2.8234,-2.8234,-2.827,-2.847,-2.8484,-2.8591,-2.8711,-2.8764,-2.8671,-2.8511,-2.8484,-2.8337,-2.7317,-2.3458,-2.0875,-1.9749,-1.621,-1.4299,-1.4299,-1.4299,-1.4299,-1.4299,-1.4299,-1.4299,-1.4299,-1.4299,-1.4299,-1.4299,-1.4299,-1.4299,-1.4299,-1.4299,-1.4299,-1.4299,-1.4299,-1.4299,-1.4299,-1.4299,-1.4299,-1.4299,-1.4299,-1.4299,-1.4299,-1.4299,-1.4299,-1.4299,-1.4299,-1.4299,-1.4027,-1.2686,-1.0629,-0.8219,-0.6079,-0.349,-0.1165,0.0,0.0,0.0,0.0,0.0,0.0,0.0,0.0,0.0,0.0,0.0,0.0,0.0,0.0,0.0,0.0,0.0,0.0,0.0,0.0,0.0,0.0,0.0,0.0,0.0,0.0,0.0,0.0,0.0,0.0,0.0,0.0,0.0,0.0,0.0,0.0,0.0,0.0,0.2936,0.502,0.7286,0.9394,1.1382,1.1858,1.2556,1.2508,1.2494,1.2393,1.2298,1.2305,-2.8234,-2.8234,-2.8283,-2.8337,-2.8337,-2.8337,-2.8337,-2.831,-2.8274,-2.8234,-2.8234,-2.8234,-2.831,-2.8591,-2.8604,-2.8684,-2.8845,-2.8858,-2.8684,-2.843,-2.839,-2.8297,-2.7037,-2.347,-2.1221,-2.0702,-1.6466,-1.4557,-1.4299,-1.4299,-1.4299,-1.4299,-1.4299,-1.4299,-1.4299,-1.4299,-1.4299,-1.4299,-1.4299,-1.4299,-1.4299,-1.4299,-1.4299,-1.4299,-1.4299,-1.4299,-1.4299,-1.4299,-1.4299,-1.4299,-1.4299,-1.4299,-1.4299,-1.4299,-1.4299,-1.4299,-1.4299,-1.4299,-1.385,-1.2059,-0.9646,-0.7328,-0.4919,-0.2598,0.0,0.0,0.0,0.0,0.0,0.0,0.0,0.0,0.0,0.0,0.0,0.0,0.0,0.0,0.0,0.0,0.0,0.0,0.0,0.0,0.0,0.0,0.0,0.0,0.0,0.0,0.0,0.0,0.0,0.0,0.0,0.0,0.0,0.0,0.0,0.0,0.0,0.0,0.0,0.2855,0.5114,0.7248,0.9092,1.0902,1.2226,1.2637,1.2562,1.2481,1.24,1.2325,1.2325,-2.8261,-2.8261,-2.847,-2.8591,-2.8537,-2.8551,-2.8524,-2.8537,-2.8323,-2.8328,-2.8368,-2.8341,-2.8497,-2.8684,-2.8804,-2.8751,-2.8804,-2.8858,-2.8551,-2.8364,-2.827,-2.8132,-2.694,-2.3212,-2.1048,-2.0009,-1.621,-1.4646,-1.4299,-1.4299,-1.4299,-1.4299,-1.4299,-1.4299,-1.4299,-1.4299,-1.4299,-1.4299,-1.4299,-1.4299,-1.4299,-1.4299,-1.4299,-1.4299,-1.4299,-1.4299,-1.4299,-1.4299,-1.4299,-1.4299,-1.4299,-1.4299,-1.4299,-1.4299,-1.4299,-1.4299,-1.4299,-1.4299,-1.385,-1.1699,-0.9375,-0.7057,-0.4651,-0.2419,0.0,0.0,0.0,0.0,0.0,0.0,0.0,0.0,0.0,0.0,0.0,0.0,0.0,0.0,0.0,0.0,0.0,0.0,0.0,0.0,0.0,0.0,0.0,0.0,0.0,0.0,0.0,0.0,0.0,0.0,0.0,0.0,0.0,0.0,0.0,0.0,0.0,0.0,0.0,0.2604,0.4695,0.6553,0.8306,1.0062,1.2074,1.2651,1.2522,1.2501,1.2481,1.2406,1.2379,-2.8364,-2.8248,-2.847,-2.847,-2.8355,-2.8328,-2.839,-2.8617,-2.8537,-2.8617,-2.8791,-2.8831,-2.8991,-2.9272,-2.9259,-2.9406,-2.9472,-2.9299,-2.9018,-2.8551,-2.8511,-2.7217,-2.5433,-2.2363,-2.0366,-1.8462,-1.5778,-1.4387,-1.4299,-1.4299,-1.4299,-1.4299,-1.4299,-1.4299,-1.4299,-1.4299,-1.4299,-1.4299,-1.4299,-1.4299,-1.4299,-1.4299,-1.4299,-1.4299,-1.4299,-1.4299,-1.4299,-1.4299,-1.4299,-1.4299,-1.4299,-1.4299,-1.4299,-1.4299,-1.4299,-1.4299,-1.4299,-1.4299,-1.3578,-1.0629,-0.777,-0.6968,-0.349,0.0,0.0,0.0,0.0,0.0,0.0,0.0,0.0,0.0,0.0,0.0,0.0,0.0,0.0,0.0,0.0,0.0,0.0,0.0,0.0,0.0,0.0,0.0,0.0,0.0,0.0,0.0,0.0,0.0,0.0,0.0,0.0,0.0,0.0,0.0,0.0,0.0,0.0,0.0,0.0,0.0,0.4195,0.6037,0.7742,1.0586,1.2868,1.2678,1.2508,1.2501,1.2488,1.2447,1.2427,-2.8283,-2.8274,-2.8617,-2.8711,-2.8604,-2.8711,-2.8858,-2.8965,-2.8858,-2.8898,-2.9018,-2.8958,-2.9205,-2.9472,-2.9486,-2.9566,-2.9606,-2.9406,-2.9112,-2.8845,-2.8618,-2.6698,-2.3693,-2.1971,-2.0211,-1.7789,-1.5425,-1.4387,-1.4299,-1.4299,-1.4299,-1.4299,-1.4299,-1.4299,-1.4299,-1.4299,-1.4299,-1.4299,-1.4299,-1.4299,-1.4299,-1.4299,-1.4299,-1.4299,-1.4299,-1.4299,-1.4299,-1.4299,-1.4299,-1.4299,-1.4299,-1.4299,-1.4299,-1.4299,-1.4299,-1.4299,-1.4299,-1.4299,-1.3224,-1.0091,-0.7146,-0.7057,-0.2687,0.0,0.0,0.0,0.0,0.0,0.0,0.0,0.0,0.0,0.0,0.0,0.0,0.0,0.0,0.0,0.0,0.0,0.0,0.0,0.0,0.0,0.0,0.0,0.0,0.0,0.0,0.0,0.0,0.0,0.0,0.0,0.0,0.0,0.0,0.0,0.0,0.0,0.0,0.0,0.0,0.0,0.3608,0.5574,0.7553,1.0508,1.2822,1.2725,1.2596,1.2542,1.2494,1.2474,1.2467,-2.8301,-2.8341,-2.8804,-2.8958,-2.9085,-2.9272,-2.9379,-2.9419,-2.9219,-2.9152,-2.9179,-2.9091,-2.9392,-2.9526,-2.9579,-2.9539,-2.9446,-2.9278,-2.9043,-2.8034,-2.8098,-2.5272,-2.2096,-2.0705,-1.9512,-1.7329,-1.5278,-1.4394,-1.4299,-1.4299,-1.4299,-1.4299,-1.4299,-1.4299,-1.4299,-1.4299,-1.4299,-1.4299,-1.4299,-1.4299,-1.4299,-1.4299,-1.4299,-1.4299,-1.4299,-1.4299,-1.4299,-1.4299,-1.4299,-1.4299,-1.4299,-1.4299,-1.4299,-1.4299,-1.4299,-1.4299,-1.4299,-1.4299,-1.3401,-1.0091,-0.7057,-0.6882,-0.2687,0.0,0.0,0.0,0.0,0.0,0.0,0.0,0.0,0.0,0.0,0.0,0.0,0.0,0.0,0.0,0.0,0.0,0.0,0.0,0.0,0.0,0.0,0.0,0.0,0.0,0.0,0.0,0.0,0.0,0.0,0.0,0.0,0.0,0.0,0.0,0.0,0.0,0.0,0.0,0.0,0.0,0.2933,0.5073,0.7581,1.0433,1.2016,1.2358,1.2637,1.2528,1.2501,1.2501,1.2501,-2.8537,-2.8564,-2.8898,-2.8958,-2.9045,-2.9112,-2.9299,-2.9459,-2.9432,-2.9553,-2.9726,-2.9753,-2.9753,-2.982,-2.9833,-2.9726,-2.9606,-2.9326,-2.8308,-2.6717,-2.6145,-2.3662,-2.0002,-1.9249,-1.7706,-1.5665,-1.4551,-1.434,-1.4312,-1.4299,-1.4299,-1.4299,-1.4299,-1.4299,-1.4299,-1.4299,-1.4299,-1.4299,-1.4299,-1.4299,-1.4299,-1.4299,-1.4299,-1.4299,-1.4299,-1.4299,-1.4299,-1.4299,-1.4299,-1.4299,-1.4299,-1.4299,-1.4299,-1.4299,-1.4299,-1.4299,-1.4299,-1.4299,-1.3312,-0.9824,-0.7502,-0.6076,-0.2687,0.0,0.0,0.0,0.0,0.0,0.0,0.0,0.0,0.0,0.0,0.0,0.0,0.0,0.0,0.0,0.0,0.0,0.0,0.0,0.0,0.0,0.0,0.0,0.0,0.0,0.0,0.0,0.0,0.0,0.0,0.0,0.0,0.0,0.0,0.0,0.0,0.0,0.0,0.0,0.0,0.0,0.0,0.5505,0.8008,1.0373,1.1826,1.2609,1.2606,1.2522,1.2535,1.2562,1.2522,-2.8511,-2.843,-2.9005,-2.9179,-2.9112,-2.9379,-2.9579,-2.97,-2.9713,-2.978,-2.9887,-2.9913,-2.9913,-2.9913,-2.9913,-2.99,-2.9774,-2.8308,-2.7267,-2.5975,-2.4585,-2.2283,-1.8573,-1.8374,-1.6871,-1.5349,-1.459,-1.4475,-1.4407,-1.4333,-1.4312,-1.4299,-1.4299,-1.4299,-1.4299,-1.4299,-1.4299,-1.4299,-1.4299,-1.4299,-1.4299,-1.4299,-1.4299,-1.4299,-1.4299,-1.4299,-1.4299,-1.4299,-1.4299,-1.4299,-1.4299,-1.4299,-1.4299,-1.4299,-1.4299,-1.4299,-1.4299,-1.3666,-1.2325,-0.9019,-0.679,-0.5008,-0.1882,0.0,0.0,0.0,0.0,0.0,0.0,0.0,0.0,0.0,0.0,0.0,0.0,0.0,0.0,0.0,0.0,0.0,0.0,0.0,0.0,0.0,0.0,0.0,0.0,0.0,0.0,0.0,0.0,0.0,0.0,0.0,0.0,0.0,0.0,0.0,0.0,0.0,0.0,0.0,0.0,0.0,0.0,0.0,0.7233,0.9231,1.0941,1.2628,1.2761,1.2739,1.2657,1.261,1.2596,-2.843,-2.839,-2.9098,-2.9325,-2.9299,-2.9713,-2.99,-2.9913,-2.99,-2.99,-2.9913,-2.9913,-2.9913,-2.9927,-2.9993,-3.01,-3.0079,-2.7541,-2.6291,-2.4987,-2.2872,-2.0336,-1.8509,-1.7732,-1.6689,-1.5158,-1.4787,-1.4706,-1.4557,-1.4428,-1.436,-1.4346,-1.4333,-1.4299,-1.4299,-1.4299,-1.4299,-1.4299,-1.4299,-1.4299,-1.4299,-1.4299,-1.4299,-1.4299,-1.4299,-1.4299,-1.4299,-1.4299,-1.4299,-1.4299,-1.4299,-1.4299,-1.4299,-1.4299,-1.4299,-1.4299,-1.4299,-1.2952,-1.0895,-0.8575,-0.6165,-0.4116,-0.1524,0.0,0.0,0.0,0.0,0.0,0.0,0.0,0.0,0.0,0.0,0.0,0.0,0.0,0.0,0.0,0.0,0.0,0.0,0.0,0.0,0.0,0.0,0.0,0.0,0.0,0.0,0.0,0.0,0.0,0.0,0.0,0.0,0.0,0.0,0.0,0.0,0.0,0.0,0.0,0.0,0.0,0.0,0.31,0.5591,0.8388,1.0601,1.2155,1.2768,1.2935,1.282,1.2766,1.2752,-2.8484,-2.8938,-2.9045,-2.9366,-2.9766,-2.9873,-2.9913,-2.9913,-2.9913,-2.9913,-2.9913,-2.9913,-2.9913,-2.9967,-3.0194,-3.0167,-2.9196,-2.7336,-2.504,-2.3046,-2.0519,-1.8152,-1.6083,-1.5622,-1.5767,-1.5052,-1.4984,-1.4862,-1.4719,-1.457,-1.4482,-1.4455,-1.4353,-1.4299,-1.4299,-1.4299,-1.4299,-1.4299,-1.4299,-1.4299,-1.4299,-1.4299,-1.4299,-1.4299,-1.4299,-1.4299,-1.4299,-1.4299,-1.4299,-1.4299,-1.4299,-1.4299,-1.4299,-1.4299,-1.4299,-1.4299,-1.4027,-1.3224,-1.0806,-0.8486,-0.6079,-0.3761,-0.1346,0.0,0.0,0.0,0.0,0.0,0.0,0.0,0.0,0.0,0.0,0.0,0.0,0.0,0.0,0.0,0.0,0.0,0.0,0.0,0.0,0.0,0.0,0.0,0.0,0.0,0.0,0.0,0.0,0.0,0.0,0.0,0.0,0.0,0.0,0.0,0.0,0.0,0.0,0.0,0.0,0.0,0.0,0.0,0.5685,0.8397,1.0563,1.2006,1.2882,1.3051,1.2956,1.2929,1.2915,-2.8657,-2.9045,-2.9219,-2.9432,-2.9673,-2.9833,-2.9913,-2.9913,-2.9913,-2.9913,-2.9913,-2.9913,-2.9913,-2.9993,-3.0221,-2.9534,-2.7977,-2.5831,-2.3384,-2.0849,-1.8395,-1.643,-1.566,-1.5228,-1.5181,-1.5167,-1.5126,-1.5079,-1.4909,-1.4679,-1.4516,-1.4502,-1.438,-1.4299,-1.4333,-1.4306,-1.4299,-1.4299,-1.4299,-1.4299,-1.4299,-1.4299,-1.4299,-1.4299,-1.4299,-1.4299,-1.4299,-1.4299,-1.4299,-1.4299,-1.4299,-1.4299,-1.4299,-1.4299,-1.4299,-1.4299,-1.4299,-1.3135,-1.0895,-0.8486,-0.6082,-0.3768,0.0,0.0,0.0,0.0,0.0,0.0,0.0,0.0,0.0,0.0,0.0,0.0,0.0,0.0,0.0,0.0,0.0,0.0,0.0,0.0,0.0,0.0,0.0,0.0,0.0,0.0,0.0,0.0,0.0,0.0,0.0,0.0,0.0,0.0,0.0,0.0,0.0,0.0,0.0,0.0,0.0,0.0,0.0,0.0,0.0,0.7682,0.9224,1.1194,1.3254,1.318,1.3105,1.3085,1.3071,-2.8818,-2.9165,-2.9392,-2.9526,-2.9606,-2.9833,-2.9967,-3.0034,-3.0034,-3.0034,-3.002,-3.0034,-3.0034,-2.9843,-2.9573,-2.8501,-2.6771,-2.3737,-2.1534,-1.9225,-1.7121,-1.5739,-1.5384,-1.5289,-1.5228,-1.5181,-1.5167,-1.5153,-1.5052,-1.4862,-1.4658,-1.4618,-1.4529,-1.4448,-1.4421,-1.4434,-1.4434,-1.4373,-1.4367,-1.4346,-1.4312,-1.4299,-1.4299,-1.4299,-1.4299,-1.4299,-1.4299,-1.4299,-1.4299,-1.4299,-1.4299,-1.4299,-1.4299,-1.4299,-1.4299,-1.4312,-1.4333,-1.3738,-1.1493,-0.9156,-0.6192,-0.3695,0.0,0.0,0.0,0.0,0.0,0.0,0.0,0.0,0.0,0.0,0.0,0.0,0.0,0.0,0.0,0.0,0.0,0.0,0.0,0.0,0.0,0.0,0.0,0.0,0.0,0.0,0.0,0.0,0.0,0.0,0.0,0.0,0.0,0.0,0.0,0.0,0.0,0.0,0.0,0.0,0.0,0.0,0.0,0.0,0.0,0.6121,0.7952,1.0931,1.3322,1.3308,1.3268,1.3241,1.3227,-2.8938,-2.9459,-2.9486,-2.9659,-2.9887,-2.99,-3.0074,-3.0314,-3.0314,-3.0314,-3.0327,-3.0314,-3.0301,-2.9978,-2.8613,-2.7439,-2.6537,-2.2087,-2.0097,-1.8584,-1.6951,-1.5739,-1.5466,-1.5384,-1.5309,-1.5201,-1.5181,-1.5181,-1.5147,-1.5025,-1.493,-1.4916,-1.4726,-1.4706,-1.4672,-1.4624,-1.4584,-1.4523,-1.4502,-1.4441,-1.438,-1.4346,-1.434,-1.4333,-1.4319,-1.4299,-1.4306,-1.4319,-1.4326,-1.4326,-1.4306,-1.4299,-1.4299,-1.4326,-1.4333,-1.4353,-1.4448,-1.4123,-1.295,-0.9604,-0.6169,-0.3736,0.0,0.0,0.0,0.0,0.0,0.0,0.0,0.0,0.0,0.0,0.0,0.0,0.0,0.0,0.0,0.0,0.0,0.0,0.0,0.0,0.0,0.0,0.0,0.0,0.0,0.0,0.0,0.0,0.0,0.0,0.0,0.0,0.0,0.0,0.0,0.0,0.0,0.0,0.0,0.0,0.0,0.0,0.0,0.0,0.3205,0.5474,0.8072,1.1564,1.3397,1.341,1.339,1.3356,1.3349,-2.9005,-2.9245,-2.9593,-2.9913,-3.0167,-2.9993,-3.0181,-3.0541,-3.0434,-3.0461,-3.0608,-3.0461,-3.0461,-2.9938,-2.8226,-2.6291,-2.4504,-2.162,-1.9216,-1.7539,-1.6203,-1.5689,-1.5574,-1.5445,-1.533,-1.5221,-1.5187,-1.5181,-1.5167,-1.514,-1.5187,-1.5126,-1.4936,-1.4774,-1.4733,-1.4787,-1.4719,-1.4685,-1.4652,-1.4611,-1.4597,-1.457,-1.457,-1.457,-1.457,-1.457,-1.4563,-1.4475,-1.4441,-1.4407,-1.4353,-1.4333,-1.4346,-1.4394,-1.4428,-1.4448,-1.457,-1.4638,-1.3822,-1.0072,-0.5697,-0.2041,0.0,0.0,0.0,0.0,0.0,0.0,0.0,0.0,0.0,0.0,0.0,0.0,0.0,0.0,0.0,0.0,0.0,0.0,0.0,0.0,0.0,0.0,0.0,0.0,0.0,0.0,0.0,0.0,0.0,0.0,0.0,0.0,0.0,0.0,0.0,0.0,0.0,0.0,0.0,0.0,0.0,0.0,0.0,0.0,0.2901,0.5259,0.7945,1.0886,1.2675,1.3546,1.3512,1.3478,1.3471,-2.8965,-2.9098,-2.9579,-3.0007,-3.0301,-3.0034,-3.0247,-3.0675,-3.0488,-3.0528,-3.0689,-2.9991,-2.9582,-2.8962,-2.6325,-2.4235,-2.2035,-1.9813,-1.7917,-1.6715,-1.6053,-1.5839,-1.571,-1.5601,-1.5506,-1.535,-1.5316,-1.5337,-1.535,-1.5323,-1.5377,-1.535,-1.5194,-1.5079,-1.5031,-1.495,-1.4903,-1.4828,-1.4808,-1.4774,-1.4746,-1.4726,-1.4726,-1.4713,-1.4706,-1.4706,-1.4685,-1.4624,-1.4584,-1.4557,-1.4509,-1.4455,-1.4475,-1.4509,-1.457,-1.4631,-1.4706,-1.4801,-1.3603,-1.0179,-0.5304,-0.1222,0.0,0.0,0.0,0.0,0.0,0.0,0.0,0.0,0.0,0.0,0.0,0.0,0.0,0.0,0.0,0.0,0.0,0.0,0.0,0.0,0.0,0.0,0.0,0.0,0.0,0.0,0.0,0.0,0.0,0.0,0.0,0.0,0.0,0.0,0.0,0.0,0.0,0.0,0.0,0.0,0.0,0.0,0.0,0.0,0.2158,0.3858,0.6659,0.9869,1.1684,1.3604,1.3682,1.3648,1.3614,-2.8791,-2.9058,-2.9379,-2.9833,-3.0301,-3.0047,-3.0247,-3.0728,-3.0528,-3.0568,-3.0571,-2.8743,-2.7712,-2.6656,-2.3448,-2.1182,-2.0222,-1.7924,-1.6374,-1.6162,-1.6049,-1.5967,-1.5872,-1.5778,-1.5676,-1.5642,-1.5574,-1.5547,-1.5588,-1.5547,-1.5588,-1.5642,-1.5567,-1.5527,-1.5581,-1.5452,-1.5242,-1.5018,-1.4984,-1.4896,-1.4828,-1.4808,-1.4808,-1.4814,-1.4814,-1.4828,-1.4814,-1.4774,-1.474,-1.4719,-1.4685,-1.4652,-1.4665,-1.4706,-1.4733,-1.4746,-1.4882,-1.4957,-1.45,-1.0003,-0.527,0.0,0.0,0.0,0.0,0.0,0.0,0.0,0.0,0.0,0.0,0.0,0.0,0.0,0.0,0.0,0.0,0.0,0.0,0.0,0.0,0.0,0.0,0.0,0.0,0.0,0.0,0.0,0.0,0.0,0.0,0.0,0.0,0.0,0.0,0.0,0.0,0.0,0.0,0.0,0.0,0.0,0.0,0.0,0.0,0.0,0.0,0.2082,0.5966,0.985,1.2172,1.3752,1.3745,1.3718,1.3743,-2.8778,-2.9072,-2.9366,-2.982,-3.0274,-3.0047,-3.0247,-3.0715,-3.0715,-3.0808,-3.0477,-2.8421,-2.7403,-2.5987,-2.2556,-1.9782,-1.9388,-1.7353,-1.6083,-1.6083,-1.6083,-1.5981,-1.59,-1.5852,-1.5784,-1.5676,-1.5642,-1.5662,-1.5622,-1.5669,-1.5723,-1.5764,-1.5839,-1.5811,-1.5642,-1.5493,-1.5337,-1.5255,-1.5174,-1.5086,-1.5038,-1.5018,-1.5018,-1.5011,-1.5011,-1.5004,-1.4997,-1.493,-1.4896,-1.4875,-1.4835,-1.4774,-1.4794,-1.4828,-1.4903,-1.493,-1.5038,-1.4303,-1.2644,-0.915,-0.5432,0.0,0.0,0.0,0.0,0.0,0.0,0.0,0.0,0.0,0.0,0.0,0.0,0.0,0.0,0.0,0.0,0.0,0.0,0.0,0.0,0.0,0.0,0.0,0.0,0.0,0.0,0.0,0.0,0.0,0.0,0.0,0.0,0.0,0.0,0.0,0.0,0.0,0.0,0.0,0.0,0.0,0.0,0.0,0.0,0.0,0.0,0.2632,0.641,0.9923,1.2178,1.3734,1.3994,1.3919,1.3732,-2.8617,-2.8911,-2.9205,-2.9606,-3.0007,-2.9953,-3.0154,-3.0305,-2.9833,-2.9563,-2.8968,-2.6264,-2.4693,-2.3548,-2.096,-1.8616,-1.8418,-1.7055,-1.6083,-1.6083,-1.6083,-1.6022,-1.5967,-1.592,-1.5906,-1.5805,-1.5784,-1.5805,-1.5818,-1.5805,-1.5852,-1.594,-1.6029,-1.5961,-1.5791,-1.5635,-1.5459,-1.5371,-1.5248,-1.516,-1.5153,-1.516,-1.5167,-1.516,-1.516,-1.5167,-1.5153,-1.5106,-1.5045,-1.5011,-1.4964,-1.4896,-1.4936,-1.5025,-1.5113,-1.516,-1.5066,-1.3549,-1.071,-0.9088,-0.5213,0.0,0.0,0.0,0.0,0.0,0.0,0.0,0.0,0.0,0.0,0.0,0.0,0.0,0.0,0.0,0.0,0.0,0.0,0.0,0.0,0.0,0.0,0.0,0.0,0.0,0.0,0.0,0.0,0.0,0.0,0.0,0.0,0.0,0.0,0.0,0.0,0.0,0.0,0.0,0.0,0.0,0.0,0.0,0.0,0.0,0.0,0.3282,0.6558,0.9485,1.1962,1.3273,1.3974,1.4068,1.3966,-2.8323,-2.8631,-2.8911,-2.9219,-2.9513,-2.9806,-2.994,-2.971,-2.7903,-2.7086,-2.6736,-2.251,-2.1031,-1.997,-1.7452,-1.6474,-1.6573,-1.6182,-1.6182,-1.6083,-1.6083,-1.6062,-1.6062,-1.6049,-1.6015,-1.6042,-1.6035,-1.5981,-1.6056,-1.6008,-1.6022,-1.6056,-1.6069,-1.6035,-1.5934,-1.5778,-1.5588,-1.5459,-1.5323,-1.5228,-1.5194,-1.5208,-1.5228,-1.5242,-1.5255,-1.5248,-1.5242,-1.5221,-1.5208,-1.5194,-1.5187,-1.5194,-1.5242,-1.5337,-1.5391,-1.5452,-1.5547,-1.2966,-1.0347,-0.9278,-0.6172,-0.235,0.0,0.0,0.0,0.0,0.0,0.0,0.0,0.0,0.0,0.0,0.0,0.0,0.0,0.0,0.0,0.0,0.0,0.0,0.0,0.0,0.0,0.0,0.0,0.0,0.0,0.0,0.0,0.0,0.0,0.0,0.0,0.0,0.0,0.0,0.0,0.0,0.0,0.0,0.0,0.0,0.0,0.0,0.0,0.0,0.0,0.0,0.6065,0.8829,1.1135,1.3003,1.3865,1.415,1.4177,-2.8323,-2.8604,-2.8698,-2.9018,-2.9499,-2.9793,-2.9913,-2.962,-2.7799,-2.6888,-2.6631,-2.2035,-1.9773,-1.9782,-1.7353,-1.6374,-1.6083,-1.6083,-1.6083,-1.6083,-1.6083,-1.6083,-1.6083,-1.6083,-1.6083,-1.6083,-1.6083,-1.6083,-1.6076,-1.6083,-1.6083,-1.6076,-1.6083,-1.6083,-1.6015,-1.5886,-1.573,-1.5574,-1.5425,-1.5316,-1.5269,-1.5303,-1.5323,-1.5357,-1.5432,-1.5418,-1.5371,-1.5438,-1.5432,-1.5364,-1.5452,-1.5499,-1.5513,-1.5554,-1.5574,-1.5588,-1.5592,-1.4898,-1.3217,-1.0058,-0.6922,-0.437,-0.198,0.0,0.0,0.0,0.0,0.0,0.0,0.0,0.0,0.0,0.0,0.0,0.0,0.0,0.0,0.0,0.0,0.0,0.0,0.0,0.0,0.0,0.0,0.0,0.0,0.0,0.0,0.0,0.0,0.0,0.0,0.0,0.0,0.0,0.0,0.0,0.0,0.0,0.0,0.0,0.0,0.0,0.0,0.0,0.0,0.0,0.0,0.7502,0.9726,1.1871,1.3666,1.4027,1.4299,-2.8243,-2.843,-2.8564,-2.8885,-2.915,-2.8731,-2.8385,-2.7948,-2.626,-2.4909,-2.3547,-2.0013,-1.8418,-1.8129,-1.6765,-1.6083,-1.6083,-1.6083,-1.6083,-1.6083,-1.6083,-1.6083,-1.6083,-1.6083,-1.6083,-1.6083,-1.6083,-1.6083,-1.6083,-1.6083,-1.6083,-1.6083,-1.6083,-1.6083,-1.6049,-1.5981,-1.5872,-1.5723,-1.5588,-1.5466,-1.5432,-1.5445,-1.5479,-1.552,-1.5615,-1.5574,-1.5527,-1.5622,-1.5581,-1.5513,-1.5615,-1.5635,-1.5649,-1.5683,-1.5778,-1.5805,-1.5886,-1.5138,-1.3243,-1.0158,-0.8001,-0.5716,0.0,0.0,0.0,0.0,0.0,0.0,0.0,0.0,0.0,0.0,0.0,0.0,0.0,0.0,0.0,0.0,0.0,0.0,0.0,0.0,0.0,0.0,0.0,0.0,0.0,0.0,0.0,0.0,0.0,0.0,0.0,0.0,0.0,0.0,0.0,0.0,0.0,0.0,0.0,0.0,0.0,0.0,0.0,0.0,0.0,0.0,0.4561,0.6611,0.893,1.1433,1.3312,1.4122,1.4299,-2.8234,-2.8261,-2.847,-2.8751,-2.871,-2.7112,-2.603,-2.5307,-2.352,-2.147,-1.9367,-1.7169,-1.6312,-1.6609,-1.6128,-1.6056,-1.6069,-1.6083,-1.6083,-1.6083,-1.6083,-1.6083,-1.6083,-1.6083,-1.6083,-1.6083,-1.6083,-1.6083,-1.6083,-1.6083,-1.6083,-1.6083,-1.6083,-1.6083,-1.6069,-1.6062,-1.5974,-1.5879,-1.5771,-1.5669,-1.5628,-1.5635,-1.5655,-1.5662,-1.5683,-1.5683,-1.5669,-1.5669,-1.5662,-1.5662,-1.5683,-1.5696,-1.5784,-1.5852,-1.5974,-1.6069,-1.6137,-1.5306,-1.3279,-1.0258,-0.7433,-0.4831,0.0,0.0,0.0,0.0,0.0,0.0,0.0,0.0,0.0,0.0,0.0,0.0,0.0,0.0,0.0,0.0,0.0,0.0,0.0,0.0,0.0,0.0,0.0,0.0,0.0,0.0,0.0,0.0,0.0,0.0,0.0,0.0,0.0,0.0,0.0,0.0,0.0,0.0,0.0,0.0,0.0,0.0,0.0,0.0,0.0,0.0,0.0,0.6522,0.8842,1.1167,1.2774,1.3938,1.4299,-2.8234,-2.8261,-2.8484,-2.8657,-2.8393,-2.6582,-2.4643,-2.2865,-2.0797,-1.9551,-1.8777,-1.6898,-1.5818,-1.592,-1.5927,-1.5974,-1.6069,-1.6083,-1.6083,-1.6083,-1.6083,-1.6083,-1.6083,-1.6083,-1.6083,-1.6083,-1.6083,-1.6083,-1.6103,-1.6096,-1.6083,-1.609,-1.6083,-1.6083,-1.6083,-1.6083,-1.6042,-1.5995,-1.5954,-1.5825,-1.571,-1.5764,-1.5805,-1.5839,-1.5866,-1.5872,-1.5879,-1.5913,-1.5872,-1.5839,-1.5934,-1.6029,-1.6144,-1.6178,-1.6273,-1.6381,-1.6381,-1.5714,-1.403,-1.0959,-0.7904,-0.5753,0.0,0.0,0.0,0.0,0.0,0.0,0.0,0.0,0.0,0.0,0.0,0.0,0.0,0.0,0.0,0.0,0.0,0.0,0.0,0.0,0.0,0.0,0.0,0.0,0.0,0.0,0.0,0.0,0.0,0.0,0.0,0.0,0.0,0.0,0.0,0.0,0.0,0.0,0.0,0.0,0.0,0.0,0.0,0.0,0.0,0.0,0.0,0.0,0.7859,0.9913,1.242,1.3938,1.421,-2.8234,-2.8261,-2.8484,-2.7912,-2.6646,-2.4764,-2.2532,-2.0185,-1.8084,-1.725,-1.721,-1.6163,-1.5716,-1.5839,-1.5852,-1.5934,-1.6056,-1.6076,-1.6083,-1.6083,-1.6083,-1.6083,-1.6083,-1.6083,-1.6083,-1.6083,-1.6083,-1.6096,-1.6151,-1.611,-1.609,-1.6144,-1.6137,-1.6083,-1.6083,-1.6083,-1.6083,-1.6076,-1.6083,-1.5981,-1.5818,-1.59,-1.5954,-1.5995,-1.6008,-1.6015,-1.6056,-1.6096,-1.6117,-1.6117,-1.6205,-1.6286,-1.6361,-1.6381,-1.6429,-1.6483,-1.6497,-1.649,-1.4884,-1.2079,-0.8487,-0.6515,0.0,0.0,0.0,0.0,0.0,0.0,0.0,0.0,0.0,0.0,0.0,0.0,0.0,0.0,0.0,0.0,0.0,0.0,0.0,0.0,0.0,0.0,0.0,0.0,0.0,0.0,0.0,0.0,0.0,0.0,0.0,0.0,0.0,0.0,0.0,0.0,0.0,0.0,0.0,0.0,0.0,0.0,0.0,0.0,0.0,0.0,0.0,0.0,0.6433,0.8397,1.1072,1.385,1.4122,-2.8234,-2.8274,-2.843,-2.7085,-2.459,-2.268,-2.0476,-1.8038,-1.5898,-1.5049,-1.5317,-1.5493,-1.5649,-1.5784,-1.5832,-1.5954,-1.6035,-1.6069,-1.6083,-1.6083,-1.6083,-1.6083,-1.6083,-1.6083,-1.6083,-1.6083,-1.6083,-1.6178,-1.6279,-1.6178,-1.6137,-1.6239,-1.6185,-1.6083,-1.6083,-1.6083,-1.6083,-1.6083,-1.6083,-1.6083,-1.6069,-1.6083,-1.6083,-1.609,-1.611,-1.6117,-1.6171,-1.6239,-1.6327,-1.6361,-1.6408,-1.6483,-1.6537,-1.6551,-1.6592,-1.6625,-1.6653,-1.6619,-1.5417,-1.1475,-0.9292,-0.6917,-0.2591,0.0,0.0,0.0,0.0,0.0,0.0,0.0,0.0,0.0,0.0,0.0,0.0,0.0,0.0,0.0,0.0,0.0,0.0,0.0,0.0,0.0,0.0,0.0,0.0,0.0,0.0,0.0,0.0,0.0,0.0,0.0,0.0,0.0,0.0,0.0,0.0,0.0,0.0,0.0,0.0,0.0,0.0,0.0,0.0,0.0,0.0,0.0,0.5722,0.8219,1.1433,1.3673,1.4122,-2.8234,-2.8234,-2.8217,-2.6893,-2.4446,-2.2275,-2.0025,-1.789,-1.5684,-1.4848,-1.4991,-1.516,-1.5411,-1.5683,-1.5683,-1.5811,-1.6056,-1.6083,-1.6083,-1.6083,-1.6083,-1.6083,-1.6083,-1.6083,-1.6083,-1.6083,-1.6096,-1.6178,-1.6279,-1.6178,-1.6157,-1.6286,-1.6164,-1.609,-1.609,-1.609,-1.609,-1.6096,-1.609,-1.609,-1.6096,-1.6117,-1.6171,-1.6212,-1.6266,-1.6341,-1.6408,-1.6463,-1.6476,-1.6497,-1.653,-1.6612,-1.6666,-1.6714,-1.6748,-1.6795,-1.6822,-1.6359,-1.4636,-1.1064,-0.8965,-0.7158,0.0,0.0,0.0,0.0,0.0,0.0,0.0,0.0,0.0,0.0,0.0,0.0,0.0,0.0,0.0,0.0,0.0,0.0,0.0,0.0,0.0,0.0,0.0,0.0,0.0,0.0,0.0,0.0,0.0,0.0,0.0,0.0,0.0,0.0,0.0,0.0,0.0,0.0,0.0,0.0,0.0,0.0,0.0,0.0,0.0,0.0,0.0,0.3759,0.5722,0.8219,1.1344,1.3584,1.4122]}]]